     2.10           OBSERVATION DATA    G (GPS)             RINEX VERSION / TYPE
teqc 2005Sep1 20060522 13:27:56UTC                          PGM / RUN BY / DATE
MSXP|IAx86-PII|bcc32 5.0|MSWin95->XP|486/DX+                COMMENT
teqc 2002Mar14 20060428 13:26:27UTC                         COMMENT
MSWin2000|IAx86-PII|wcl386 11.0|MSWin95/98/NT/2000|486/DX+  COMMENT
2 OBSERVATION DATA G                                        COMMENT
Leica SKI-Pro 3.0 V3 27-4-6 16:12                           COMMENT
L1PhaOff: 0.0683 L2PhaOff: 0.0712                           COMMENT
C1 P1 L1 D1 P2 L2 D2                                        COMMENT
teqc windowed: start @ 2006 Apr 25 00:00: 0.000             COMMENT
k1                                                          MARKER NAME
k1                                                          MARKER NUMBER
                                                            OBSERVER / AGENCY
3371 LEICA SR530 5.00                                       REC # / TYPE / VERS
AT502 Pillar                                                ANT # / TYPE
  1582527.5785 -1933194.9663  5848869.8271                  APPROX POSITION XYZ
        1.5600        0.0000        0.0000                  ANTENNA: DELTA H/E/N
     1     1                                                WAVELENGTH FACT L1/2
     4    C1    L1    P2    L2                              # / TYPES OF OBSERV
    30.0000                                                 INTERVAL
Forced Modulo Decimation to 30 seconds                      COMMENT
teqc windowed: start @ 2006 Apr 25 13:23:30.000             COMMENT
  2006     4    25    13    23   30.0000000     GPS         TIME OF FIRST OBS
                                                            END OF HEADER
 06  4 25 13 23 30.0000000  0 11G 1G 2G 4G 5G13G17G20G23G24G25G30
  25022232.093   131492714.37046  25022232.617   102461858.51148
  21488458.146   112922626.31448  21488454.621    87991628.53549
  20440855.555   107417415.60349  20440853.527    83701877.99449
  23204272.570   121939290.19248  23204271.387    95017612.73848
  22719524.770   119391913.37048  22719522.741    93032649.03749
  24169733.169   127012812.007 7  24169732.590    98971011.442 8
  23044150.589   121097823.71748  23044149.131    94361934.27648
  21778958.505   114449196.04048  21778954.798    89181179.66749
  21736972.393   114228565.90748  21736971.759    89009268.11049
  23689018.825   124486639.45248  23689017.504    97002567.96248
  22695527.850   119265811.07947  22695527.629    92934391.34648
 06  4 25 13 24  0.0000000  0 11G 1G 2G 4G 5G13G17G20G23G24G25G30
  25041400.563   131593444.88946  25041401.064   102540349.75148
  21473721.820   112845186.49448  21473718.262    87931285.82849
  20441145.871   107418941.16249  20441143.977    83703066.74449
  23215957.861   122000696.61948  23215956.778    95065461.83748
  22702012.409   119299885.47748  22702010.499    92960939.02248
  24191916.202   127129382.976 6  24191916.354    99061845.840 8
  23062850.426   121196091.68048  23062848.974    94438506.66248
  21773962.834   114422943.51548  21773959.071    89160723.15849
  21750444.347   114299361.43848  21750443.710    89064433.43349
  23689700.514   124490221.31648  23689699.267    97005358.88749
  22694975.715   119262909.34047  22694975.491    92932130.21248
 06  4 25 13 24 30.0000000  0 11G 1G 2G 4G 5G13G17G20G23G24G25G30
  25060660.171   131694654.00146  25060660.687   102619213.84748
  21459112.319   112768413.08248  21459108.720    87871462.38549
  20441588.184   107421265.37748  20441586.402    83704877.80849
  23227785.756   122062852.25247  23227784.689    95113894.68548
  22684623.471   119208506.24248  22684621.672    92889734.46348
  24214170.683   127246330.969 7  24214171.135    99152974.075 9
  23081650.701   121294887.63648  23081649.182    94515490.49748
  21769132.774   114397561.38148  21769128.972    89140944.86449
  21764032.517   114370767.72148  21764031.863    89120074.68349
  23690534.608   124494604.69847  23690533.350    97008774.59848
  22694594.359   119260905.39548  22694594.124    92930568.73548
 06  4 25 13 25  0.0000000  0 11G 1G 2G 4G 5G13G17G20G23G24G25G30
  25079890.822   131795711.56547  25079891.336   102697959.98248
  21444510.548   112691680.16048  21444506.926    87811670.50949
  20442062.912   107423760.09349  20442061.209    83706821.74849
  23239636.259   122125127.03647  23239635.225    95162420.43348
  22667239.112   119117150.84948  22667237.381    92818548.44748
  24236377.121   127363025.965 7  24236377.476    99243905.200 8
  23100431.546   121393581.45848  23100429.987    94592394.75348
  21764349.082   114372422.90848  21764345.232    89121356.43949
  21777617.170   114442155.39948  21777616.559    89175701.42649
  23691401.613   124499161.18547  23691400.348    97012325.21648
  22694264.379   119259171.68548  22694264.134    92929217.85648
 06  4 25 13 25 30.0000000  0 11G 1G 2G 4G 5G13G17G20G23G24G25G30
  25099164.349   131896994.32347  25099164.808   102776881.59848
  21429989.192   112615369.79548  21429985.582    87752207.90849
  20442642.348   107426805.07749  20442640.696    83709194.46449
  23251581.306   122187898.37247  23251580.337    95211333.04648
  22649932.024   119026201.68048  22649930.336    92747678.99149
  24258607.150   127479844.990 7  24258607.436    99334932.921 8
  23119264.695   121492550.07448  23119263.119    94669513.09248
  21759684.191   114347908.76948  21759680.295    89102254.51949
  21791270.254   114513902.71648  21791269.699    89231608.40849
  23692373.778   124504270.38347  23692372.540    97016306.49248
  22694058.012   119258087.62448  22694057.713    92928373.22448
 06  4 25 13 26  0.0000000  0 11G 1G 2G 4G 5G13G17G20G23G24G25G30
  25118581.353   131999031.05747  25118581.782   102856390.70448
  21415649.821   112540015.83148  21415646.234    87693490.55249
  20443427.665   107430931.88449  20443426.038    83712410.15249
  23263721.516   122251695.41747  23263720.605    95261044.94248
  22632803.927   118936193.07748  22632802.245    92677542.44548
  24280961.412   127597316.898 7  24280961.615    99426469.425 8
  23138250.864   121592322.94047  23138249.236    94747258.16048
  21755239.417   114324551.32648  21755235.482    89084053.90849
  21805092.581   114586539.43949  21805092.056    89288208.43149
  23693552.226   124510463.88847  23693550.967    97021132.76448
  22694076.527   119258184.82848  22694076.142    92928448.96748
 06  4 25 13 26 30.0000000  0 11G 1G 2G 4G 5G13G17G20G23G24G25G30
  25137946.266   132100793.98447  25137946.656   102935686.43648
  21401297.721   112464595.03649  21401294.159    87634721.11049
  20444223.734   107435115.16449  20444222.111    83715669.84349
  23275861.364   122315490.77947  23275860.452    95310755.61648
  22615660.355   118846103.18648  22615658.651    92607342.57748
  24303244.370   127714414.165 7  24303244.571    99517713.964 8
  23157194.520   121691872.39947  23157192.824    94824829.14548
  21750819.840   114301326.41948  21750815.859    89065956.60449
  21818888.746   114659038.71548  21818888.208    89344701.36949
  23694741.890   124516715.61547  23694740.637    97026004.20148
  22694124.703   119258437.83447  22694124.224    92928646.10748
 06  4 25 13 27  0.0000000  0 11G 1G 2G 4G 5G13G17G20G23G24G25G30
  25157441.266   132203240.52747  25157441.602   103015514.85848
  21387116.013   112390069.78048  21387112.430    87576649.51949
  20445213.234   107440314.95649  20445211.619    83719721.62149
  23288183.156   122380242.07747  23288182.250    95361211.13448
  22598684.524   118756894.68548  22598682.800    92537829.49149
  24325638.294   127832094.845 7  24325638.429    99609413.164 8
  23176277.937   121792156.18448  23176276.160    94902972.30848
  21746608.347   114279194.87248  21746604.322    89048711.25049
  21832841.224   114732359.38748  21832840.678    89401834.34049
  23696125.503   124523986.04647  23696124.258    97031669.33848
  22694385.267   119259807.26748  22694384.698    92929713.29848
 06  4 25 13 27 30.0000000  0 11G 1G 2G 4G 5G13G17G20G23G24G25G30
  25176923.207   132305618.31647  25176923.501   103095289.66548
  21372962.482   112315692.38049  21372958.852    87518693.10849
  20446253.477   107445781.43849  20446251.857    83723981.22249
  23300543.782   122445197.32247  23300542.899    95411825.54948
  22581734.245   118667820.46048  22581732.484    92468421.03149
  24348000.161   127949606.933 8  24348000.219    99700980.956 8
  23195357.993   121892422.49147  23195356.173    94981101.86848
  21742462.469   114257408.01248  21742458.402    89031734.46549
  21846807.083   114805750.40748  21846806.527    89459022.12549
  23697560.256   124531525.10147  23697559.031    97037543.77348
  22694715.551   119261542.91848  22694714.956    92931065.77548
 06  4 25 13 28  0.0000000  0 11G 1G 2G 4G 5G13G17G20G23G24G25G30
  25196453.393   132408249.79648  25196453.642   103175262.20148
  21358899.283   112241789.67949  21358895.616    87461106.59949
  20447406.250   107451839.30049  20447404.667    83728701.62749
  23313004.540   122510678.89547  23313003.692    95462850.10248
  22564871.940   118579208.51348  22564870.142    92399372.78048
  24370391.250   128067272.654 7  24370391.240    99792668.476 8
  23214496.079   121992993.62547  23214494.257    95059468.93448
  21738444.117   114236291.33548  21738440.038    89015279.90649
  21860847.782   114879534.74848  21860847.182    89516516.41449
  23699107.807   124539658.44047  23699106.524    97043881.68648
  22695177.295   119263969.30448  22695176.716    92932956.44848
 06  4 25 13 28 30.0000000  0 12G 1G 2G 4G 5G 6G13G17G20G23G24G25G30
  25215916.225   132510527.26046  25215916.425   103254958.88847
  21344811.771   112167759.17549  21344808.101    87403420.48649
  20448556.457   107457883.58749  20448554.893    83733411.45749
  23325449.912   122576079.41947  23325449.078    95513811.47048
  25656580.375   134826243.55944
  22547983.008   118490456.73148  22547981.180    92330215.58248
  24392695.986   128184484.613 7  24392695.918    99884002.434 8
  23233576.597   122093262.29747  23233574.794    95137600.32348
  21734438.321   114215240.67148  21734434.245    88998876.78849
  21874847.938   114953105.88048  21874847.266    89573844.54349
  23700653.094   124547779.98147  23700651.760    97050210.45148
  22695655.337   119266481.68747  22695654.762    92934914.21748
 06  4 25 13 29  0.0000000  0 12G 1G 2G 4G 5G 6G13G17G20G23G24G25G30
  25235547.284   132613688.86147  25235547.461   103335344.51448
  21330936.424   112094843.76749  21330932.750    87346603.30849
  20449940.148   107465154.83849  20449938.611    83739077.36249
  23338115.544   122642637.26848  23338114.720    95565674.62648
  25636044.414   134718326.57744
  22531304.103   118402808.71648  22531302.251    92261918.47048
  24415150.115   128302481.418 7  24415150.034    99975947.911 8
  23252834.548   122194466.29556
  21730681.394   114195497.89047  21730677.329    88983492.81449
  21889043.319   115027702.98349  21889042.578    89631972.13149
  23702432.335   124557129.82948  23702431.051    97057496.03848
  22696385.886   119270320.52648  22696385.327    92937905.47548
 06  4 25 13 29 30.0000000  0 10G 1G 2G 4G 5G13G17G20G23G24G30
  25255202.353   132716976.50945  25255202.546   103415828.30046
  21317129.808   112022289.60348  21317126.116    87290067.63748
  20451413.492   107472897.22349  20451411.981    83745110.37749
  23350857.203   122709594.88444  23350856.400    95617849.33246
  22514691.996   118315511.56648  22514690.157    92193894.72348
  24437609.217   128420505.234 7
  23272128.206   122295849.87047  23272127.253    95295469.66948
  21727029.665   114176307.76548  21727025.638    88968539.43949
  21903289.902   115102569.18948  21903289.100    89690309.41149
  22697225.327   119274729.85145  22697224.989    92941341.28345
 06  4 25 13 30  0.0000000  0 12G 1G 2G 4G 5G 6G13G17G20G23G24G25G30
  25274913.401   132820558.66847  25274913.749   103496545.66248
  21303424.997   111950270.24349  21303421.309    87233948.64949
  20453008.986   107481281.62949  20453007.486    83751643.70449
  23363706.442   122777120.06247  23363706.393    95670472.40448
  25595011.941   134502701.07045
  22498179.733   118228739.19348  22498177.903    92126279.92649
  24460105.973   128538724.424 7  24460105.505   100160044.204 8
  23291485.896   122397579.34248  23291485.400    95374739.35748
  21723515.780   114157842.30148  21723511.771    88954150.80149
  21917619.842   115177873.59648  21917619.002    89748988.18349
  23706293.557   124577420.09547  23706292.298    97073305.98158
  22698205.434   119279880.91148  22698204.908    92945354.10448
 06  4 25 13 30 30.0000000  0 12G 1G 2G 4G 5G 6G13G17G20G23G24G25G30
  25294655.675   132924304.02147  25294655.618   103577386.15948
  21289797.853   111878659.11949  21289794.161    87178147.78849
  20454702.210   107490179.51749  20454700.741    83758577.11549
  23376639.540   122845082.57546  23376639.206    95723430.17748
  25574523.658   134395036.57245  25574523.927   104723398.97346
  22481743.466   118142366.12148  22481741.646    92058976.26549
  24482614.637   128657008.374 6  24482614.314   100252213.455 8
  23310885.684   122499525.10547  23310885.141    95454177.58448
  21720115.512   114139973.64648  21720111.526    88940227.15149
  21932008.473   115253486.36048  21932007.607    89807907.20849
  23708382.938   124588401.39647  23708381.902    97081862.87048
  22699302.311   119285644.72448  22699301.788    92949845.23948
 06  4 25 13 31  0.0000000  0 12G 1G 2G 4G 5G 6G13G17G20G23G24G25G30
  25314433.147   133028235.02347  25314433.142   103658371.31348
  21276253.592   111807483.38749  21276249.891    87122686.17049
  20456497.825   107499615.47849  20456496.369    83765929.81849
  23389659.966   122913504.56147  23389659.460    95776745.93948
  25554051.781   134287457.00445  25554052.287   104639570.71947
  22465388.407   118056419.73848  22465386.590    91992005.07549
  24505139.971   128775379.366 7  24505139.763   100344450.526 8
  23330330.770   122601709.37847  23330330.267    95533801.62648
  21716833.674   114122727.43848  21716829.697    88926788.54649
  21946460.187   115329430.66148  21946459.330    89867084.57049
  23710575.255   124599921.81947  23710574.133    97090839.69048
  22700520.467   119292046.39648  22700519.840    92954833.61648
 06  4 25 13 31 30.0000000  0 12G 1G 2G 4G 5G 6G13G17G20G23G24G25G30
  25334223.682   133132234.52047  25334223.722   103739409.80648
  21262770.844   111736630.79149  21262767.094    87067476.33949
  20458374.011   107509474.74649  20458372.608    83773612.35749
  23402745.524   122982269.38247  23402744.829    95830328.93248
  25533574.838   134179849.94645  25533575.510   104555720.95946
  22449093.351   117970788.60848  22449091.541    91925279.54548
  24527659.667   128893720.762 7  24527659.531   100436664.525 7
  23349799.027   122704015.69746  23349798.502    95613520.79348
  21713648.608   114105989.74648  21713644.623    88913746.20049
  21960952.899   115405590.47148  21960952.126    89926429.86449
  23712848.316   124611867.33847  23712847.117    97100147.92948
  22701838.181   119298970.93548  22701837.518    92960229.31848
 06  4 25 13 32  0.0000000  0 12G 1G 2G 4G 5G 6G13G17G20G23G24G25G30
  25354123.790   133236810.16847  25354123.875   103820897.26148
  21249447.078   111666613.42748  21249443.219    87012917.36249
  20460427.930   107520267.41149  20460426.571    83782022.21349
  23415992.976   123051884.34047  23415992.086    95884574.29648
  25513190.267   134072727.83246  25513190.960   104472249.13447
  22432955.944   117885985.52748  22432954.184    91859199.23449
  24550270.351   129012540.551 6  24550270.278   100529251.285 7
  23369387.129   122806951.71247  23369386.476    95693730.64648
  21710657.582   114090271.76548  21710653.671    88901498.40849
  21975583.387   115482474.42248  21975582.955    89986339.41249
  23715299.309   124624746.86247  23715297.961    97110183.78748
  22703352.354   119306928.28348  22703351.592    92966429.94648
 06  4 25 13 32 30.0000000  0 12G 1G 2G 4G 5G 6G13G17G20G23G24G25G30
  25373996.037   133341239.40547  25373996.154   103902270.63948
  21236145.467   111596713.11348  21236141.619    86958449.56749
  20462522.331   107531273.09648  20462520.957    83790598.05949
  23429264.710   123121627.21047  23429263.696    95938919.38248
  25492761.412   133965372.94545  25492762.164   104388595.87847
  22416839.671   117801293.37849  22416837.916    91793205.37249
  24572834.580   129131116.032 7  24572834.502   100621647.696 8
  23388957.591   122909795.05646  23388956.830    95773868.25548
  21707723.640   114074853.92048  21707719.800    88889484.51149
  21990214.394   115559360.97848  21990214.215    90046251.00749
  23717790.966   124637841.01348  23717789.391    97120387.18348
  22704926.054   119315198.06947  22704925.244    92972873.94448
 06  4 25 13 33  0.0000000  0 12G 1G 2G 4G 5G 6G13G17G20G23G24G25G30
  25393939.583   133446043.53746  25393939.759   103983936.18148
  21222966.268   111527456.11248  21222962.398    86904483.07749
  20464756.928   107543015.51149  20464755.522    83799747.98249
  23442659.888   123192019.21847  23442658.879    95993770.26148
  25472388.354   133858311.49046  25472389.128   104305171.32647
  22400844.759   117717238.73448  22400842.922    91727708.26449
  24595451.581   129249968.799 6  24595451.452   100714260.200 8
  23408609.727   123013067.51146  23408608.827    95854340.24048
  21704946.579   114060260.49348  21704942.824    88878113.00549
  22004945.393   115636772.71148  22004945.337    90106571.80449
  23720423.068   124651672.11348  23720421.376    97131164.53548
  22706658.766   119324303.28447  22706657.964    92979968.86448
 06  4 25 13 33 30.0000000  0 12G 1G 2G 4G 5G 6G13G17G20G23G24G25G30
  25413909.848   133550987.95847  25413910.094   104065710.99148
  21209865.782   111458612.62648  21209861.896    86850838.80749
  20467087.452   107555262.27949  20467086.053    83809290.92649
  23456133.971   123262826.06446  23456133.001    96048944.41648
  25452027.360   133751313.99446  25452028.173   104221796.74647
  22384927.434   117633592.34748  22384925.579    91662529.27948
  24618076.787   129368864.717 6  24618076.690   100806906.299 7
  23428298.886   123116534.64647  23428297.857    95934963.96448
  21702282.384   114046260.05048  21702278.621    88867203.57249
  22019731.864   115714475.85848  22019731.837    90167119.70749
  23723151.254   124666008.64047  23723149.472    97142335.88248
  22708506.311   119334012.07247  22708505.490    92987534.14349
 06  4 25 13 34  0.0000000  0 12G 1G 2G 4G 5G 6G13G17G20G23G24G25G30
  25433951.299   133656306.71447  25433951.620   104147777.56448
  21196889.491   111390421.47449  21196885.556    86797702.86249
  20469558.913   107568249.77149  20469557.534    83819411.04249
  23469731.529   123334281.77646  23469730.570    96104624.18848
  25431723.951   133644619.10846  25431724.748   104138657.98847
  22369133.383   117550593.70348  22369131.502    91597855.01849
  24640754.825   129488038.201 6  24640754.768   100899768.677 8
  23448069.661   123220430.73647  23448068.583    96015921.90948
  21699776.176   114033090.02748  21699772.425    88856941.21349
  22034618.525   115792705.25948  22034618.437    90228077.65649
  23726020.499   124681086.43847  23726018.683    97154084.82348
  22710513.704   119344560.40148  22710512.895    92995753.47348
 06  4 25 13 34 30.0000000  0 12G 1G 2G 4G 5G 6G13G17G20G23G24G25G30
  25453993.490   133761629.07447  25453993.864   104229846.88848
  21183967.643   111322516.32748  21183963.637    86744789.76349
  20472101.215   107581609.59549  20472099.902    83829821.26949
  23483382.006   123406015.61546  23483381.033    96160520.70648
  25411408.416   133537861.00046  25411409.211   104055470.04447
  22353392.981   117467877.45748  22353391.185    91533400.83249
  24663415.179   129607118.729 6  24663415.180   100992558.617 8
  23467851.624   123324385.37246  23467850.522    96096925.45248
  21697358.059   114020382.73748  21697354.270    88847039.43049
  22049534.960   115871091.24948  22049534.738    90289157.63249
  23728960.650   124696536.97147  23728958.813    97166124.22848
  22712610.673   119355579.98548  22712609.848    93004340.14448
 06  4 25 13 35  0.0000000  0 12G 1G 2G 4G 5G 6G13G17G20G23G24G25G30
  25474055.447   133867055.30747  25474055.867   104311997.15748
  21171120.135   111255002.12549  21171116.056    86692181.31649
  20474733.859   107595444.11049  20474732.539    83840601.41549
  23497104.491   123478127.85446  23497103.533    96216712.08148
  25391100.838   133431144.55146  25391101.631   103972314.52147
  22337726.287   117385548.89348  22337724.738    91469248.72749
  24686076.924   129726206.597 6  24686076.974   101085354.282 7
  23487663.833   123428499.04846  23487662.741    96178052.96148
  21695047.648   114008241.53948  21695043.893    88837578.75849
  22064500.426   115949735.05548  22064500.155    90350438.48249
  23731991.191   124712462.32248  23731989.382    97178533.55748
  22714816.734   119367172.97448  22714815.879    93013373.66348
 06  4 25 13 35 30.0000000  0 12G 1G 2G 4G 5G 6G13G17G20G23G24G25G30
  25494216.263   133973001.14346  25494216.744   104394552.32747
  21158427.008   111188299.04449  21158422.865    86640204.85549
  20477536.357   107610171.27249  20477535.009    83852077.12449
  23510978.114   123551034.11146  23510977.228    96273522.10548
  25370881.293   133324890.46946  25370882.039   103889519.26747
  22322213.372   117304028.97548  22322212.179    91405726.73349
  24708819.259   129845717.750 6  24708819.355   101178479.750 7
  23507585.476   123533187.73947  23507584.417    96259628.54948
  21692924.672   113997085.07048  21692920.998    88828885.39049
  22079594.161   116029053.26348  22079593.923    90412244.87949
  23735191.573   124729280.47447  23735189.842    97191638.59048
  22717211.458   119379757.05348  22717210.615    93023179.36149
 06  4 25 13 36  0.0000000  0 12G 1G 2G 4G 5G 6G13G17G20G23G24G25G30
  25514323.328   134078664.63846  25514323.815   104476887.54747
  21145736.433   111121609.74648  21145732.296    86588239.19049
  20480356.558   107624991.37349  20480355.102    83863625.24749
  23524850.188   123623932.53746  23524849.405    96330326.06947
  25350598.025   133218301.61446  25350598.752   103806463.16047
  22306702.694   117222521.06148  22306701.847    91342214.11048
  24731489.459   129964850.016 6  24731489.622   101271309.986 7
  23527464.032   123637649.91247  23527463.038    96341027.58748
  21690836.960   113986114.15948  21690833.407    88820336.64549
  22094663.890   116108245.03148  22094663.671    90473952.72749
  23738409.583   124746191.17247  23738407.969    97204815.69048
  22719642.538   119392532.18248  22719641.682    93033133.95448
 06  4 25 13 36 30.0000000  0 12G 1G 2G 4G 5G 6G13G17G20G23G24G25G30
  25534519.139   134184794.71547  25534519.638   104559586.38247
  21133191.856   111055687.67248  21133187.852    86536871.34949
  20483337.321   107640655.35749  20483335.722    83875830.94849
  23538863.257   123697571.95946  23538862.601    96387707.42048
  25330394.439   133112131.61546  25330395.156   103723733.43447
  22291337.864   117141779.33648  22291337.329    91279298.51048
  24754230.207   130084353.108 6  24754230.379   101364429.241 7
  23547442.083   123742634.96647  23547441.140    96422834.07448
  21688927.729   113976080.93148  21688924.285    88812518.54749
  22109852.255   116188060.08849  22109851.900    90536146.26549
  23741788.094   124763945.70747  23741786.568    97218650.42448
  22722252.880   119406249.80948  22722251.999    93043823.08148
 06  4 25 13 37  0.0000000  0 12G 1G 2G 4G 5G 6G13G17G20G23G24G25G30
  25554772.055   134291224.88546  25554772.594   104642519.03647
  21120762.474   110990371.11348  21120758.646    86485975.32949
  20486447.436   107656999.12149  20486445.701    83888566.35649
  23552985.713   123771785.90846  23552985.182    96445536.40648
  25310239.843   133006219.18646  25310240.534   103641204.44347
  22276088.321   117061642.66848  22276087.855    91216854.37049
  24777009.918   130204060.864 6  24777010.097   101457707.940 8
  23567487.947   123847976.34547  23567487.052    96504918.20148
  21687165.906   113966822.08048  21687162.545    88805303.82849
  22125127.637   116268332.94948  22125127.256    90598696.51649
  23745295.922   124782379.62847  23745294.482    97233014.52648
  22725011.248   119420744.85148  22725010.372    93055117.87449
 06  4 25 13 37 30.0000000  0 12G 1G 2G 4G 5G 6G13G17G20G23G24G25G30
  25574993.621   134397490.14947  25574994.178   104725323.16647
  21108360.820   110925199.85649  21108356.992    86435192.53749
  20489598.871   107673559.93049  20489597.039    83901470.87149
  23567129.040   123846109.49546  23567128.581    96503450.85248
  25290046.725   132900104.10546  25290047.394   103558517.50348
  22260866.428   116981651.04848  22260865.784    91154523.25249
  24799740.199   130323508.637 6  24799740.378   101550784.018 8
  23587513.138   123953209.21848  23587512.270    96586917.80948
  21685463.443   113957875.38848  21685460.137    88798332.38049
  22140401.784   116348599.56948  22140401.512    90661241.91449
  23748844.934   124801029.56047  23748843.584    97247546.85248
  22727829.460   119435554.40548  22727828.593    93066657.73648
 06  4 25 13 38  0.0000000  0 12G 1G 2G 4G 5G 6G13G17G20G23G24G25G30
  25595302.301   134504213.20446  25595302.876   104808484.01747
  21096106.111   110860800.86049  21096102.141    86385011.49949
  20492910.442   107690962.38449  20492908.599    83915031.21749
  23581411.663   123921165.27946  23581411.261    96561935.88548
  25269934.439   132794413.57646  25269935.119   103476161.31547
  22245791.789   116902432.78348  22245790.740    91092794.74848
  24822539.435   130443318.992 6  24822539.621   101644142.668 8
  23607636.260   124058956.68647  23607635.430    96669318.38048
  21683939.404   113949866.35548  21683936.055    88792091.58149
  22155793.539   116429483.66048  22155793.413    90724268.45749
  23752553.905   124820520.49147  23752552.600    97262734.62048
  22730826.400   119451303.18048  22730825.549    93078929.46048
 06  4 25 13 38 30.0000000  0 12G 1G 2G 4G 5G 6G13G17G20G23G24G25G30
  25615583.608   134610792.59545  25615584.161   104891532.98847
  21083884.819   110796577.19549  21083880.680    86334967.06849
  20496268.132   107708606.94449  20496266.291    83928780.21749
  23595719.164   123996351.55246  23595718.815    96620522.55348
  25249789.508   132688551.46846  25249790.191   103393671.42347
  22230750.864   116823391.37649  22230749.321    91031204.05849
  24845293.267   130562890.659 6  24845293.472   101737315.291 8
  23627742.924   124164617.70347  23627742.138    96751651.58148
  21682479.804   113942196.23048  21682476.429    88786114.87349
  22171188.527   116510384.52848  22171188.445    90787308.06949
  23756308.835   124840252.53347  23756307.567    97278110.17748
  22733887.964   119467391.46448  22733887.146    93091465.71949
 06  4 25 13 39  0.0000000  0 12G 1G 2G 4G 5G 6G13G17G20G23G24G25G30
  25635959.556   134717869.30246  25635960.094   104974969.46647
  21071819.734   110733174.43149  21071815.498    86285562.32049
  20499794.216   107727136.76649  20499792.506    83943219.04049
  23610173.407   124072309.08147  23610173.086    96679710.22048
  25229734.711   132583163.32946  25229735.383   103311550.93047
  22215866.534   116745172.76048  22215864.596    90970254.50249
  24868123.693   130682864.949 6  24868123.903   101830801.682 8
  23647955.061   124270833.04346  23647954.310    96834416.73348
  21681207.225   113935508.56448  21681203.811    88780903.68749
  22186708.795   116591943.71348  22186708.629    90850860.66349
  23760231.971   124860868.49747  23760230.751    97294174.49248
  22737136.434   119484462.19448  22737135.653    93104767.59049
 06  4 25 13 39 30.0000000  0 12G 1G 2G 4G 5G 6G13G17G20G23G24G25G30
  25656348.649   134825015.11246  25656349.180   105058459.79947
  21059830.199   110670168.74948  21059825.992    86236466.98449
  20503407.725   107746125.78849  20503406.093    83958015.67049
  23624692.961   124148609.78846  23624692.660    96739165.28948
  25209689.641   132477826.02846  25209690.297   103229469.99748
  22201058.219   116667353.91449  22201056.036    90909616.45549
  24890949.297   130802813.778 6  24890949.520   101924268.206 8
  23668191.343   124377175.20247  23668190.607    96917280.70648
  21680040.775   113929378.57548  21680037.351    88776127.07349
  22202273.053   116673734.37948  22202272.779    90914593.63049
  23764242.183   124881942.49147  23764240.991    97310595.81748
  22740490.768   119502089.06048  22740490.031    93118502.77248
 06  4 25 13 40  0.0000000  0 12G 1G 2G 4G 5G 6G13G17G20G23G24G25G30
  25676758.028   134932267.59045  25676758.498   105142033.26346
  21047924.150   110607601.88848  21047920.026    86187713.60649
  20507116.020   107765613.13748  20507114.488    83973200.61649
  23639284.827   124225290.81246  23639284.552    96798916.71048
  25189662.271   132372581.76947  25189662.910   103147461.57148
  22186334.089   116589977.40148  22186331.730    90849323.07349
  24913777.321   130922774.886 6  24913777.575   102017744.306 8
  23688458.961   124483681.75247  23688458.118    97000272.77648
  21678988.027   113923846.09949  21678984.606    88771816.03649
  22217888.669   116755794.80648  22217888.305    90978536.78649
  23768346.939   124903513.12947  23768345.815    97327404.07048
  22743958.347   119520310.83947  22743957.737    93132701.51348
 06  4 25 13 40 30.0000000  0 12G 1G 2G 4G 5G 6G13G17G20G23G24G25G30
  25697167.479   135039520.48345  25697168.075   105225607.00846
  21036082.219   110545372.40149  21036078.260    86139223.08549
  20510899.412   107785495.03049  20510897.962    83988692.99549
  23653928.883   124302245.90646  23653928.535    96858881.71648
  25169633.380   132267328.98647  25169633.948   103065446.47448
  22171674.779   116512942.04948  22171672.396    90789295.55149
  24936587.444   131042642.361 6  24936587.771   102111147.462 8
  23708737.789   124590246.62047  23708736.631    97083310.27148
  21678029.221   113918807.56948  21678025.811    88767889.90249
  22233535.516   116838019.60248  22233535.167    91042608.04049
  23772526.293   124925476.06646  23772525.615    97344517.84348
  22747519.408   119539023.71848  22747518.933    93147282.98248
 06  4 25 13 41  0.0000000  0 12G 1G 2G 4G 5G 6G13G17G20G23G24G25G30
  25717646.226   135147136.80745  25717646.833   105309463.88046
  21024374.433   110483848.00848  21024370.582    86091282.03949
  20514827.325   107806136.53649  20514825.964    84004777.28749
  23668694.313   124379837.85846  23668693.929    96919342.94448
  25149672.931   132162435.77447  25149673.481   102983711.51248
  22157150.381   116436616.07048  22157148.068    90729820.79249
  24959448.852   131162779.461 6  24959449.203   102204760.708 8
  23729096.788   124697233.35147  23729095.462    97166676.53248
  21677234.028   113914628.98849  21677230.627    88764633.88149
  22249282.884   116920772.51648  22249282.506    91107090.82049
  23776849.832   124948197.04046  23776849.195    97362222.55348
  22751243.069   119558592.00148  22751242.583    93162531.04848
 06  4 25 13 41 30.0000000  0 12G 1G 2G 4G 5G 6G13G17G20G23G24G25G30
  25738176.117   135255021.61144  25738176.563   105393530.00746
  21012783.625   110422938.02349  21012779.851    86043819.71549
  20518882.027   107827444.20349  20518880.766    84021380.64849
  23683562.893   124457971.46546  23683562.442    96980226.20648
  25129763.689   132057812.15747  25129764.281   102902186.70048
  22142743.840   116360909.59748  22142741.712    90670828.73649
  24982343.502   131283091.099 6  24982343.817   102298509.949 8
  23749517.936   124804546.86547  23749516.470    97250297.39748
  21676584.930   113911217.92848  21676581.542    88761975.89349
  22265112.924   117003959.56448  22265112.460    91171911.86649
  23781299.813   124971581.84847  23781298.984    97380444.44548
  22755111.915   119578922.11347  22755111.191    93178372.53948
 06  4 25 13 42  0.0000000  0 12G 1G 2G 4G 5G 6G13G17G20G23G24G25G30
  25758710.157   135362930.28244
  21001264.024   110362402.20749  21001260.262    85996648.95249
  20523017.420   107849175.77849  20523016.189    84038314.36049
  23698487.830   124536401.94447  23698487.221    97041340.80848
  25109860.099   131953218.21047  25109860.699   102820684.95148
  22128409.540   116285582.99848  22128407.653    90612132.72449
  25005224.828   131403332.998 6  25005225.117   102392204.859 8
  23769954.799   124911943.18047  23769953.237    97333982.79048
  21676035.797   113908332.27848  21676032.476    88759727.33849
  22280979.186   117087337.02348  22280978.592    91236881.30649
  23785829.979   124995388.00047  23785828.870    97398994.72948
  22759079.557   119599771.55248  22759078.470    93194618.75948
 06  4 25 13 42 30.0000000  0 12G 1G 2G 4G 5G 6G13G17G20G23G24G25G30
  25779292.208   135471089.43844
  20989859.494   110302471.02649  20989855.737    85949949.36049
  20527276.904   107871559.35849  20527275.657    84055756.10449
  23713512.381   124615355.55447  23713511.310    97102863.09548
  25090006.113   131848885.31047  25090006.743   102739386.69648
  22114191.549   116210867.66648  22114189.943    90553913.01349
  25028136.051   131523731.973 6  25028136.297   102486022.188 8
  23790450.469   125019648.68447  23790448.753    97417909.12548
  21675630.254   113906201.25648  21675627.068    88758066.79449
  22296924.892   117171132.08448  22296924.264    91302176.13949
  23790483.619   125019843.57747  23790482.317    97418051.12748
  22763189.316   119621368.45248  22763187.970    93211447.53848
 06  4 25 13 43  0.0000000  0 12G 1G 2G 4G 5G 6G13G17G20G23G24G25G30
  25799848.821   135579115.32644
  20978497.878   110242765.17549  20978494.175    85903425.31949
  20531587.748   107894212.71549  20531586.414    84073408.06349
  23728563.338   124694447.92847  23728561.878    97164493.46848
  25070129.661   131744433.91346  25070130.226   102657996.02648
  22100017.831   116136384.68548  22100016.406    90495874.34549
  25051004.149   131643904.076 6  25051004.291   102579662.644 8
  23810932.057   125127279.62647  23810930.153    97501777.34648
  21675295.691   113904443.27348  21675292.596    88756696.93549
  22312877.076   117254961.59648  22312876.560    91367497.81249
  23795188.153   125044565.91347  23795186.749    97437315.27348
  22767368.449   119643330.13248  22767366.989    93228560.54648
 06  4 25 13 43 30.0000000  0 11G 2G 4G 5G 6G13G17G20G23G24G25G30
  20967312.867   110183987.42149  20967309.232    85857624.47649
  20536083.135   107917836.22949  20536081.778    84091815.98249
  23743773.490   124774376.97247  23743771.762    97226775.74648
  25050364.564   131640567.44047  25050365.058   102577061.12348
  22086022.150   116062836.97848  22086020.780    90438564.43849
  25073961.956   131764547.759 6  25073961.974   102673670.612 8
  23831532.370   125235534.34547  23831530.525    97586131.61648
  21675165.526   113903759.06348  21675162.463    88756163.78049
  22328968.911   117339524.76248  22328968.513    91433391.16649
  23800076.693   125070254.74047  23800075.411    97457332.39948
  22771750.128   119666356.16748  22771748.821    93246502.85448
 06  4 25 13 44  0.0000000  0 11G 2G 4G 5G 6G13G17G20G23G24G25G30
  20956174.777   110125456.14549  20956171.141    85812015.69649
  20540632.986   107941745.95349  20540631.611    84110446.91349
  23759012.337   124854457.06247  23759010.430    97289175.79348
  25030581.064   131536605.00746  25030581.591   102496051.44348
  22072074.904   115989544.11348  22072073.514    90381453.15549
  25096878.962   131884977.254 6  25096878.990   102767511.681 8
  23852120.969   125343727.47548  23852119.229    97670437.91548
  21675109.643   113903465.39949  21675106.671    88755934.94849
  22345069.952   117424136.48848  22345069.646    91499322.36749
  23805018.927   125096226.76147  23805017.756    97477570.41348
  22776204.252   119689762.62148  22776203.027    93264741.61648
 06  4 25 13 44 30.0000000  0 11G 2G 4G 5G 6G13G17G20G23G24G25G30
  20945101.485   110067265.72849  20945097.885    85766672.53349
  20545254.655   107966033.26748  20545253.281    84129372.09849
  23774296.834   124934777.19947  23774294.863    97351762.89748
  25010797.351   131432641.02246  25010797.817   102415040.57348
  22058194.216   115916600.54148  22058192.626    90324614.02149
  25119772.372   132005282.621 6  25119772.465   102861256.006 8
  23872714.926   125451948.72847  23872713.230    97754766.09448
  21675145.574   113903654.34148  21675142.685    88756082.16849
  22361197.456   117508887.15648  22361197.243    91565361.83549
  23810032.345   125122572.54247  23810031.291    97498099.56648
  22780748.159   119713640.32548  22780746.985    93283347.45848
 06  4 25 13 45  0.0000000  0 11G 2G 4G 5G 6G13G17G20G23G24G25G30
  20934199.998   110009977.93149  20934196.367    85722032.67349
  20550054.774   107991258.06449  20550053.428    84149027.77149
  23789733.209   125015895.20747  23789731.275    97414971.64248
  24991120.603   131329238.16646  24991120.914   102334466.82048
  22044487.161   115844569.13749  22044485.350    90268485.67049
  25142748.376   132126022.183 7  25142748.479   102955338.692 8
  23893420.392   125560756.78347  23893418.808    97839551.56848
  21675380.010   113904886.40248  21675377.178    88757042.19149
  22377457.794   117594335.58948  22377457.565    91631945.01049
  23815223.636   125149851.77547  23815222.548    97519356.02048
  22785488.219   119738549.26147  22785487.055    93302757.00048
 06  4 25 13 45 30.0000000  0 12G 2G 4G 5G 6G10G13G17G20G23G24G25G30
  20923343.909   109952928.83149  20923340.217    85677578.83449
  20554906.416   108016753.58449  20554905.123    84168894.39949
  23805193.966   125097142.62846  23805192.411    97478281.37848
  24971424.359   131225733.08046  24971424.518   102253813.43148
  25373312.954   133337653.49546
  22030827.465   115772786.32649  22030825.368    90212551.01549
  25165679.824   132246527.470 7  25165679.950   103049238.829 8
  23914110.357   125669483.28447  23914108.801    97924273.47448
  21675686.295   113906495.75348  21675683.389    88758296.23049
  22393723.814   117679814.01048  22393723.622    91698551.54449
  23820465.507   125177397.93247  23820464.342    97540820.69548
  22790297.407   119763822.18347  22790296.192    93322450.26748
 06  4 25 13 46  0.0000000  0 12G 2G 4G 5G 6G10G13G17G20G23G24G25G30
  20912612.126   109896532.80749  20912608.391    85633633.89249
  20559887.956   108042931.71948  20559886.696    84189292.95449
  23820757.199   125178928.71847  23820756.123    97542010.77048
  24951787.486   131122540.55346  24951787.632   102173403.60448
  25350005.525   133215169.97746  25350005.052   103804033.02647
  22017293.993   115701667.20149  22017291.752    90157133.52749
  25188644.654   132367208.529 7  25188644.892   103143275.927 8
  23934862.883   125778538.22847  23934861.279    98009251.31148
  21676142.720   113908894.59848  21676139.857    88760165.45249
  22410073.748   117765733.24148  22410073.549    91765501.57449
  23825836.385   125205621.86647  23825835.224    97562813.34148
  22795254.149   119789870.16148  22795252.845    93342747.43548
 06  4 25 13 46 30.0000000  0 12G 2G 4G 5G 6G10G13G17G20G23G24G25G30
  20901966.631   109840590.38248  20901962.967    85590042.38149
  20564961.026   108069590.56948  20564959.749    84210066.06949
  23836384.218   125261049.66647  23836383.469    97606001.10948
  24932172.212   131019461.75346  24932172.323   102093082.47248
  25326692.416   133092658.38846  25326691.978   103708569.47848
  22003848.922   115631012.68748  22003846.722    90102078.06549
  25211604.360   132487862.191 7  25211604.576   103237291.681 8
  23955639.184   125887718.21047  23955637.581    98094326.57448
  21676711.159   113911881.51548  21676708.263    88762492.91949
  22426468.957   117851890.45948  22426468.774    91832637.03149
  23831297.888   125234321.57047  23831296.729    97585176.63548
  22800320.022   119816490.94047  22800318.835    93363490.81748
 06  4 25 13 47  0.0000000  0 12G 2G 4G 5G 6G10G13G17G20G23G24G25G30
  20891429.186   109785215.70549  20891425.574    85546893.29849
  20570146.728   108096841.52749  20570145.485    84231300.57349
  23852095.751   125343614.73446  23852095.190    97670337.48148
  24912600.372   130916611.34846  24912600.468   102012939.31348
  25303395.686   132970232.64946  25303395.068   103613172.80947
  21990514.149   115560937.67049  21990512.141    90047474.18649
  25234579.829   132608598.537 7  25234580.025   103331371.835 8
  23976460.253   125997133.38447  23976458.771    98179585.08548
  21677412.918   113915568.78448  21677410.061    88765366.10149
  22442930.444   117938395.87548  22442930.266    91900043.84149
  23836871.039   125263608.73848  23836869.984    97607997.83748
  22805515.924   119843796.28147  22805514.855    93384767.87148
 06  4 25 13 47 30.0000000  0 12G 2G 4G 5G 6G10G13G17G20G23G24G25G30
  20880992.450   109730370.41448  20880988.955    85504156.71549
  20575437.358   108124643.81449  20575436.152    84252964.68849
  23867883.695   125426581.06746  23867883.272    97734986.44248
  24893064.913   130813951.56946  24893064.816   101932944.73848
  25280108.003   132847854.89446  25280107.340   103517813.48548
  21977282.382   115491404.13949  21977280.581    89993292.21949
  25257562.845   132729374.818 7  25257563.069   103425483.120 8
  23997318.054   126106741.61647  23997316.841    98264994.02148
  21678240.154   113919915.56248  21678237.339    88768753.19749
  22459450.245   118025208.11248  22459450.172    91967689.71749
  23842548.198   125293441.72247  23842547.259    97631244.20748
  22810834.210   119871744.09147  22810833.049    93406545.39248
 06  4 25 13 48  0.0000000  0 12G 2G 4G 5G 6G10G13G17G20G23G24G25G30
  20870620.725   109675866.60048  20870617.319    85461686.22549
  20580796.681   108152807.09548  20580795.490    84274910.09449
  23883711.425   125509756.53747  23883710.996    97799798.51548
  24873530.038   130711295.32746  24873529.912   101852952.88648
  25256793.774   132725337.13646  25256793.029   103422345.06347
  21964118.067   115422225.07249  21964116.392    89939386.47449
  25280517.064   132849999.521 7  25280517.285   103519476.301 8
  24018176.025   126216350.77847  24018175.016    98350403.73048
  21679156.843   113924732.88948  21679154.123    88772506.96149
  22475992.057   118112135.82448  22475992.019    92035425.56549
  23848292.847   125323630.52648  23848292.080    97654768.03648
  22816238.466   119900144.18047  22816237.276    93428675.42048
 06  4 25 13 48 30.0000000  0 12G 2G 4G 5G 6G10G13G17G20G23G24G25G30
  20860395.587   109622132.85449  20860392.199    85419815.78649
  20586305.737   108181757.09749  20586304.506    84297468.53449
  23899659.598   125593564.62447  23899659.212    97865103.51148
  24854077.353   130609071.37246  24854077.289   101773297.89648
  25233534.346   132603107.98446  25233533.582   103327101.57847
  21951102.775   115353829.12849  21951101.165    89886090.95349
  25303523.115   132970896.668 7  25303523.341   103613681.782 8
  24039114.997   126326385.19047  24039114.116    98436144.74847
  21680244.228   113930446.76248  21680241.413    88776959.32649
  22492636.702   118199603.71248  22492636.585    92103582.34549
  23854186.148   125354599.78148  23854185.596    97678899.81148
  22821809.745   119929421.51047  22821808.447    93451488.96748
 06  4 25 13 49  0.0000000  0 12G 2G 4G 5G 6G10G13G17G20G23G24G25G30
  20850282.187   109568986.32749  20850278.813    85378402.90849
  20591929.188   108211308.46749  20591927.913    84320495.57049
  23915692.500   125677817.87647  23915692.124    97930755.32748
  24834672.335   130507097.65745  24834672.324   101693837.90148
  25210295.125   132480984.95946  25210294.360   103231940.78447
  21938201.747   115286034.17348  21938200.206    89833263.74449
  25326545.435   133091879.682 8  25326545.770   103707954.156 8
  24060099.332   126436658.11647  24060098.421    98522071.65948
  21681467.047   113936872.40648  21681464.092    88781966.30449
  22509348.856   118287425.86248  22509348.510    92172015.16449
  23860192.799   125386164.38147  23860192.351    97703495.46948
  22827512.661   119959390.31747  22827511.453    93474841.19648
 06  4 25 13 49 30.0000000  0 12G 2G 4G 5G 6G10G13G17G20G23G24G25G30
  20840216.210   109516089.19849  20840212.901    85337184.37149
  20597602.370   108241120.89649  20597600.953    84343726.03149
  23931744.917   125762174.30047  23931744.472    97996487.63348
  24815250.720   130405037.00845  24815250.735   101614310.21047
  25187011.920   132358630.42546  25187011.159   103136599.49847
  21925350.937   115218503.02248  21925349.379    89780642.06649
  25349519.024   133212606.705 7  25349519.471   103802027.092 8
  24081063.908   126546827.83447  24081063.128    98607918.15948
  21682760.592   113943670.06348  21682757.534    88787263.17349
  22526063.288   118375260.88748  22526062.913    92240458.03849
  23866247.888   125417984.02747  23866247.441    97728290.02048
  22833282.337   119989709.92248  22833281.289    93498466.74149
 06  4 25 13 50  0.0000000  0 12G 2G 4G 5G 6G10G13G17G20G23G24G25G30
  20830280.998   109463879.24849  20830277.688    85296501.30249
  20603408.116   108271630.07949  20603406.513    84367499.42249
  23947899.434   125847066.98647  23947899.039    98062637.79148
  24795896.115   130303328.09145  24795896.156   101535056.57147
  25163767.907   132236482.59446  25163767.138   103041419.43348
  21912633.680   115151674.01248  21912632.059    89728567.54849
  25372526.529   133333511.743 7  25372527.027   103896238.719 8
  24102091.462   126657328.12447  24102090.651    98694022.22848
  21684207.854   113951275.56748  21684204.679    88793189.55149
  22542862.860   118463543.29748  22542862.561    92309249.47749
  23872434.336   125450493.50047  23872433.800    97753622.09648
  22839201.598   120020815.12648  22839200.610    93522704.43648
 06  4 25 13 50 30.0000000  0 12G 2G 4G 5G 6G10G13G17G20G23G24G25G30
  20820442.214   109412176.27649  20820438.810    85256213.27449
  20609311.564   108302652.62549  20609309.820    84391672.82349
  23964120.760   125932310.90947  23964120.383    98129061.63748
  24776574.138   130201790.91445  24776574.301   101455936.74247
  25140528.932   132114361.04746  25140528.162   102946259.80348
  21900015.952   115085367.49849  21900014.215    89676900.11849
  25395532.904   133454410.308 7  25395533.356   103990445.319 8
  24123146.938   126767975.08647  24123146.124    98780240.58847
  21685774.175   113959506.42448  21685770.784    88799603.17849
  22559712.571   118552089.00048  22559712.415    92378246.12449
  23878717.101   125483509.33947  23878716.397    97779348.71748
  22845235.396   120052522.70148  22845234.385    93547411.58148
 06  4 25 13 51  0.0000000  0 12G 2G 4G 5G 6G10G13G17G20G23G24G25G30
  20810725.189   109361112.96449  20810721.596    85216423.68949
  20615337.432   108334318.83749  20615335.641    84416347.80149
  23980433.407   126018034.10547  23980433.013    98195858.91148
  24757310.303   130100559.09145  24757310.558   101377054.84047
  25117320.271   131992399.17946  25117319.480   102851224.69348
  21887523.020   115019716.69749  21887521.114    89625743.67649
  25418562.567   133575431.473 7  25418563.069   104084747.424 8
  24144254.671   126878897.16147  24144253.954    98866673.31148
  21687484.247   113968493.16048  21687480.676    88806605.83649
  22576637.060   118641027.22948  22576637.009    92447548.63349
  23885120.963   125517161.58347  23885120.051    97805571.23548
  22851408.467   120084962.37448  22851407.391    93572689.22648
 06  4 25 13 51 30.0000000  0 12G 2G 4G 5G 6G10G13G17G20G23G24G25G30
  20801068.219   109310365.02349  20801064.390    85176879.82649
  20621423.603   108366301.97749  20621421.841    84441269.71049
  23996774.764   126103908.04847  23996774.252    98262773.70948
  24738042.939   129999309.06845  24738043.350   101298158.78047
  25094080.393   131870272.83046  25094079.614   102756061.29848
  21875093.275   114954397.94649  21875091.264    89574845.95649
  25441553.103   133696246.962 7  25441553.549   104178889.286 8
  24165352.370   126989766.50346  24165351.689    98953064.94747
  21689276.122   113977909.74648  21689272.438    88813943.42649
  22593573.949   118730030.62148  22593574.049    92516901.88449
  23891583.671   125551122.96447  23891582.642    97832034.52548
  22857658.708   120117806.89547  22857657.527    93598282.30148
 06  4 25 13 52  0.0000000  0 12G 2G 4G 5G 6G10G13G17G20G23G24G25G30
  20791526.581   109260223.00449  20791522.541    85137808.14049
  20627624.921   108398890.15649  20627623.202    84466663.09149
  24013199.177   126190218.70147  24013198.491    98330028.81848
  24718827.696   129898332.22344  24718828.144   101219475.60047
  25070864.490   131748272.71746  25070863.710   102660996.33248
  21862782.121   114889702.30149  21862780.079    89524433.77349
  25464558.959   133817143.363 7  25464559.411   104273094.227 8
  24186494.552   127100869.70247  24186493.982    99039638.82247
  21691204.737   113988044.53148  21691200.916    88821840.66149
  22610577.702   118819386.32248  22610578.053    92586529.68849
  23898159.849   125585681.79847  23898158.767    97858963.62848
  22864040.520   120151343.48348  22864039.406    93624414.74548
 06  4 25 13 52 30.0000000  0 12G 2G 4G 5G 6G10G13G17G20G23G24G25G30
  20782095.917   109210664.21948  20782091.754    85099190.89649
  20633936.511   108432057.87649  20633934.869    84492508.06149
  24029701.505   126276938.46047  24029700.640    98397602.64048
  24699660.227   129797606.27244  24699660.748   101140987.84747
  25047668.308   131626376.51946  25047667.520   102566012.40548
  21850585.268   114825607.12449  21850583.241    89474489.48149
  25487575.243   133938094.443 6  25487575.735   104367341.724 8
  24207676.345   127212180.08847  24207675.654    99126374.13447
  21693265.332   113998872.62548  21693261.333    88830278.12749
  22627643.520   118909068.14448  22627644.026    92656411.59149
  23904844.943   125620811.20448  23904843.922    97886336.90948
  22870549.235   120185546.35348  22870548.242    93651066.28148
 06  4 25 13 53  0.0000000  0 12G 2G 4G 5G 6G10G13G17G20G23G24G25G30
  20772802.576   109161827.32048  20772798.408    85061136.16749
  20640384.293   108465941.10949  20640382.695    84518910.58349
  24046307.145   126364201.59047  24046306.287    98465599.83148
  24680566.866   129697270.67344  24680567.573   101062804.33346
  25024518.367   131504723.01046  25024517.575   102471217.53048
  21838529.207   114762252.06348  21838527.357    89425121.90249
  25510627.390   134059234.633 7  25510627.984   104461736.614 8
  24228923.255   127323832.41247  24228922.469    99213375.91347
  21695483.779   114010530.57748  21695479.688    88839362.23649
  22644797.134   118999211.36648  22644797.583    92726653.03649
  23911664.514   125656647.97747  23911663.641    97914261.57848
  22877210.568   120220551.08347  22877209.595    93678342.62448
 06  4 25 13 53 30.0000000  0 12G 2G 4G 5G 6G10G13G17G20G23G24G25G30
  20763526.368   109113080.76448  20763522.364    85023151.84749
  20646847.665   108499905.97949  20646846.065    84545376.71949
  24062895.141   126451371.97347  24062894.344    98533524.65448
  24661427.986   129596695.05644  24661428.715   100984433.75147
  25001294.536   131382681.36246  25001293.725   102376120.24748
  21826493.867   114699006.05349  21826492.231    89375839.32349
  25533594.871   134179929.313 6  25533595.527   104555784.364 7
  24250114.260   127435191.52447  24250113.551    99300149.19747
  21697739.656   114022385.29048  21697735.545    88848599.68549
  22661917.819   119089181.07948  22661917.968    92796759.27648
  23918497.885   125692558.21048  23918497.258    97942243.75448
  22883903.729   120255723.22248  22883902.658    93705749.41248
 06  4 25 13 54  0.0000000  0 12G 2G 4G 5G 6G10G13G17G20G23G24G25G30
  20754469.507   109065487.10749  20754465.764    84986065.86549
  20653528.234   108535012.57549  20653526.708    84572732.49149
  24079666.916   126539507.93447  24079666.178    98602201.91548
  24642445.717   129496942.33644  24642446.365   100906704.42246
  24978199.128   131261314.35746  24978198.305   102281548.61348
  21814681.509   114636932.03449  21814680.003    89327469.97449
  25556678.966   134301236.706 6  25556679.594   104650309.540 7
  24271450.889   127547316.07546  24271450.337    99387518.92247
  21700234.709   114035496.63748  21700230.649    88858816.31249
  22679207.031   119180036.65748  22679206.887    92867555.79248
  23925546.880   125729600.30447  23925546.473    97971107.61048
  22890830.273   120292121.92748  22890829.190    93734111.99748
 06  4 25 13 54 30.0000000  0 12G 2G 4G 5G 6G10G13G17G20G23G24G25G30
  20745424.189   109017954.14148  20745420.708    84949027.21549
  20660217.714   108570165.90649  20660216.217    84600124.69649
  24096413.647   126627512.75446  24096412.925    98670777.17048
  24623412.267   129396921.10144  24623412.933   100828765.85547
  24955024.336   131139530.12746  24955023.489   102186651.86547
  21802884.455   114574938.37849  21802882.976    89279163.24649
  25579671.011   134422060.438 5  25579671.731   104744457.840 7
  24292724.676   127659109.92847  24292724.233    99474630.97048
  21702760.610   114048770.14648  21702756.678    88869159.29349
  22696456.454   119270682.30048  22696455.939    92938188.74349
  23932602.834   125766679.99847  23932602.528    98000000.97848
  22897781.849   120328651.76748  22897780.945    93762576.52348
 06  4 25 13 55  0.0000000  0 12G 2G 4G 5G 6G10G13G17G20G23G24G25G30
  20736505.787   108971087.99749  20736502.544    84912508.14149
  20667030.965   108605969.65949  20667029.519    84628023.71449
  24113249.941   126715987.73447  24113249.350    98739718.73248
  24604443.148   129297238.67944  24604443.858   100751091.32147
  24931885.580   131017935.39645  24931884.703   102091902.81247
  21791218.189   114513631.82848  21791216.603    89231391.89849
  25602685.811   134543003.746 5  25602686.544   104838699.307 7
  24314050.188   127771175.59446  24314049.802    99561954.79848
  21705432.305   114062810.12348  21705428.543    88880099.50649
  22713780.586   119361720.92048  22713780.024    93009127.91449
  23939780.751   125804400.42448  23939780.183    98029393.64848
  22904873.116   120365916.62848  22904872.143    93791614.04048
 06  4 25 13 55 30.0000000  0 12G 2G 4G 5G 6G10G13G17G20G23G24G25G30
  20727712.256   108924877.99649  20727709.169    84876500.36349
  20673965.434   108642410.63049  20673964.051    84656419.27749
  24130172.795   126804917.74547  24130172.397    98809014.81448
  24585536.687   129197884.93044  24585537.432   100673672.91547
  24908780.927   130896519.68645  24908780.015   101997293.22547
  21779680.718   114453002.04449  21779678.959    89184147.92249
  25625720.667   134664052.136 4  25625721.266   104933022.644 6
  24335424.683   127883498.66546  24335424.313    99649479.22447
  21708247.442   114077603.58148  21708243.699    88891626.88249
  22731176.841   119453138.41748  22731176.450    93080362.27649
  23947077.925   125842747.39748  23947077.068    98059274.39548
  22912101.512   120403902.16948  22912100.342    93821213.15148
 06  4 25 13 56  0.0000000  0 12G 2G 4G 5G 6G10G13G17G20G23G24G25G30
  20719012.440   108879160.40449  20719009.410    84840876.27549
  20680989.482   108679322.12849  20680988.125    84685181.46949
  24147150.057   126894134.61047  24147149.887    98878534.54848
  24566661.818   129098696.57544  24566662.535   100596383.27547
  24885679.291   130775119.36445  24885678.292   101902695.65848
  21768240.946   114392885.54249  21768239.063    89137303.90049
  25648743.626   134785038.165 4  25648744.256   105027297.409 5
  24356816.285   127995911.60446  24356815.923    99737073.66647
  21711174.350   114092984.30548  21711170.503    88903611.84349
  22748613.326   119544767.51348  22748613.091    93151761.53449
  23954462.639   125881554.42148  23954461.461    98089513.59148
  22919435.144   120442441.31948  22919433.786    93851243.75448
 06  4 25 13 56 30.0000000  0 12G 2G 4G 5G 6G10G13G17G20G23G24G25G30
  20710404.274   108833924.15249  20710401.212    84805627.23749
  20688100.527   108716690.95549  20688099.157    84714300.04749
  24164178.986   126983622.64147  24164179.026    98948265.46148
  24547816.684   128999664.19745  24547817.149   100519215.38147
  24862578.709   130653724.36245  24862577.615   101808102.21647
  21756896.932   114333272.06648  21756895.002    89090851.83449
  25671751.857   134905947.516 4  25671752.617   105121512.424 5
  24378222.190   128108399.61246  24378221.809    99824726.56447
  21714210.500   114108939.28848  21714206.597    88916044.29749
  22766087.451   119636594.28848  22766087.203    93223314.85149
  23961932.298   125920808.06047  23961930.828    98120100.90148
  22926871.371   120481519.99048  22926869.954    93881694.77648
 06  4 25 13 57  0.0000000  0 12G 2G 4G 5G 6G10G13G17G20G23G24G25G30
  20701915.690   108789316.31049  20701912.624    84770867.88549
  20695326.086   108754661.33649  20695324.670    84743887.34949
  24181286.685   127073524.26847  24181286.791    99018318.62148
  24529029.344   128900934.80845  24529029.518   100442283.42447
  24839507.097   130532482.15945  24839505.947   101713627.84347
  21745676.592   114274308.80848  21745674.764    89044906.45949
  25694772.122   135026923.26514
  24399669.570   128221106.01446  24399669.236    99912549.66247
  21717383.460   114125613.49049  21717379.628    88929037.17349
  22783626.472   119728761.99548  22783626.135    93295133.81449
  23969514.342   125960652.06547  23969512.587    98151148.21748
  22934437.663   120521281.87148  22934436.347    93912678.07748
 06  4 25 13 57 30.0000000  0 11G 2G 4G 5G 6G10G13G20G23G24G25G30
  20693545.316   108745329.60649  20693542.202    84736592.53249
  20702664.252   108793223.65949  20702662.858    84773935.90549
  24198470.916   127163827.88447  24198471.114    99088684.95748
  24510298.586   128802502.57346  24510298.436   100365582.96047
  24816463.269   130411385.93445  24816462.061   101619267.20147
  21734578.721   114215989.29249  21734577.088    88999462.67749
  24421156.362   128334019.70946  24421156.061   100000534.30547
  21720691.456   114142997.47148  21720687.735    88942583.12749
  22801228.389   119821260.22448  22801228.018    93367210.33349
  23977206.770   126001076.04247  23977205.036    98182647.35448
  22942132.104   120561716.65148  22942130.918    93944185.71448
 06  4 25 13 58  0.0000000  0 11G 2G 4G 5G 6G10G13G20G23G24G25G30
  20685262.679   108701803.64949  20685259.363    84702676.19149
  20710084.062   108832214.98849  20710082.688    84804318.74549
  24215700.279   127254369.14647  24215700.443    99159236.58348
  24491593.939   128704208.27046  24491593.455   100288990.09747
  24793416.907   130290275.95145  24793415.544   101524895.84847
  21723573.030   114158153.83948  21723571.532    88954396.10949
  24442651.263   128446977.02246  24442651.031   100088552.92647
  21724103.580   114160928.58648  21724100.003    88956555.39149
  22818862.090   119913925.69748  22818861.860    93439417.15649
  23984978.531   126041917.36447  23984976.973    98214471.79448
  22949923.462   120602660.67148  22949922.389    93976090.17348
 06  4 25 13 58 30.0000000  0 11G 2G 4G 5G 6G10G13G20G23G24G25G30
  20677125.261   108659041.04249  20677121.758    84669354.68449
  20717642.563   108871935.15149  20717641.174    84835269.51349
  24233031.587   127345445.72247  24233031.666    99230205.29248
  24472973.175   128606355.15146  24472972.508   100212740.93147
  24770425.412   130169455.17645  24770424.064   101430749.83247
  21712717.091   114101105.24649  21712715.728    88909942.65549
  24464211.420   128560276.81846  24464211.100   100176838.46147
  21727676.994   114179707.22048  21727673.491    88971188.10349
  22836584.498   120007057.79848  22836584.611    93511987.60849
  23992886.671   126083475.01247  23992885.566    98246854.22048
  22957868.805   120644413.63648  22957867.737    94008624.95148
 06  4 25 13 59  0.0000000  0 11G 2G 4G 5G 6G10G13G20G23G24G25G30
  20669044.060   108616574.07749  20669040.496    84636263.54949
  20725250.302   108911914.08749  20725248.881    84866421.92649
  24250374.870   127436585.91047  24250374.761    99301223.77748
  24454347.477   128508476.35246  24454346.594   100136471.80447
  24747399.662   130048456.38545  24747398.831   101336458.12957
  21701921.931   114044376.20149  21701920.596    88865738.20849
  24485747.058   128673447.66946  24485746.766   100265023.44647
  21731322.338   114198863.41648  21731318.812    88986114.98749
  22854306.050   120100185.55948  22854306.524    93584554.65849
  24000841.604   126125279.24747  24000840.836    98279429.09948
  22965878.539   120686504.60248  22965877.346    94041423.12048
 06  4 25 13 59 30.0000000  0 11G 2G 4G 5G 6G10G13G20G23G24G25G30
  20661106.269   108574860.70249  20661102.706    84603759.62549
  20732993.853   108952606.85149  20732992.384    84898130.55849
  24267816.580   127528242.43447  24267816.284    99372644.48948
  24435804.159   128411030.55746  24435803.106   100060540.06847
  24724427.902   129927737.78545  24724426.416   101242391.74447
  21691274.770   113988425.02649  21691273.383    88822139.89949
  24507344.592   128786943.69846  24507344.211   100353461.87448
  21735126.192   114218852.58649  21735122.682    89001690.95049
  22872113.250   120193763.18448  22872113.886    93657472.23749
  24008929.888   126167783.90347  24008929.537    98312549.57148
  22974038.927   120729387.79148  22974037.570    94074838.71748
 06  4 25 14  0  0.0000000  0 11G 2G 4G 5G 6G10G13G20G23G24G25G30
  20653252.766   108533590.20149  20653249.200    84571600.79949
  20740813.617   108993700.30049  20740812.078    84930151.43049
  24285296.616   127620100.30247  24285296.278    99444222.04948
  24417284.178   128313707.99546  24417283.261    99984704.36947
  24701450.203   129806989.18944  24701448.578   101148301.96346
  21680716.560   113932941.28749  21680715.087    88778905.81849
  24528944.316   128900450.82646  24528943.815   100441908.95247
  21739028.994   114239361.57148  21739025.542    89017671.97549
  22889946.330   120287477.02348  22889947.024    93730495.98849
  24017091.841   126210676.22546  24017091.720    98345972.31548
  22982290.337   120772749.40048  22982288.936    94108627.02548
 06  4 25 14  0 30.0000000  0 11G 2G 4G 5G 6G10G13G20G23G24G25G30
  20645512.202   108492913.35749  20645508.593    84539904.56049
  20748737.925   109035342.85148  20748736.313    84962600.16149
  24302842.858   127712306.26647  24302842.352    99516070.82148
  24398816.594   128216660.65547  24398815.788    99909083.03147
  24678495.684   129686362.56644  24678493.955   101054307.27546
  21670276.090   113878076.68549  21670274.571    88736154.18149
  24550574.258   129014116.65746  24550573.658   100530479.67048
  21743059.179   114260539.62148  21743055.671    89034174.33849
  22907833.563   120381474.94448  22907834.121    93803741.06548
  24025355.778   126254103.66346  24025355.726    98379811.85048
  22990660.936   120816737.13547  22990659.612    94142903.10348
 06  4 25 14  1  0.0000000  0 11G 2G 4G 5G 6G10G13G20G23G24G25G30
  20637855.184   108452675.51949  20637851.504    84508550.40249
  20756736.772   109077377.07549  20756735.113    84995354.09849
  24320425.077   127804701.16947  24320424.315    99588066.80148
  24380372.170   128119734.92947  24380371.368    99833556.46047
  24655534.845   129565703.67244  24655533.273   100960287.37347
  21659924.087   113823677.04248  21659922.505    88693764.85849
  24572204.230   129127782.58446  24572203.529   100619050.47047
  21747186.775   114282229.74849  21747183.155    89051075.72649
  22925744.831   120475598.88548  22925744.923    93877084.36548
  24033691.618   126297908.58147  24033691.469    98413945.48148
  22999120.684   120861193.09848  22999119.551    94177543.98548
 06  4 25 14  1 30.0000000  0 11G 2G 4G 5G 6G10G13G20G23G24G25G30
  20630340.175   108413183.60049  20630336.306    84477777.48649
  20764868.090   109120107.37449  20764866.395    85028650.43049
  24338100.768   127897587.39947  24338099.684    99660445.64147
  24362009.539   128023238.55947  24362008.638    99758364.46547
  24632626.353   129445319.92045  24632624.914   100866481.90647
  21649719.022   113770049.31249  21649717.328    88651977.01949
  24593891.879   129241751.91446  24593891.149   100707857.70847
  21751469.642   114304736.14848  21751465.973    89068613.18349
  22943737.820   120570152.21248  22943737.384    93950762.26948
  24042157.189   126342395.23746  24042156.746    98448610.40648
  23007727.342   120906420.92048  23007726.429    94212786.36948
 06  4 25 14  2  0.0000000  0 11G 2G 4G 5G 6G10G13G20G23G24G25G30
  20622937.213   108374280.67549  20622933.210    84447463.51349
  20773101.460   109163374.05649  20773099.725    85062364.72949
  24355839.124   127990803.65047  24355837.774    99733081.71648
  24343698.827   127927015.61447  24343698.006    99683385.48847
  24609740.546   129325054.88245  24609739.189   100772768.90947
  21639631.120   113717037.02948  21639629.309    88610668.76949
  24615606.687   129355864.34446  24615606.121   100796776.41947
  21755877.474   114327899.40048  21755873.728    89086662.45249
  22961782.028   120664975.16648  22961781.436    94024650.24048
  24050721.964   126387403.52947  24050721.155    98483681.85148
  23016450.397   120952260.48048  23016449.758    94248505.40948
 06  4 25 14  2 30.0000000  0 11G 2G 4G 5G 6G10G13G20G23G24G25G30
  20615616.910   108335812.37949  20615612.944    84417488.21949
  20781407.115   109207020.44449  20781405.329    85096374.88049
  24373610.271   128084191.37647  24373608.716    99805851.37748
  24325411.031   127830913.06847  24325410.394    99608500.40047
  24586848.125   129204755.17645  24586846.853   100679028.93446
  21629631.133   113664486.55748  21629629.203    88569720.35249
  24637318.766   129469961.93346  24637318.256   100885683.54847
  21760380.519   114351563.31248  21760376.675    89105101.86149
  22979847.559   120759910.36048  22979847.199    94098625.70648
  24059356.229   126432776.05247  24059355.067    98519036.96748
  23025259.851   120998554.25448  23025259.333    94284578.45848
 06  4 25 14  3  0.0000000  0 11G 2G 4G 5G 6G10G13G20G23G24G25G30
  20608408.417   108297931.40249  20608404.556    84387970.57549
  20789813.606   109251196.69549  20789811.765    85130797.92449
  24391442.379   128177898.70647  24391440.592    99878870.05348
  24307175.463   127735084.29447  24307174.780    99533828.64047
  24563978.280   129084574.01945  24563977.101   100585381.34047
  21619748.068   113612550.70148  21619746.030    88529250.84849
  24659056.350   129584193.83346  24659055.887   100974695.35447
  21765007.445   114375877.93948  21765003.486    89124048.31449
  22997962.964   120855107.11448  22997963.042    94172804.92948
  24068088.286   126478662.57047  24068087.019    98554792.56948
  23034184.129   121045451.65148  23034183.564    94321121.87948
 06  4 25 14  3 30.0000000  0 11G 2G 4G 5G 6G10G13G20G23G24G25G30
  20601282.611   108260484.88048  20601278.905    84358791.47249
  20798291.303   109295747.36049  20798289.519    85165512.72149
  24409305.379   128271768.52848  24409303.533    99952015.40347
  24288963.066   127639377.97047  24288962.311    99459252.40347
  24541102.064   128964359.28446  24541100.937   100491707.58347
  21609952.931   113561077.06248  21609950.768    88489141.54049
  24680789.819   129698403.95446  24680789.553   101063690.17847
  21769728.728   114400688.35648  21769724.748    89143381.09449
  23016098.512   120950409.71648  23016098.995    94247066.65549
  24076888.527   126524907.90247  24076887.265    98590827.91948
  23043193.548   121092796.56248  23043192.750    94358014.05548
 06  4 25 14  4  0.0000000  0 11G 2G 4G 5G 6G10G13G20G23G24G25G30
  20594327.208   108223933.99449  20594323.620    84330310.27649
  20806927.506   109341131.13049  20806925.847    85200876.70049
  24427286.220   128366257.82848  24427284.422   100025643.41847
  24270861.990   127544255.98547  24270861.183    99385131.34347
  24518307.424   128844572.86246  24518306.370   100398367.52047
  21600333.636   113510527.23148  21600331.323    88449752.05549
  24702606.225   129813050.19346  24702606.051   101153024.84248
  21774631.730   114426453.49148  21774627.730    89163457.83149
  23034341.366   121046276.21648  23034342.072    94321767.78948
  24085844.088   126571969.44147  24085843.251    98627499.05748
  23052375.218   121141046.78148  23052374.305    94395611.58248
 06  4 25 14  4 30.0000000  0 11G 2G 4G 5G 6G10G13G20G23G24G25G30
  20587483.564   108187970.61749  20587480.133    84302286.87049
  20815663.158   109387037.29149  20815661.566    85236647.72649
  24445325.480   128461053.84648  24445323.600   100099510.37148
  24252813.663   127449411.23147  24252812.836    99311226.25547
  24495535.726   128724907.31046  24495534.774   100305121.70347
  21590831.596   113460593.49049  21590829.151    88410842.65449
  24724446.386   129927820.91746  24724446.296   101242456.49447
  21779657.306   114452862.76449  21779653.400    89184036.45149
  23052632.365   121142395.31748  23052632.993    94396665.74048
  24094895.951   126619536.58347  24094895.595    98664564.14548
  23061669.987   121189890.93348  23061669.015    94433671.89448
 06  4 25 14  5  0.0000000  0 11G 2G 4G 5G 6G10G13G20G23G24G25G30
  20580693.124   108152286.83349  20580689.842    84274481.32949
  20824439.132   109433155.40649  20824437.567    85272583.92249
  24463363.614   128555844.62947  24463361.768   100173373.27648
  24234759.714   127354537.11847  24234759.079    99237298.32548
  24472728.625   128605055.46846  24472727.748   100211730.71247
  21581388.329   113410968.50748  21581385.916    88372173.84049
  24746250.944   130042404.58446  24746250.918   101331742.40247
  21784746.348   114479606.01248  21784742.622    89204875.33949
  23070912.160   121238456.03748  23070912.649    94471518.18748
  24103984.660   126667299.01147  24103984.691    98701781.78448
  23071018.549   121239017.77248  23071017.621    94471952.50148
 06  4 25 14  5 30.0000000  0 11G 2G 4G 5G 6G10G13G20G23G24G25G30
  20574043.758   108117344.37049  20574040.577    84247253.44949
  20833342.885   109479944.88349  20833341.322    85309043.24749
  24481487.827   128651087.88747  24481486.168   100247588.79248
  24216788.255   127260097.18347  24216787.768    99163708.96847
  24449974.200   128485480.19246  24449973.400   100118555.17848
  21572091.775   113362114.50248  21572089.438    88334105.78849
  24768107.334   130157259.90546  24768107.174   101421239.98948
  21789986.328   114507142.47948  21789982.862    89226332.31149
  23089268.311   121334917.51148  23089268.531    94546682.92649
  24113197.984   126715715.10646  24113198.147    98739508.66248
  23080508.256   121288886.07948  23080507.444    94510810.89448
 06  4 25 14  6  0.0000000  0 11G 2G 4G 5G 6G10G13G20G23G24G25G30
  20567477.079   108082836.20649  20567473.906    84220363.96849
  20842315.420   109527095.68649  20842313.844    85345784.13049
  24499638.680   128746471.63847  24499637.217   100321913.77247
  24198841.082   127165784.02947  24198840.852    99090218.19148
  24427214.041   128365874.83946  24427213.316   100025356.22347
  21562883.503   113313724.45648  21562881.146    88296399.27749
  24789956.176   130272076.03046  24789955.974   101510707.04747
  21795318.330   114535162.55948  21795315.139    89248166.12249
  23107641.600   121431468.83048  23107641.548    94621917.67248
  24122476.554   126764474.44647  24122476.842    98777503.02148
  23090079.930   121339185.22348  23090079.198    94550005.09448
 06  4 25 14  6 30.0000000  0 11G 2G 4G 5G 6G10G13G20G23G24G25G30
  20561081.054   108049224.39749  20561077.799    84194172.94649
  20851444.207   109575067.65849  20851442.628    85383164.87949
  24517903.557   128842454.15047  24517902.285   100396705.29447
  24181006.353   127072061.98847  24181006.266    99017188.04248
  24404536.263   128246702.40647  24404535.561    99932494.63948
  21553851.549   113266261.12349  21553849.188    88259414.85649
  24811884.990   130387312.16646  24811884.650   101600501.37348
  21800829.920   114564126.35148  21800826.912    89270735.31849
  23126119.304   121528569.31948  23126119.009    94697580.34648
  24131907.872   126814036.44846  24131908.150    98816122.74448
  23099820.801   121390374.28348  23099820.267    94589892.77048
 06  4 25 14  7  0.0000000  0 11G 2G 4G 5G 6G10G13G20G23G24G25G30
  20554738.587   108015894.28949  20554735.313    84168201.43349
  20860611.699   109623243.21949  20860610.130    85420704.27149
  24536164.423   128938416.02447  24536163.457   100471480.71047
  24163167.244   126978316.99647  24163167.165    98944140.06148
  24381824.038   128127348.73446  24381823.388    99839491.77147
  21544878.921   113219109.77349  21544876.604    88222673.56049
  24833776.099   130502350.09347  24833775.569   101690141.24848
  21806403.624   114593416.33148  21806400.683    89293558.66549
  23144583.851   121625601.29048  23144583.329    94773189.64948
  24141374.423   126863783.13747  24141374.612    98854886.35548
  23109613.277   121441834.50048  23109613.002    94629991.60348
 06  4 25 14  7 30.0000000  0 11G 2G 4G 5G 6G10G13G20G23G24G25G30
  20548537.707   107983308.13549  20548534.415    84142809.63749
  20869905.521   109672082.49049  20869903.925    85458760.83849
  24554508.602   129034815.67847  24554507.905   100546597.28247
  24145411.993   126885012.83247  24145412.002    98871435.57348
  24359165.502   128008277.32347  24359164.906    99746708.85947
  21536053.800   113172733.54349  21536051.540    88186536.24549
  24855716.825   130617648.92046  24855716.285   101779984.43448
  21812127.011   114623492.96349  21812124.064    89316994.98549
  23163122.832   121723024.35848  23163122.095    94849103.70548
  24150963.500   126914175.01247  24150963.564    98894153.10448
  23119544.777   121494025.53948  23119544.700    94670659.96248
 06  4 25 14  8  0.0000000  0 11G 2G 4G 5G 6G10G13G20G23G24G25G30
  20542449.412   107951313.48949  20542446.081    84117878.74049
  20879296.048   109721430.28949  20879294.454    85497213.67349
  24572906.309   129131496.40947  24572905.890   100621932.89647
  24127711.791   126791998.23847  24127711.876    98798956.73648
  24336531.753   127889336.26147  24336531.220    99654027.54047
  21527347.170   113126980.04948  21527345.017    88150884.17749
  24877677.501   130733052.54947  24877676.943   101869909.28448
  21817970.574   114654201.12448  21817967.411    89340923.42149
  23181706.570   121820682.78048  23181705.669    94925201.11748
  24160645.776   126965054.87246  24160645.849    98933799.57048
  23129585.644   121546791.71447  23129585.597    94711776.63248
 06  4 25 14  8 30.0000000  0 11G 2G 4G 5G 6G10G13G20G23G24G25G30
  20536473.533   107919909.87549  20536470.192    84093408.37749
  20888782.819   109771283.95449  20888781.262    85536060.65849
  24591356.702   129228453.59447  24591356.317   100697483.87247
  24110066.798   126699273.70647  24110067.089    98726703.84348
  24313922.943   127770526.22946  24313922.453    99561448.32747
  21518758.953   113081848.91248  21518756.908    88115717.05649
  24899657.442   130848557.35746  24899656.808   101959912.96748
  21823933.875   114685537.92048  21823930.284    89365341.67149
  23200334.494   121918573.43048  23200333.575    95001479.49348
  24170420.375   127016420.73647  24170420.506    98973824.93748
  23139735.261   121600128.71748  23139735.336    94753337.89948
 06  4 25 14  9  0.0000000  0 11G 2G 4G 5G 6G10G13G20G23G24G25G30
  20530581.584   107888947.57149  20530578.180    84069281.91649
  20898336.886   109821491.22449  20898335.371    85575183.19849
  24609830.402   129325533.35947  24609829.829   100773130.41046
  24092448.867   126606691.60347  24092449.239    98654562.06848
  24291310.736   127651698.49747  24291310.283    99468855.36547
  21510260.869   113037191.43149  21510258.901    88080919.04249
  24921627.621   130964011.05047  24921626.966   102049876.81248
  21829987.834   114717351.34848  21829983.872    89390131.35049
  23218977.572   122016543.62448  23218976.826    95077819.86648
  24180258.476   127068119.36947  24180258.618    99014109.42148
  23149964.530   121653883.98448  23149964.671    94795225.12848
 06  4 25 14  9 30.0000000  0 11G 2G 4G 5G 6G10G13G20G23G24G25G30
  20524802.870   107858580.53549  20524799.381    84045619.29449
  20907987.053   109872203.28749  20907985.567    85614699.07849
  24628355.825   129422885.08347  24628354.921   100848988.84647
  24074887.429   126514406.05847  24074887.837    98582651.34448
  24268724.637   127533007.49547  24268724.581    99376368.84847
  21501882.144   112993161.34049  21501880.286    88046609.89149
  24943616.722   131079564.11847  24943616.015   102139918.10647
  21836161.250   114749792.77348  21836157.056    89415410.38349
  23237664.547   122114743.80848  23237663.903    95154339.44948
  24190188.571   127120301.93146  24190188.683    99054771.12748
  23160302.023   121708207.37747  23160302.112    94837554.96948
 06  4 25 14 10  0.0000000  0 11G 2G 4G 5G 6G10G13G20G23G24G25G30
  20519167.141   107828964.64049  20519163.505    84022541.98349
  20917762.515   109923573.62549  20917761.057    85654727.92049
  24646961.979   129520660.92447  24646960.906   100925177.77447
  24057412.390   126422574.79847  24057412.855    98511094.62048
  24246194.500   127414610.54447  24246194.470    99284111.49547
  21493652.713   112949915.32348  21493650.844    88012911.69949
  24965653.775   131195369.30547  24965653.123   102230155.84648
  21842483.358   114783015.73948  21842478.964    89441298.41349
  23256424.624   122213327.45948  23256423.883    95231157.83648
  24200239.844   127173121.79147  24200239.910    99095929.53548
  23170776.770   121763252.07647  23170776.802    94880446.79448
 06  4 25 14 10 30.0000000  0 11G 2G 4G 5G 6G10G13G20G23G24G25G30
  20513615.905   107799792.76449  20513612.115    83999810.65449
  20927604.345   109975292.47949  20927602.935    85695028.32449
  24665589.626   129618549.49446  24665588.398   101001454.55447
  24039965.654   126330891.80147  24039966.007    98439653.44448
  24223661.942   127296201.09147  24223661.745    99191844.40947
  21485514.065   112907146.31849  21485512.099    87979585.21249
  24987679.680   131311116.37347  24987679.232   102320348.30147
  21848895.256   114816710.95748  21848890.820    89467554.42549
  23275198.582   122311984.36848  23275197.943    95308033.31548
  24210353.216   127226268.26447  24210353.361    99137342.30348
  23181329.762   121818707.73247  23181329.725    94923658.87748
 06  4 25 14 11  0.0000000  0 11G 2G 4G 5G 6G10G13G20G23G24G25G30
  20508179.011   107771221.69349  20508175.062    83977547.48749
  20937541.940   110027514.49149  20937540.640    85735720.78549
  24684267.833   129716703.44546  24684266.589   101077938.12347
  24022577.165   126239515.20347  24022577.423    98368450.97648
  24201156.958   127177936.88347  24201156.606    99099690.53248
  21477496.078   112865011.35249  21477493.982    87946752.77249
  25009723.855   131426958.94946  25009723.507   102410615.16947
  21855426.460   114851032.66548  21855422.058    89494298.59549
  23294015.754   122410868.36648  23294015.265    95385085.73148
  24220558.223   127279895.81247  24220558.101    99179130.10248
  23191990.089   121874727.81547  23191989.986    94967310.86148
 06  4 25 14 11 30.0000000  0 11G 2G 4G 5G 6G10G13G20G23G24G25G30
  20502856.849   107743253.45149  20502852.802    83955754.03749
  20947575.068   110080238.80949  20947573.955    85776804.66049
  24702996.131   129815120.44146  24702994.921   101154626.63747
  24005247.613   126148448.42147  24005247.793    98297489.97448
  24178680.307   127059821.09847  24178679.936    99007652.23447
  21469599.219   112823512.95349  21469596.991    87914416.34949
  25031785.898   131542895.51846  25031785.562   102500955.28647
  21862076.820   114885980.32648  21862072.470    89521530.51349
  23312875.869   122509978.56548  23312875.601    95462314.43348
  24230854.600   127334002.70247  24230854.212    99221291.20148
  23202757.437   121931311.11547  23202757.253    95011401.86248
 06  4 25 14 12  0.0000000  0 11G 2G 4G 5G 6G10G13G20G23G24G25G30
  20497679.021   107716043.99949  20497674.988    83934551.87749
  20957733.065   110133619.38149  20957732.068    85818399.90149
  24721803.386   129913952.95246  24721802.186   101231638.99147
  23988006.940   126057848.88547  23988007.049    98226893.10548
  24156261.644   126942010.85147  24156261.356    98915852.08348
  21461853.255   112782807.41849  21461850.902    87882697.75249
  25053895.117   131659079.62346  25053894.687   102591488.30047
  21868875.462   114921707.74048  21868871.264    89549370.06549
  23331808.267   122609468.61548  23331808.108    95539839.07249
  24241271.441   127388742.60247  24241270.792    99263945.54248
  23213661.015   121988610.11247  23213661.017    95056050.48748
 06  4 25 14 12 30.0000000  0 11G 2G 4G 5G 6G10G13G20G23G24G25G30
  20492587.770   107689289.29249  20492583.777    83913704.03349
  20967957.589   110187349.42749  20967956.644    85860267.45549
  24740630.921   130012892.28746  24740629.937   101308734.51547
  23970797.665   125967413.46947  23970797.708    98156424.04348
  24133843.488   126824202.95947  24133843.182    98824053.75147
  21454200.308   112742590.91449  21454197.924    87851360.21349
  25075992.831   131775203.79746  25075992.477   102681974.58847
  21875764.200   114957908.15048  21875760.217    89577578.14649
  23350754.326   122709031.07348  23350754.166    95617420.16948
  24251750.169   127443809.12447  24251749.280    99306854.73348
  23224642.367   122046317.16747  23224642.475    95101017.06448
 06  4 25 14 13  0.0000000  0 11G 2G 4G 5G 6G10G13G20G23G24G25G30
  20487642.294   107663300.39149  20487638.223    83893452.94249
  20978307.363   110241737.76149  20978306.433    85902647.95349
  24759537.313   130112245.70245  24759536.397   101386152.68547
  23953679.175   125877454.91947  23953679.147    98086326.52048
  24111485.195   126706709.64847  24111484.637    98732500.59348
  21446699.702   112703174.96049  21446697.341    87820646.48449
  25098137.754   131891576.06046  25098137.461   102772654.18848
  21882801.686   114994890.51148  21882797.964    89606395.54349
  23369772.956   122808974.61948  23369772.745    95695298.19548
  24262349.627   127499509.34347  24262348.717    99350257.40348
  23235760.029   122104740.84048  23235760.011    95146542.20348
 06  4 25 14 13 30.0000000  0 11G 2G 4G 5G 6G10G13G20G23G24G25G30
  20482784.640   107637773.31049  20482780.546    83873561.72049
  20988723.968   110296477.39048  20988722.943    85945302.19849
  24778463.702   130211704.95745  24778463.002   101463653.37347
  23936593.882   125787670.06747  23936593.785    98016364.16548
  24089129.052   126589227.51447  24089128.165    98640956.10748
  21439293.576   112664255.63349  21439291.343    87790319.75649
  25120271.522   132007889.48246  25120271.386   102863287.91048
  21889929.663   115032348.18948  21889926.041    89635583.32749
  23388805.540   122908992.08647  23388805.415    95773233.86149
  24273011.181   127555536.81147  24273010.286    99393915.24848
  23246955.479   122163572.51847  23246955.288    95192385.05448
 06  4 25 14 14  0.0000000  0 11G 2G 4G 5G 6G10G13G20G23G24G25G30
  20478015.419   107612710.97849  20478011.323    83854032.64249
  20999207.591   110351569.17049  20999206.431    85988230.85949
  24797410.137   130311269.17445  24797409.581   101541235.82547
  23919542.464   125698063.85347  23919542.355    97946541.09748
  24066775.936   126471760.87547  24066774.710    98549423.66648
  21431982.582   112625836.22649  21431980.527    87760382.56349
  25142394.072   132124144.27146  25142393.961   102953876.00047
  21897148.290   115070281.70848  21897144.602    89665141.87749
  23407852.333   123009083.81547  23407852.425    95851227.34149
  24283735.190   127611891.20247  24283734.426    99437827.55748
  23258228.565   122222812.82847  23258228.207    95238546.36848
 06  4 25 14 14 30.0000000  0 11G 2G 4G 5G 6G10G13G20G23G24G25G30
  20473393.986   107588424.90049  20473389.798    83835108.42849
  21009817.147   110407322.32749  21009815.806    86031674.88349
  24816435.004   130411245.89944  24816434.717   101619139.67046
  23902584.542   125608949.34246  23902584.512    97877101.18848
  24044485.352   126354622.59847  24044483.839    98458147.12048
  21424826.141   112588228.87249  21424824.170    87731078.13349
  25164564.243   132240648.86546  25164564.278   103044658.71347
  21904516.187   115108999.95448  21904512.526    89695311.92049
  23426972.092   123109558.73247  23426972.429    95929519.43548
  24294580.130   127668882.02547  24294579.440    99482236.04748
  23269637.897   122282769.55147  23269637.510    95285265.86948
 06  4 25 14 15  0.0000000  0 11G 2G 4G 5G 6G10G13G20G23G24G25G30
  20468862.028   107564609.14849  20468857.751    83816550.70249
  21020493.867   110463428.36849  21020492.426    86075393.85849
  24835479.360   130511325.16644  24835479.457   101697123.41446
  23885662.154   125520021.93646  23885662.171    97807807.18848
  24022199.217   126237507.70047  24022197.474    98366888.80348
  21417765.993   112551127.54649  21417764.016    87702168.01349
  25186723.151   132357094.37146  25186723.203   103135395.36948
  21911974.821   115148194.86848  21911971.167    89725853.40149
  23446105.862   123210108.00047  23446106.564    96007869.45848
  24305487.342   127726199.93647  24305486.773    99526899.34448
  23281124.717   122343133.66547  23281124.507    95332302.82648
 06  4 25 14 15 30.0000000  0 11G 2G 4G 5G 6G10G13G20G23G24G25G30
  20464478.559   107541573.92249  20464474.240    83798601.17649
  21031296.177   110520194.92449  21031294.811    86119627.53549
  24854601.673   130611813.12845  24854601.834   101775425.66346
  23868834.674   125431592.86546  23868834.793    97738901.38748
  23999976.652   126120727.42547  23999974.873    98275891.24848
  21410861.319   112514842.89549  21410859.210    87673894.26849
  25208929.273   132473787.82846  25208929.361   103226325.21948
  21919582.698   115188174.25448  21919578.984    89757006.16949
  23465312.385   123311038.92547  23465313.225    96086516.86848
  24316515.206   127784152.31848  24316514.803    99572057.09748
  23292747.515   122404211.85047  23292747.531    95379896.19548
 06  4 25 14 16  0.0000000  0 11G 2G 4G 5G 6G10G13G20G23G24G25G30
  20460185.581   107519014.20049  20460181.220    83781022.16449
  21042165.675   110577314.58149  21042164.438    86164136.34449
  24873742.843   130712400.74945  24873743.052   101853805.59447
  23852044.242   125343358.99046  23852044.536    97670147.78048
  23977759.926   126003977.80847  23977758.211    98184917.54548
  21404053.981   112479069.99649  21404051.776    87646019.27749
  25231124.003   132590421.58046  25231124.052   103317208.54748
  21927281.306   115228630.55549  21927277.475    89788530.54849
  23484533.112   123412044.15647  23484533.829    96165222.18148
  24327605.234   127842430.93248  24327605.047    99617468.91648
  23304447.569   122465695.98947  23304447.701    95427805.87448
 06  4 25 14 16 30.0000000  0 11G 2G 4G 5G 6G10G13G20G23G24G25G30
  20456012.532   107497084.74749  20456008.162    83763934.28549
  21053131.383   110634939.95649  21053130.286    86209039.21949
  24892931.609   130813239.14745  24892932.088   101932380.95847
  23835320.677   125255476.34446  23835321.078    97601667.82648
  23955578.715   125887415.16147  23955577.175    98094089.56448
  21397373.574   112443964.16049  21397371.273    87618664.07849
  25253336.387   132707147.72646  25253336.378   103408163.90547
  21935099.633   115269716.01649  21935095.659    89820545.20349
  23503796.763   123513275.41947  23503797.231    96244103.62648
  24338786.411   127901188.16648  24338786.254    99663253.74748
  23316253.546   122527737.19347  23316253.786    95476149.59848
 06  4 25 14 17  0.0000000  0 11G 2G 4G 5G 6G10G13G20G23G24G25G30
  20451959.275   107475785.04649  20451955.016    83747337.10949
  21064192.700   110693067.81849  21064191.711    86254333.62649
  24912167.488   130914323.65645  24912167.846   102011148.08047
  23818664.121   125167946.20946  23818664.648    97533462.62448
  23933433.220   125771039.98947  23933431.743    98003407.66248
  21390819.985   112409524.94349  21390817.627    87591828.33649
  25275565.641   132823962.77346  25275565.563   103499188.57447
  21943037.032   115311427.45349  21943032.990    89853047.62249
  23523102.873   123614729.55247  23523102.962    96323158.74148
  24350057.933   127960420.38148  24350057.841    99709408.67048
  23328164.897   122590332.07347  23328165.063    95524924.81948
 06  4 25 14 17 30.0000000  0 11G 2G 4G 5G 6G10G13G20G23G24G25G30
  20447996.878   107454962.73149  20447992.776    83731111.92949
  21075320.181   110751543.46849  21075319.192    86299899.07949
  24931420.410   131015497.88146  24931420.721   102089985.07048
  23802045.648   125080616.98145  23802046.472    97465413.84548
  23911294.709   125654701.23147  23911293.250    97912754.13948
  21384364.367   112375600.41049  21384361.941    87565393.63349
  25297782.214   132940711.37447  25297782.165   103590161.40747
  21951064.233   115353610.55448  21951060.186    89885917.55649
  23542421.974   123716251.73947  23542421.735    96402266.88948
  24361390.382   128019972.24147  24361390.308    99755812.60048
  23340151.934   122653324.53447  23340152.012    95574009.83948
 06  4 25 14 18  0.0000000  0 11G 2G 4G 5G 6G10G13G20G23G24G25G30
  20444155.031   107434773.93749  20444151.124    83715380.38549
  21086543.159   110810520.74249  21086542.079    86345855.36449
  24950719.364   131116914.34945  24950719.581   102169010.89547
  23785495.563   124993647.13446  23785496.604    97397645.15347
  23889192.986   125538555.95547  23889191.714    97822251.35948
  21378036.457   112342346.85949  21378034.005    87539481.76249
  25320015.379   133057547.03947  25320015.400   103681202.07147
  21959210.335   115396418.63948  21959206.344    89919274.49249
  23561783.101   123817995.17747  23561782.682    96481547.44848
  24372812.788   128079997.32447  24372812.649    99802585.39948
  23352243.724   122716867.60247  23352243.800    95623523.87948
 06  4 25 14 18 30.0000000  0 11G 2G 4G 5G 6G10G13G20G23G24G25G30
  20440492.490   107415527.49649  20440488.714    83700383.17649
  21097919.883   110870305.95649  21097918.622    86392441.24849
  24970122.332   131218877.91845  24970122.601   102248463.01747
  23769072.882   124907346.54846  23769074.058    97330397.94747
  23867187.152   125422914.39246  23867185.983    97732141.10148
  21371894.976   112310073.12949  21371892.563    87514333.39649
  25342323.446   133174775.84547  25342323.463   103772549.04748
  21967533.770   115440158.24249  21967529.733    89953357.28549
  23581244.695   123920266.45447  23581244.225    96561239.30648
  24384383.541   128140801.42048  24384383.418    99849965.10348
  23364498.539   122781266.93747  23364498.449    95673705.14948
 06  4 25 14 19  0.0000000  0 11G 2G 4G 5G 6G10G13G20G23G24G25G30
  20436863.100   107396454.92749  20436859.350    83685521.44449
  21109303.733   110930128.42949  21109302.280    86439056.14649
  24989482.502   131320616.17246  24989482.753   102327739.50947
  23752631.847   124820948.51446  23752632.963    97263074.79047
  23845131.015   125307009.45646  23845130.141    97641825.64448
  21365793.825   112278011.14749  21365791.492    87489350.02949
  25364559.454   133291626.73146  25364559.465   103863601.69648
  21975887.721   115484058.21049  21975883.676    89987565.00549
  23600659.938   124022294.37047  23600659.596    96640741.53548
  24395955.723   128201613.17947  24395955.633    99897350.73748
  23376769.348   122845750.28147  23376769.082    95723951.87348
 06  4 25 14 19 30.0000000  0 11G 2G 4G 5G 6G10G13G20G23G24G25G30
  20433384.120   107378172.66949  20433380.344    83671275.52549
  21120811.546   110990602.39349  21120809.954    86486178.70749
  25008916.530   131422742.02146  25008916.763   102407318.03147
  23736290.019   124735071.22146  23736290.988    97196157.41448
  23823142.438   125191459.01747  23823141.736    97551786.39648
  21359850.411   112246777.79349  21359848.099    87465012.32949
  25386840.381   133408713.41746  25386840.525   103954837.94547
  21984389.119   115528732.91948  21984385.039    90022376.41449
  23620145.795   124124693.02047  23620145.666    96720532.64148
  24407646.182   128263046.76548  24407646.139    99945221.06148
  23389173.082   122910931.44047  23389172.623    95774742.32948
 06  4 25 14 20  0.0000000  0 11G 2G 4G 5G 6G10G13G20G23G24G25G30
  20430027.140   107360531.46249  20430023.319    83657529.13549
  21132414.464   111051575.95349  21132412.814    86533690.57349
  25028394.969   131525102.16045  25028395.319   102487079.15147
  23720019.104   124649566.79946  23720019.961    97129530.62048
  23801193.229   125076115.08347  23801192.581    97461908.08848
  21354036.201   112216223.79049  21354033.879    87441204.06849
  25409137.217   133525883.95947  25409137.263   104046139.70047
  21993008.971   115574030.42348  21993004.832    90057673.15049
  23639673.214   124227310.32947  23639673.400    96800494.13448
  24419425.902   128324949.98947  24419425.792    99993457.45648
  23401680.558   122976657.48347  23401679.908    95825957.38448
 06  4 25 14 20 30.0000000  0 11G 2G 4G 5G 6G10G13G20G23G24G25G30
  20426792.511   107343532.96949  20426788.583    83644283.55449
  21144112.316   111113048.36149  21144110.761    86581591.14949
  25047917.622   131627694.36046  25047918.141   102567021.06347
  23703819.814   124564438.45946  23703820.443    97063196.86748
  23779283.872   124960980.54147  23779283.267    97372192.92348
  21348351.601   112186350.95149  21348349.321    87417926.53449
  25431449.798   133643136.99047  25431449.815   104137505.68647
  22001747.203   115619950.11148  22001743.038    90093454.70449
  23659242.139   124330145.31747  23659242.606    96880625.23248
  24431294.734   128387321.14948  24431294.426   100042058.43548
  23414291.349   123042927.04347  23414290.765    95877596.01448
 06  4 25 14 21  0.0000000  0 11G 2G 4G 5G 6G10G13G20G23G24G25G30
  20423622.064   107326871.81349  20423618.010    83631300.83849
  21155846.623   111174712.34049  21155845.223    86629640.99749
  25067425.753   131730209.94046  25067426.339   102646903.27948
  23687634.377   124479382.72446  23687634.683    96996919.66748
  23757356.432   124845751.41047  23757355.784    97282404.07548
  21342738.638   112156854.53949  21342736.375    87394942.33449
  25453719.510   133760165.23646  25453719.545   104228696.47347
  22010545.304   115666184.10149  22010541.059    90129481.19349
  23678794.010   124432890.25347  23678794.605    96960686.14748
  24443194.014   128449852.44447  24443193.567   100090784.14748
  23426946.627   123109431.10447  23426946.386    95929417.29348
 06  4 25 14 21 30.0000000  0 11G 2G 4G 5G 6G10G13G20G23G24G25G30
  20420633.718   107311167.85649  20420629.546    83619063.98349
  21167734.880   111237185.24249  21167733.565    86678321.17649
  25087036.354   131833264.90446  25087037.037   102727205.87248
  23671580.957   124395020.68446  23671581.071    96931182.96248
  23735529.238   124731048.85646  23735528.526    97193025.44848
  21337315.259   112128354.46049  21337313.050    87372734.47449
  25476063.890   133877585.49646  25476064.003   104320192.73347
  22019520.658   115713349.58949  22019516.392    90166233.49249
  23698446.076   124536162.46247  23698446.890    97041157.93848
  24455241.215   128513160.50847  24455240.703   100140115.02848
  23439763.873   123176786.18446  23439763.923    95981901.55948
 06  4 25 14 22  0.0000000  0 11G 2G 4G 5G 6G10G13G20G23G24G25G30
  20417711.024   107295808.83849  20417706.750    83607095.90649
  21179660.046   111299852.28649  21179658.771    86727152.61849
  25106632.490   131936243.07646  25106633.238   102807448.54048
  23655543.345   124310742.11746  23655543.417    96865511.29548
  23713685.797   124616262.14247  23713685.185    97103581.30348
  21331964.936   112100238.57348  21331962.834    87350826.01849
  25498365.959   133994783.00446  25498365.921   104411515.36047
  22028556.295   115760832.09149  22028552.061    90203232.83049
  23718081.567   124639347.28947  23718082.530    97121561.60348
  24467319.272   128576630.56647  24467318.887   100189572.08048
  23452625.898   123244377.36546  23452626.053    96034570.04848
 06  4 25 14 22 30.0000000  0 11G 2G 4G 5G 6G10G13G20G23G24G25G30
  20414971.403   107281412.00349  20414967.130    83595877.58749
  21191739.068   111363328.31649  21191737.776    86776614.47149
  25126330.795   132039758.05446  25126331.483   102888109.52648
  23639639.498   124227165.49547  23639639.505    96800386.49948
  23691944.147   124502009.84447  23691943.660    97014553.58148
  21326805.283   112073124.25449  21326803.250    87329697.97449
  25520742.568   134112372.50646  25520742.487   104503143.46947
  22037769.153   115809246.10748  22037764.964    90240958.03549
  23737817.349   124743059.52247  23737818.443    97202376.27248
  24479545.064   128640877.31847  24479544.709   100239634.43648
  23465649.822   123312818.54347  23465649.992    96087900.90448
 06  4 25 14 23  0.0000000  0 11G 2G 4G 5G 6G10G13G20G23G24G25G30
  20412269.189   107267211.89449  20412265.039    83584812.57349
  21203826.027   111426846.09348  21203824.762    86826108.81149
  25145984.847   132143040.64046  25145985.489   102968589.46048
  23623723.877   124143527.46747  23623723.703    96735213.97848
  23670158.817   124387527.97247  23670158.464    96925346.96848
  21321690.565   112046246.23049  21321688.594    87308754.06549
  25543047.623   134229586.17046  25543047.428   104594478.75247
  22047013.184   115857824.16649  22047009.046    90278811.06649
  23757507.480   124846531.11147  23757508.481    97283003.43848
  24491772.346   128705132.49447  24491772.060   100289703.48548
  23478689.024   123381340.54547  23478689.415    96141294.72048
 06  4 25 14 23 30.0000000  0 11G 2G 4G 5G 6G10G13G20G23G24G25G30
  20409722.467   107253828.87349  20409718.489    83574384.24949
  21216038.454   111491023.17248  21216037.190    86876116.91449
  25165711.959   132246707.53146  25165712.664   103049368.78448
  23607914.812   124060449.92547  23607914.549    96670478.29248
  23648448.126   124273438.18047  23648447.835    96836445.88748
  21316738.913   112020224.97049  21316736.906    87288477.76049
  25565398.793   134347041.67845  25565398.605   104686002.39946
  22056405.922   115907183.68048  22056401.815    90317273.00849
  23777269.429   124950380.16247  23777270.341    97363924.73248
  24504118.719   128770013.27346  24504118.461   100340259.96648
  23491860.929   123450559.96946  23491861.729    96195231.80248
 06  4 25 14 24  0.0000000  0 11G 2G 4G 5G 6G10G13G20G23G24G25G30
  20407302.133   107241109.96649  20407298.324    83564473.42049
  21228346.934   111555704.63948  21228345.600    86926518.04449
  25185482.575   132350602.28647  25185483.122   103130325.66248
  23592183.594   123977781.66047  23592183.450    96606061.41548
  23626783.321   124159589.23347  23626783.036    96747732.46848
  21311921.205   111994907.83849  21311919.172    87268750.13549
  25587766.330   134464583.65746  25587766.380   104777593.44947
  22065917.892   115957169.76448  22065913.806    90356223.17949
  23797073.685   125054451.16847  23797074.413    97445018.97148
  24516554.615   128835363.97446  24516554.408   100391182.43548
  23505136.020   123520321.76146  23505137.117    96249591.64148
 06  4 25 14 24 30.0000000  0 11G 2G 4G 5G 6G10G13G20G23G24G25G30
  20404979.367   107228903.62049  20404975.614    83554961.97149
  21240722.144   111620736.86948  21240720.765    86977192.49849
  25205266.992   132454569.94347  25205267.584   103211339.32148
  23576501.738   123895373.64047  23576501.760    96541847.61348
  23605135.882   124045831.26847  23605135.557    96659089.94348
  21307208.773   111970143.83849  21307206.680    87249453.51549
  25610121.297   134582058.89345  25610121.190   104869132.53546
  22075519.749   116007628.32948  22075515.817    90395541.52749
  23816890.778   125158590.47647  23816891.480    97526166.42448
  24529050.635   128901030.81847  24529050.482   100442351.26848
  23518484.956   123590470.92246  23518486.095    96304253.37848
 06  4 25 14 25  0.0000000  0 11G 2G 4G 5G 6G10G13G20G23G24G25G30
  20402754.406   107217211.30849  20402750.605    83545851.08649
  21253163.981   111686119.07048  21253162.534    87028139.65049
  25225064.890   132558608.29047  25225065.380   103292408.11048
  23560870.068   123813227.75247  23560870.301    96477837.74348
  23583506.293   123932167.26247  23583505.996    96570520.60148
  21302601.815   111945934.39249  21302599.742    87230589.03149
  25632463.261   134699465.98844
  22085211.360   116058558.40048  22085207.702    90435227.27249
  23836720.771   125262797.17147  23836721.327    97607366.39348
  24541606.477   128967012.58647  24541606.450   100493765.60647
  23531907.265   123661005.53946  23531908.415    96359215.44248
 06  4 25 14 25 30.0000000  0 12G 2G 4G 5G 6G10G13G16G20G23G24G25G30
  20400686.007   107206341.70849  20400682.090    83537381.26949
  21265730.616   111752157.15048  21265729.162    87079597.88849
  25244934.289   132663022.21747  25244934.691   103373769.55648
  23545347.301   123731655.15547  23545347.643    96414274.77448
  23561953.682   123818907.15347  23561953.136    96482265.99148
  21298159.111   111922588.04249  21298157.060    87212397.05249
  25685683.717   134979178.46644
  25654850.365   134817111.23444
  22095050.870   116110265.97148  22095047.605    90475518.83949
  23856621.775   125367377.18147  23856622.169    97688857.26548
  24554280.349   129033615.07947  24554280.331   100545663.81348
  23545460.952   123732230.83146  23545461.968    96414715.72748
 06  4 25 14 26  0.0000000  0 12G 2G 4G 5G 6G10G13G16G20G23G24G25G30
  20398715.730   107195987.58249  20398711.664    83529313.10949
  21278363.184   111818541.71349  21278361.737    87131326.11049
  25264815.946   132767500.84347  25264816.388   103455181.43948
  23529875.277   123650350.18147  23529875.599    96350920.49548
  23540419.805   123705745.08447  23540418.844    96394087.78948
  21293822.071   111899797.05649  21293820.037    87194637.85649
  25667249.533   134882305.89345
  25677224.260   134934685.15644
  22104979.419   116162441.31748  22104976.441    90516174.92149
  23876534.902   125472021.09148  23876535.217    97770397.90048
  24567013.435   129100527.70847  24567013.286   100597803.53948
  23559086.949   123803835.93246  23559087.616    96470511.91348
 06  4 25 14 26 30.0000000  0 11G 2G 4G 5G 6G10G13G16G23G24G25G30
  20396873.058   107186304.33749  20396868.911    83521767.72049
  21291090.881   111885426.14948  21291089.465    87183443.84149
  25284738.902   132872196.36648  25284739.330   103536762.33748
  23514484.135   123569469.49847  23514484.359    96287896.53348
  23518934.546   123592838.31647  23518933.262    96306108.51548
  21289620.625   111877718.40549  21289618.615    87177433.70849
  25648870.139   134785722.77945
  22115026.282   116215237.99848  22115023.391    90557315.15749
  23896489.269   125576882.14947  23896489.616    97852107.73348
  24579834.672   129167903.66947  24579834.476   100650304.26548
  23572814.305   123875973.51646  23572814.596    96526722.94848
 06  4 25 14 27  0.0000000  0 11G 2G 4G 5G 6G10G13G16G23G24G25G30
  20395158.083   107177292.30049  20395153.957    83514745.36349
  21303913.391   111952808.76849  21303912.056    87235949.76849
  25304702.494   132977105.62948  25304702.866   103618509.77148
  23499174.408   123489016.15247  23499174.405    96225205.55248
  23497498.201   123480189.12547  23497496.859    96218329.96648
  21285554.743   111856352.26649  21285552.753    87160784.77349
  25630546.778   134689431.77245
  22125190.930   116268653.52448  22125188.007    90598937.62449
  23916484.697   125681958.89647  23916485.083    97933985.70448
  24592743.714   129235740.67247  24592743.519   100703164.17148
  23586642.518   123948640.95347  23586642.537    96583346.86848
 06  4 25 14 27 30.0000000  0 11G 2G 4G 5G 6G10G13G16G23G24G25G30
  20393542.054   107168800.19949  20393538.016    83508128.13649
  21316801.418   112020535.74948  21316800.179    87288724.04249
  25324677.257   133082073.62348  25324677.652   103700302.93148
  23483917.461   123408840.01046  23483917.186    96162730.54148
  23476082.247   123367647.12147  23476081.028    96130634.93948
  21281595.590   111835546.99649  21281593.527    87144572.90449
  25612250.312   134593284.28946  25612251.470   104877900.98646
  22135444.110   116322533.97548  22135441.103    90640922.36949
  23936491.799   125787096.96247  23936492.314    98015911.40648
  24605711.136   129303884.59047  24605710.841   100756263.34147
  23600541.951   124021683.21647  23600541.875    96640262.92648
 06  4 25 14 28  0.0000000  0 11G 2G 4G 5G 6G10G13G16G23G24G25G30
  20392054.184   107160981.42049  20392050.212    83502035.57949
  21329783.818   112088758.56349  21329782.683    87341884.66349
  25344691.802   133187250.48547  25344692.202   103782258.85748
  23468742.923   123329096.71346  23468742.478    96100592.80448
  23454716.104   123255367.71947  23454715.199    96043144.53348
  21277772.487   111815456.61149  21277770.368    87128918.05149
  25594010.815   134497435.96045  25594011.668   104803214.08047
  22145814.554   116377030.58948  22145811.473    90683387.23649
  23956539.422   125892447.74347  23956539.822    98098002.85348
  24618765.639   129372486.37847  24618765.319   100809719.30848
  23614541.452   124095251.18647  23614541.334    96697588.68148
 06  4 25 14 28 30.0000000  0 11G 2G 4G 5G 6G10G13G16G23G24G25G30
  20390665.687   107153684.60149  20390661.710    83496349.73849
  21342831.434   112157324.02949  21342830.397    87395312.27449
  25364716.746   133292481.74547  25364717.089   103864257.14048
  23453622.246   123249637.24046  23453621.836    96038676.33348
  23433371.629   123143201.53046  23433370.842    95955742.33748
  21274056.710   111795929.85349  21274054.525    87113702.38949
  25575799.870   134401737.04746  25575800.681   104728643.47347
  22156273.072   116431989.78248  22156269.786    90726212.56249
  23976598.334   125997858.13047  23976598.413    98180140.77348
  24631878.098   129441391.93947  24631877.732   100863411.85548
  23628611.540   124169190.12247  23628611.442    96755203.45448
 06  4 25 14 29  0.0000000  0 11G 2G 4G 5G 6G10G13G16G23G24G25G30
  20389435.752   107147220.99949  20389431.727    83491313.16449
  21356002.977   112226540.76849  21356001.922    87449247.37549
  25384810.486   133398075.03147  25384810.910   103946537.57348
  23438615.084   123170774.19346  23438614.755    95977224.65648
  23412108.071   123031461.30847  23412107.449    95868672.07648
  21270507.366   111777277.82849  21270505.162    87099168.34349
  25557677.255   134306501.40746  25557678.028   104654433.74147
  22166878.363   116487720.37148  22166874.871    90769638.95649
  23996727.373   126103636.75447  23996727.148    98262565.60948
  24645107.006   129510909.88347  24645106.644   100917581.66347
  23642810.964   124243807.50347  23642810.824    96813346.77048
 06  4 25 14 29 30.0000000  0 11G 2G 4G 5G 6G10G13G16G23G24G25G30
  20388247.668   107140977.48449  20388243.583    83486448.09949
  21369181.316   112295793.18749  21369180.128    87503210.30149
  25404855.739   133503413.35847  25404856.239   104028619.34348
  23423605.024   123091895.85846  23423604.868    95915761.02248
  23390809.207   122919535.18047  23390808.585    95781456.94548
  21267007.762   111758887.34849  21267005.558    87084838.11049
  25539526.386   134211118.44646  25539527.098   104580109.46647
  22177513.173   116543605.92548  22177509.433    90813186.11749
  24016809.351   126209168.07447  24016808.936    98344797.76547
  24658335.150   129580423.87447  24658334.731   100971748.31148
  23657022.280   124318487.41046  23657022.052    96871538.81048
 06  4 25 14 30  0.0000000  0 11G 2G 4G 5G 6G10G13G16G23G24G25G30
  20387219.633   107135574.80649  20387215.522    83482238.20449
  21382484.168   112365700.17649  21382482.896    87557683.28649
  25424970.020   133609114.33847  25424970.595   104110983.64348
  23408710.543   123013625.92646  23408710.302    95854771.76348
  23369593.296   122808045.81547  23369592.695    95694582.17348
  21263676.097   111741379.48849  21263673.914    87071195.61649
  25521466.074   134116211.17946  25521466.825   104506155.79147
  22188295.280   116600265.84048  22188291.346    90857336.68649
  24036962.089   126315070.92847  24036961.511    98427319.41248
  24671680.246   129650552.94947  24671679.645   101026394.44047
  23671362.893   124393847.40747  23671362.651    96930260.88448
 06  4 25 14 30 30.0000000  0 11G 2G 4G 5G 6G10G13G16G23G24G25G30
  20386351.609   107131013.56249  20386347.583    83478684.01249
  21395911.287   112436260.28749  21395909.972    87612665.16949
  25445152.819   133715175.69247  25445153.483   104193628.82048
  23393932.229   122935965.98546  23393931.893    95794257.61948
  23348461.185   122696995.91447  23348460.422    95608049.82648
  21260512.550   111724755.02949  21260510.416    87058241.46749
  25503496.864   134021782.53146  25503497.612   104432575.05747
  22199224.358   116657698.12548  22199220.144    90902089.10049
  24057185.181   126421343.74447  24057184.611    98510129.34448
  24685141.905   129721294.53946  24685141.013   101081517.83547
  23685832.385   124469885.16047  23685832.253    96989511.20348
 06  4 25 14 31  0.0000000  0 11G 2G 4G 5G 6G10G13G16G23G24G25G30
  20385586.212   107126991.74649  20385582.317    83475550.12949
  21409404.805   112507169.61149  21409403.527    87667919.17849
  25465346.046   133821291.97147  25465346.696   104276316.86948
  23379213.132   122858615.76746  23379212.617    95733984.58148
  23327355.501   122586085.17147  23327354.791    95521625.92248
  21257459.661   111708712.05149  21257457.575    87045740.46649
  25485561.733   133927532.81346  25485562.482   104359133.69948
  22210242.470   116715598.38248  22210237.962    90947206.18949
  24077420.742   126527682.52147  24077420.328    98592990.66048
  24698662.215   129792344.06046  24698660.872   101136881.11647
  23700372.721   124546295.23747  23700372.823    97049051.50248
 06  4 25 14 31 30.0000000  0 11G 2G 4G 5G 6G10G13G16G23G24G25G30
  20384895.212   107123360.64649  20384891.401    83472720.69249
  21422936.056   112578277.18848  21422934.881    87723327.68749
  25485520.796   133927311.15447  25485521.498   104358929.28248
  23364525.084   122781428.86846  23364524.512    95673838.71848
  23306248.400   122475166.57547  23306247.712    95435195.86848
  21254489.076   111693101.89849  21254487.104    87033576.73049
  25467632.915   133833315.98846  25467633.673   104285717.91148
  22221320.818   116773815.30848  22221316.155    90992570.03849
  24097640.267   126633936.59447  24097640.180    98675785.94948
  24712212.377   129863550.11146  24712210.731   101192366.21447
  23714955.038   124622925.89147  23714955.246    97108763.67848
 06  4 25 14 32  0.0000000  0 11G 2G 4G 5G 6G10G13G16G23G24G25G30
  20384367.373   107120586.67449  20384363.548    83470559.15849
  21436593.434   112650047.25948  21436592.404    87779252.39849
  25505765.253   134033696.18146  25505765.908   104441826.66148
  23349957.227   122704873.94946  23349956.667    95614185.42048
  23285228.792   122364708.26146  23285228.240    95349124.48848
  21251689.736   111678391.26949  21251687.869    87022113.89449
  25449799.549   133739601.11347  25449800.323   104212693.35548
  22232547.761   116832813.04148  22232543.095    91038542.29549
  24117932.006   126740570.24747  24117932.314    98758877.03448
  24725880.558   129935377.20046  24725878.448   101248335.41747
  23729667.527   124700240.26447  23729667.749    97169008.60848
 06  4 25 14 32 30.0000000  0 11G 2G 4G 5G 6G10G13G16G23G24G25G30
  20383915.598   107118212.39249  20383911.796    83468709.06049
  21450289.467   112722020.39748  21450288.593    87835335.34549
  25525991.723   134139986.59347  25525992.323   104524650.32448
  23335422.959   122628495.66747  23335422.446    95554669.77848
  23264209.994   122254255.01246  23264209.676    95263057.04448
  21248974.475   111664122.41449  21248972.656    87010995.32749
  25431975.126   133645933.07147  25431975.880   104139705.26948
  22243835.761   116892131.78848  22243831.221    91084764.68849
  24138208.483   126847123.94647  24138209.222    98841905.83048
  24739579.236   130007364.39646  24739576.479   101304429.28248
  23744422.460   124777778.11647  23744422.685    97229427.69648
 06  4 25 14 33  0.0000000  0 11G 2G 4G 5G 6G10G13G16G23G24G25G30
  20383599.787   107116552.67349  20383596.007    83467415.77049
  21464083.710   112794509.44448  21464082.956    87891820.29849
  25546259.444   134246493.99947  25546259.960   104607643.12948
  23320982.467   122552610.93346  23320981.966    95495538.92748
  23243252.406   122144123.20547  23243252.089    95177240.10448
  21246403.269   111650610.66449  21246401.542    87000466.67149
  25414219.970   133552629.28447  25414220.685   104067001.05948
  22255244.264   116952083.74948  22255239.912    91131480.46649
  24158529.400   126953910.58347  24158530.394    98925116.07248
  24753368.128   130079824.25946  24753365.214   101360891.22247
  23759279.321   124855850.94647  23759279.460    97290263.52148
 06  4 25 14 33 30.0000000  0 11G 2G 4G 5G 6G10G13G16G23G24G25G30
  20383450.099   107115766.11949  20383446.383    83466802.86649
  21478005.895   112867670.83548  21478005.265    87948829.14149
  25566598.037   134353373.93247  25566598.502   104690926.15248
  23306666.393   122477379.98946  23306665.981    95436917.51648
  23222386.637   122034473.44547  23222386.139    95091798.74648
  21244006.392   111638014.83549  21244004.628    86990651.74249
  25396564.818   133459850.74147  25396565.488   103994706.07348
  22266802.924   117012825.70248  22266798.925    91178811.84749
  24178924.374   127061086.92846  24178925.492    99008630.05548
  24767276.418   130152914.25646  24767273.804   101417844.82447
  23774267.586   124934614.49647  23774267.592    97351637.63448
 06  4 25 14 34  0.0000000  0 11G 2G 4G 5G 6G10G13G16G23G24G25G30
  20383350.349   107115241.86649  20383346.666    83466394.35449
  21491939.443   112940892.03149  21491938.812    88005884.62249
  25586890.703   134460012.36247  25586891.117   104774020.98948
  23292358.976   122402193.84546  23292358.696    95378330.89048
  23201496.846   121924696.63047  23201496.005    95006258.38848
  21241667.542   111625723.90649  21241665.638    86981074.40849
  25378893.894   133366989.22147  25378894.534   103922346.40948
  22278395.218   117073744.24148  22278391.523    91226280.81849
  24199276.812   127168039.86847  24199278.002    99091969.96548
  24781187.932   130226018.88246  24781185.832   101474809.34648
  23789270.417   125013454.65747  23789270.403    97413071.51248
 06  4 25 14 34 30.0000000  0 11G 2G 4G 5G 6G10G13G16G23G24G25G30
  20383418.748   107115601.42849  20383415.128    83466674.53749
  21506002.153   113014791.97548  21506001.431    88063468.97949
  25607255.017   134567027.49047  25607255.461   104857409.35448
  23278178.742   122327675.59247  23278178.664    95320264.49648
  23180701.502   121815415.92547  23180700.446    94921104.64348
  21239504.940   111614359.26549  21239502.895    86972218.83449
  25361325.918   133274668.72747  25361326.524   103850408.31148
  22290138.927   117135458.40948  22290135.501    91274369.75849
  24219704.630   127275388.61846  24219705.845    99175618.22448
  24795220.119   130299757.61646  24795218.358   101532267.88047
  23804405.442   125092990.02947  23804405.539    97475047.17448
 06  4 25 14 35  0.0000000  0 11G 2G 4G 5G 6G10G13G16G23G24G25G30
  20383568.126   107116386.54049  20383564.580    83467286.30049
  21520106.487   113088910.81648  21520105.640    88121223.91749
  25627603.285   134673958.26746  25627603.742   104940732.00648
  23264038.760   122253370.63946  23264038.782    95262364.73248
  23159913.794   121706175.62447  23159912.812    94835982.35148
  21237431.440   111603462.98049  21237429.332    86963728.22149
  25343774.267   133182433.33947  25343774.859   103778536.36548
  22301946.391   117197507.55248  22301943.145    91322719.71149
  24240120.406   127382673.62247  24240121.522    99259216.85248
  24809285.314   130373670.58546  24809283.958   101589862.31947
  23819584.999   125172759.07847  23819585.185    97537204.85148
 06  4 25 14 35 30.0000000  0 11G 2G 4G 5G 6G10G13G16G23G24G25G30
  20383799.373   107117601.75149  20383795.858    83468233.22049
  21534252.982   113163250.92748  21534251.949    88179151.25349
  25647935.822   134780806.06447  25647936.327   105023989.91847
  23249940.560   122179284.03746  23249940.614    95204634.83948
  23139134.906   121596981.95647  23139134.146    94750896.40648
  21235447.943   111593039.56949  21235445.848    86955606.06049
  25326240.007   133090291.39847  25326240.469   103706737.74948
  22313818.089   117259894.02748  22313814.973    91371332.51649
  24260524.554   127489897.45547  24260525.678    99342767.83348
  24823384.015   130447759.41946  24823383.051   101647593.80847
  23834809.378   125252763.51047  23834809.477    97599545.93948
 06  4 25 14 36  0.0000000  0 11G 2G 4G 5G 6G10G13G16G23G24G25G30
  20384230.628   107119868.17049  20384227.180    83469999.25649
  21548559.461   113238431.67248  21548558.250    88237733.62949
  25668370.146   134888189.13446  25668370.590   105107665.05847
  23236002.540   122106039.65046  23236002.581    95147561.30048
  23118483.448   121488457.93648  23118482.848    94666332.29448
  21233672.583   111583710.08249  21233670.599    86948336.33749
  25308842.120   132998865.57247  25308842.484   103635497.00348
  22325871.790   117323236.53148  22325868.694    91420690.27148
  24281034.817   127597678.83447  24281035.958    99426753.25048
  24837633.919   130522642.48046  24837633.208   101705944.07247
  23850196.085   125333620.85747  23850196.106    97662551.54948
 06  4 25 14 36 30.0000000  0 11G 2G 4G 5G 6G10G13G16G23G24G25G30
  20384745.580   107122574.35149  20384742.153    83472107.98349
  21562909.154   113313839.16149  21562907.663    88296492.70249
  25688789.447   134995492.40646  25688789.788   105191277.88647
  23222108.777   122033027.83946  23222108.807    95090668.99348
  23097843.507   121379994.03447  23097843.006    94581814.99948
  21231989.013   111574863.14249  21231987.253    86941442.63349
  25291464.675   132907546.79347  25291464.941   103564339.58748
  22337990.578   117386921.15748  22337987.547    91470314.63749
  24301534.476   127705404.64347  24301535.654    99510695.36248
  24851918.068   130597706.12746  24851917.358   101764435.18147
  23865628.209   125414717.59548  23865628.076    97725743.91748
 06  4 25 14 37  0.0000000  0 11G 2G 4G 5G 6G10G13G16G23G24G25G30
  20385403.585   107126032.06849  20385400.109    83474802.30049
  21577360.962   113389783.64049  21577359.332    88355670.21449
  25709252.332   135103025.46746  25709252.589   105275069.88747
  23208319.015   121960562.56147  23208318.981    95034202.64948
  23077274.799   121271904.11747  23077274.319    94497589.10048
  21230456.700   111566810.91149  21230455.172    86935168.17149
  25274167.599   132816650.29547  25274167.799   103493511.18548
  22350233.499   117451257.64248  22350230.394    91520446.95549
  24322082.469   127813384.82547  24322083.646    99594835.67348
  24866295.352   130673259.92347  24866294.502   101823308.40547
  23881164.618   125496361.81648  23881164.520    97789362.83948
 06  4 25 14 37 30.0000000  0 11G 2G 4G 5G 6G10G13G16G23G24G25G30
  20386175.657   107130089.08249  20386172.056    83477963.60349
  21591885.590   113466110.79549  21591883.953    88415145.89149
  25729729.381   135210633.18145  25729729.596   105358920.05647
  23194604.691   121888494.29946  23194604.609    94978045.77548
  23056748.685   121164038.12847  23056748.165    94413537.71448
  21229046.585   111559400.89449  21229045.289    86929394.12449
  25256922.252   132726026.26347  25256921.995   103422895.12447
  22362571.100   117516091.48848  22362567.822    91570966.81449
  24342649.628   127921465.37947  24342650.661    99679054.19148
  24880736.578   130749148.61046  24880735.637   101882442.34347
  23896775.722   125578398.40848  23896775.493    97853287.47648
 06  4 25 14 38  0.0000000  0 11G 2G 4G 5G 6G10G13G16G23G24G25G30
  20387004.120   107134442.28249  20387000.338    83481355.72049
  21606424.917   113542515.69649  21606423.435    88474682.17149
  25750162.366   135318009.21045  25750162.486   105442589.73247
  23180908.685   121816521.08346  23180908.468    94921962.77248
  23036207.683   121056094.90747  23036207.094    94329426.14848
  21227701.068   111552330.02649  21227699.864    86923884.33549
  25239671.563   132635374.56047  25239670.949   103352257.66348
  22374945.234   117581117.22048  22374941.751    91621636.20249
  24363177.857   128029341.48547  24363178.847    99763113.36748
  24895183.322   130825066.88446  24895182.337   101941599.29247
  23912403.247   125660521.32647  23912402.938    97917279.34748
 06  4 25 14 38 30.0000000  0 11G 2G 4G 5G 6G10G13G16G23G24G25G30
  20388036.267   107139865.74649  20388032.386    83485581.78449
  21621125.962   113619770.36548  21621124.671    88534880.58849
  25770698.007   135425924.67145  25770698.236   105526679.69646
  23167378.474   121745419.28246  23167378.117    94866558.80948
  23015799.672   120948850.52248  23015798.891    94245859.12448
  21226567.357   111546372.30549  21226566.050    86919241.99249
  25222563.305   132545471.46347  25222562.549   103282203.53047
  22387502.589   117647106.37548  22387498.998    91673056.31449
  24383814.098   128137785.22347  24383814.987    99847614.88248
  24909782.694   130901786.26146  24909781.564   102001380.43347
  23928193.826   125743501.25448  23928193.488    97981939.00948
 06  4 25 14 39  0.0000000  0 11G 2G 4G 5G 6G10G13G16G23G24G25G30
  20389155.355   107145746.47249  20389151.453    83490164.17449
  21635871.665   113697260.08748  21635870.555    88595262.17349
  25791219.223   135533764.04545  25791219.472   105610710.35346
  23153897.930   121674578.45347  23153897.502    94811358.13348
  22995408.539   120841694.30047  22995407.535    94162360.77548
  21225528.926   111540915.06549  21225527.452    86914989.57749
  25205481.600   132455707.02947  25205480.742   103212257.38647
  22400126.240   117713443.92148  22400122.498    91724747.87349
  24404441.451   128246182.32147  24404442.111    99932080.09947
  24924417.329   130978692.28246  24924416.180   102061307.26947
  23944030.288   125826722.64347  23944030.023    98046786.81448
 06  4 25 14 39 30.0000000  0 11G 2G 4G 5G 6G10G13G16G23G24G25G30
  20390362.302   107152089.11349  20390358.440    83495106.49349
  21650662.647   113774987.56549  21650661.630    88655829.03049
  25811726.327   135641529.10345  25811726.519   105694683.06045
  23140468.380   121604005.28347  23140467.828    94756366.08048
  22975035.368   120734632.62748  22975034.287    94078936.13648
  21224586.612   111535962.73549  21224584.928    86911130.59849
  25188427.681   132366088.39347  25188426.861   103142424.78248
  22412816.541   117780132.02748  22412812.613    91776712.61648
  24425060.378   128354535.10647  24425060.793   100016510.74847
  24939087.762   131055786.61646  24939086.813   102121380.96847
  23959913.062   125910187.27947  23959912.774    98111824.18347
 06  4 25 14 40  0.0000000  0 11G 2G 4G 5G 6G10G13G16G23G24G25G30
  20391716.249   107159204.27949  20391712.417    83500650.77149
  21665557.491   113853261.34248  21665556.652    88716821.55949
  25832277.705   135749527.47845  25832277.776   105778837.64746
  23127149.206   121534012.17947  23127148.592    94701826.00548
  22954739.676   120627978.29548  22954738.728    93995828.87348
  21223799.385   111531825.76449  21223797.545    86907906.98949
  25171461.185   132276928.44847  25171460.501   103072949.37348
  22425632.276   117847479.07848  22425628.172    91829190.81349
  24445729.626   128463152.52247  24445729.763   100101147.66447
  24953852.662   131133376.81446  24953851.916   102181840.87547
  23975900.656   125994202.58947  23975900.287    98177290.62748
 06  4 25 14 40 30.0000000  0 11G 2G 4G 5G 6G10G13G16G23G24G25G30
  20393218.125   107167096.69149  20393214.248    83506800.70449
  21680556.941   113932084.64148  21680556.159    88778242.31549
  25852874.441   135857761.55644  25852875.814   105863175.76445
  23113941.784   121464606.70847  23113941.188    94647743.86148
  22934522.939   120521738.62648  22934522.065    93913044.76448
  21223168.346   111528509.31949  21223166.363    86905322.74849
  25154583.422   132188236.10947  25154583.004   103003838.65948
  22438573.841   117915488.08848  22438569.711    91882184.84449
  24466449.869   128572037.85147  24466449.856   100185993.32547
  24968712.641   131211465.87745  24968712.188   102242689.36247
  23991993.439   126078770.79848  23991992.897    98243187.98448
 06  4 25 14 41  0.0000000  0 11G 2G 4G 5G 6G10G13G16G23G24G25G30
  20394780.375   107175306.77849  20394776.458    83513198.19449
  21695573.209   114010995.97348  21695572.435    88839731.64449
  25873427.976   135965768.95844
  23100759.017   121395331.14247  23100758.369    94593762.98648
  22914297.966   120415456.01948  22914297.088    93830227.17848
  21222605.870   111525553.42649  21222603.832    86903019.46549
  25137707.702   132099553.63447  25137707.469   102934735.53848
  22451553.453   117983696.69148  22451549.349    91935334.38549
  24487133.260   128680729.68147  24487133.286   100270688.16847
  24983579.453   131289591.97244  24983579.319   102303566.87347
  24008103.315   126163428.89347  24008102.601    98309155.34247
 06  4 25 14 41 30.0000000  0 10G 2G 4G 6G10G13G16G23G24G25G30
  20396462.399   107184146.09049  20396458.400    83520085.96449
  21710665.259   114090304.98048  21710664.424    88901530.84849
  23087660.788   121326499.36048  23087659.942    94540127.99148
  22894124.544   120309444.15548  22894123.510    93747620.53148
  21222171.278   111523269.84649  21222169.317    86901240.04349
  25120893.752   132011195.82747  25120893.702   102865885.37847
  22464629.930   118052414.19848  22464625.821    91988880.47948
  24507838.793   128789538.14947  24507838.799   100355473.94047
  24998512.357   131368064.06645  24998512.300   102364713.87347
  24024289.073   126248485.84247  24024288.237    98375433.50647
 06  4 25 14 42  0.0000000  0 11G 2G 4G 6G10G13G16G23G24G25G27G30
  20398323.148   107193924.30049  20398319.023    83527705.34049
  21725891.658   114170319.65448  21725890.716    88963879.93549
  23074706.394   121258423.08848  23074705.441    94487081.56948
  22874061.971   120204015.15647  22874060.945    93665468.08648
  21221923.612   111521968.57249  21221921.719    86900226.07749
  25104201.064   131923475.31347  25104201.083   102797531.89348
  22477861.841   118121948.44948  22477857.761    92043062.99948
  24528625.236   128898771.17247  24528625.282   100440590.52047
  25013569.656   131447189.83046  25013569.574   102426370.20547
  25909654.141   136156145.36644
  24040609.147   126334248.68947  24040608.294    98442261.78648
 06  4 25 14 42 30.0000000  0 11G 2G 4G 6G10G13G16G23G24G25G27G30
  20400275.205   107204182.17749  20400270.983    83535698.47749
  21741164.628   114250578.83948  21741163.585    89026419.52949
  23061808.833   121190645.26047  23061807.774    94434267.65348
  22854023.325   120098711.79748  22854022.434    93583413.54648
  21221775.369   111521189.92649  21221773.553    86899619.36049
  25087542.718   131835935.70647  25087542.774   102729319.46648
  22491161.320   118191837.74948  22491157.454    92097522.17349
  24549404.754   129007967.93447  24549404.772   100525678.83847
  25028663.496   131526507.65146  25028663.221   102488176.28847
  25890778.947   136056957.05244  25890784.533   106018434.94446
  24056975.630   126420254.82547  24056974.833    98509279.58647
 06  4 25 14 43  0.0000000  0 11G 2G 4G 6G10G13G16G23G24G25G27G30
  20402348.257   107215076.23449  20402344.076    83544187.35449
  21756513.578   114331237.55648  21756512.479    89089270.46849
  23048998.352   121123325.04147  23048997.182    94381810.32748
  22834038.964   119993693.17948  22834038.250    93501580.90549
  21221756.488   111521090.58049  21221754.706    86899541.90449
  25070949.189   131748735.75147  25070949.267   102661371.42548
  22504557.815   118262236.45948  22504554.184    92152378.29448
  24570206.867   129117283.49247  24570206.925   100610859.77247
  25043823.102   131606171.88746  25043822.734   102550252.27547
  25871913.528   135957815.16545  25871916.416   105941181.62646
  24073417.620   126506657.97247  24073416.752    98576606.68548
 06  4 25 14 43 30.0000000  0 11G 2G 4G 6G10G13G16G23G24G25G27G30
  20404513.371   107226453.85749  20404509.252    83553053.04349
  21771909.127   114412141.24148  21771908.006    89152312.29549
  23036246.177   121056311.65947  23036245.079    94329592.09548
  22814080.175   119888808.72248  22814079.757    93419852.77248
  21221837.741   111521517.81949  21221835.968    86899874.84649
  25054391.886   131661726.03847  25054391.877   102593571.58648
  22518021.769   118332989.73548  22518018.393    92207510.69849
  24591002.278   129226563.42647  24591002.396   100696012.90347
  25059019.205   131686027.29346  25059018.686   102612477.18847
  25853027.577   135858569.10545  25853029.470   105863847.11546
  24089905.702   126593302.86547  24089904.711    98644122.15248
 06  4 25 14 44  0.0000000  0 11G 2G 4G 6G10G13G16G23G24G25G27G30
  20406829.893   107238627.23249  20406825.925    83562538.77649
  21787410.243   114493599.87448  21787409.285    89215786.53449
  23023612.193   120989919.37947  23023611.196    94277857.86448
  22794206.707   119784372.66048  22794206.348    93338474.04949
  21222078.584   111522783.42449  21222076.843    86900861.00349
  25037930.624   131575221.39447  25037930.484   102526165.33748
  22531612.166   118404407.21948  22531608.878    92263160.65149
  24611849.844   129336117.93947  24611850.239   100781380.02647
  25074310.580   131766383.72946  25074309.979   102675092.57348
  25834181.574   135759533.34745  25834183.296   105786676.49747
  24106498.536   126680498.36347  24106497.504    98712066.68047
 06  4 25 14 44 30.0000000  0 11G 2G 4G 6G10G13G16G23G24G25G27G30
  20409269.132   107251445.64649  20409265.317    83572527.14849
  21802988.121   114575461.73948  21802987.367    89279574.95749
  23011068.138   120924000.48647  23011067.360    94226492.54648
  22774390.471   119680236.98348  22774389.816    93257329.38148
  21222450.385   111524737.19249  21222448.631    86902383.41349
  25021537.418   131489074.39047  25021537.262   102459037.61748
  22545299.960   118476336.69048  22545296.622    92319209.58249
  24632720.941   129445795.70347  24632721.734   100866843.11947
  25089668.342   131847088.68846  25089667.669   102737979.49447
  25815347.529   135660559.99445  25815349.126   105709554.46947
  24123167.083   126768091.32248  24123165.940    98780320.85648
 06  4 25 14 45  0.0000000  0 11G 2G 4G 6G10G13G16G23G24G25G27G30
  20411831.834   107264913.11049  20411828.187    83583021.26649
  21818643.087   114657729.02049  21818642.410    89343679.33449
  22998615.370   120858560.77947  22998614.916    94175500.49448
  22754632.459   119576407.99048  22754631.509    93176423.69848
  21222953.919   111527383.09549  21222952.153    86904445.15749
  25005213.774   131403292.24847  25005213.434   102392194.20848
  22559085.422   118548779.62348  22559081.904    92375658.59949
  24653615.788   129555598.64647  24653616.869   100952403.76947
  25105092.731   131928143.87146  25105092.080   102801139.28647
  25796526.583   135561655.59846  25796528.191   105632486.16747
  24139911.468   126856083.22447  24139910.181    98848885.94148
 06  4 25 14 45 30.0000000  0 11G 2G 4G 6G10G13G16G23G24G25G27G30
  20414460.066   107278724.65449  20414456.453    83593783.51149
  21834316.772   114740094.69649  21834316.045    89407860.34449
  22986196.180   120793297.68347  22986195.912    94124646.12648
  22734875.165   119472582.68148  22734873.863    93095520.88048
  21223531.034   111530416.00949  21223529.263    86906808.44949
  24988901.885   131317573.00847  24988901.467   102325399.92948
  22572910.012   118621428.67848  22572906.314    92432268.24649
  24674476.220   129665220.36347  24674477.492   101037823.21847
  25120525.205   132009241.97046  25120524.668   102864332.55848
  25777661.151   135462517.36346  25777662.686   105555235.67147
  24156673.063   126944165.93747  24156671.675    98917521.83347
 06  4 25 14 46  0.0000000  0 11G 2G 4G 6G10G13G16G23G24G25G27G30
  20417242.625   107293347.16549  20417239.017    83605177.67949
  21850097.691   114823024.38748  21850096.855    89472480.87249
  22973899.919   120728680.30347  22973899.751    94074294.83948
  22715207.912   119369230.75148  22715206.263    93014986.93848
  21224270.626   111534302.71449  21224268.745    86909837.03949
  24972691.410   131232386.26446  24972690.834   102259020.56748
  22586862.405   118694748.99948  22586858.495    92489400.94148
  24695390.791   129775126.58146  24695391.947   101123464.32147
  25136054.378   132090847.67346  25136053.938   102927921.29448
  25758840.633   135363615.06146  25758842.134   105478169.00247
  24173540.270   127032803.98747  24173538.760    98986590.47948
 06  4 25 14 46 30.0000000  0 11G 2G 4G 6G10G13G16G23G24G25G27G30
  20420121.536   107308475.97849  20420117.894    83616966.35649
  21865927.715   114906211.54048  21865926.611    89537302.01649
  22961668.977   120664406.92547  22961668.851    94024211.78348
  22695573.243   119266049.96848  22695571.634    92934586.32148
  21225114.753   111538738.47949  21225112.724    86913293.45749
  24956524.840   131147430.89247  24956524.145   102192821.67647
  22600884.125   118768433.73148  22600880.033    92546817.60748
  24716301.223   129885011.29947  24716302.153   101209088.71647
  25151621.797   132172654.32246  25151621.533   102991666.55348
  25740007.610   135264646.85846  25740009.049   105401050.94647
  24190454.687   127121689.60247  24190452.911    99055851.94148
 06  4 25 14 47  0.0000000  0 11G 2G 4G 6G10G13G16G23G24G25G27G30
  20423126.735   107324268.08949  20423122.964    83629271.89449
  21881836.323   114989811.55848  21881834.919    89602444.87949
  22949533.726   120600636.31147  22949533.524    93974520.55548
  22676001.433   119163199.59747  22675999.970    92854443.22148
  21226093.177   111543879.97149  21226091.006    86917299.83149
  24940432.700   131062866.69346  24940431.819   102126927.69948
  22615004.686   118842637.49748  22615000.449    92604638.69148
  24737237.106   129995029.76447  24737237.873   101294817.33147
  25167256.779   132254816.70746  25167256.715   103055689.10548
  25721192.333   135165772.16047  25721193.722   105324005.79747
  24207445.453   127210977.05347  24207443.643    99125426.58547
 06  4 25 14 47 30.0000000  0 11G 2G 4G 6G10G13G16G23G24G25G27G30
  20426287.989   107340880.40249  20426284.118    83642216.54149
  21897853.059   115073979.66749  21897851.453    89668030.40549
  22937524.494   120537527.52848  22937524.206    93925344.90648
  22656522.784   119060838.98148  22656521.272    92774681.74248
  21227235.875   111549884.32749  21227233.605    86921978.51849
  24924445.375   130978852.69946  24924444.319   102061462.33948
  22629253.474   118917515.50748  22629249.142    92662985.17848
  24758227.956   130105337.48746  24758228.809   101380771.32946
  25182988.928   132337489.64647  25182988.920   103120109.54248
  25702425.250   135067150.66147  25702426.603   105247157.92847
  24224542.117   127300820.87847  24224540.190    99195434.83647
 06  4 25 14 48  0.0000000  0 11G 2G 4G 6G10G13G16G23G24G25G27G30
  20429576.669   107358162.53449  20429572.753    83655683.14249
  21913948.879   115158563.55449  21913947.290    89733939.91949
  22925613.076   120474932.29248  22925612.619    93876569.35548
  22637109.176   118958819.68948  22637107.554    92695186.18649
  21228514.025   111556600.89549  21228511.718    86927212.21049
  24908534.764   130895241.50046  24908533.700   101996310.70147
  22643601.400   118992914.64948  22643597.144    92721737.75348
  24779244.910   130215782.60346  24779245.718   101466832.37247
  25198789.183   132420520.07846  25198789.118   103184808.45947
  25683678.149   134968634.22947  25683679.497   105170391.94347
  24241715.426   127391067.07047  24241713.698    99265756.51547
 06  4 25 14 48 30.0000000  0 11G 2G 4G 6G10G13G16G23G24G25G27G30
  20432934.539   107375808.32249  20432930.656    83669433.09849
  21930065.373   115243256.11549  21930063.933    89799934.09549
  22913741.689   120412547.91847  22913741.031    93827958.18648
  22617702.848   118856838.87248  22617701.302    92615720.67148
  21229869.560   111563724.00049  21229867.197    86932762.67049
  24892643.342   130811731.04446  24892642.282   101931237.56448
  22657989.969   119068527.30947  22657986.056    92780656.69349
  24800229.667   130326058.27746  24800230.606   101552761.42047
  25214598.783   132503600.52347  25214598.884   103249546.31247
  25664893.402   134869919.96646  25664894.718   105093471.82047
  24258906.800   127481408.00847  24258905.254    99336152.03147
 06  4 25 14 49  0.0000000  0 11G 2G 4G 6G10G13G16G23G24G25G27G30
  20436391.727   107393976.06449  20436387.908    83683589.77949
  21946232.315   115328213.81049  21946231.045    89866134.87549
  22901940.890   120350534.45847  22901940.117    93779636.01048
  22598334.446   118755057.10948  22598332.965    92536410.22748
  21231332.440   111571411.48749  21231330.041    86938752.92649
  24876801.770   130728482.67847  24876800.690   101866368.73848
  22672448.900   119144509.68948  22672445.463    92839863.70148
  24821212.060   130436320.96946  24821213.064   101638680.29446
  25230447.609   132586887.10646  25230447.810   103314444.79247
  25646101.681   134771169.05747  25646102.980   105016523.13648
  24276145.709   127571998.55647  24276144.315    99406741.98047
 06  4 25 14 49 30.0000000  0 11G 2G 4G 6G10G13G16G23G24G25G27G30
  20440007.342   107412976.03149  20440003.526    83698394.94549
  21962508.459   115413745.46349  21962507.321    89932782.90849
  22890270.164   120289204.50347  22890269.313    93731846.45548
  22579063.319   118653786.96148  22579061.945    92457498.43348
  21232961.691   111579973.35449  21232959.280    86945424.51349
  24861069.674   130645809.45746  24861068.548   101801948.02848
  22687036.791   119221169.79748  22687033.742    92899598.82948
  24842250.651   130546879.41745  24842251.874   101724829.64247
  25246394.374   132670688.10846  25246394.438   103379744.28748
  25627362.561   134672694.62847  25627363.850   104939789.90648
  24293490.572   127663146.52047  24293489.362    99477766.38947
 06  4 25 14 50  0.0000000  0 11G 2G 4G 6G10G13G16G23G24G25G27G30
  20443752.464   107432656.68349  20443748.644    83713730.51449
  21978864.631   115499697.72549  21978863.586    89999758.67249
  22878701.174   120228408.67647  22878700.358    93684472.98848
  22559861.177   118552879.40248  22559859.814    92378869.19848
  21234728.653   111589258.54949  21234726.289    86952659.71549
  24845418.686   130563562.61246  24845417.562   101737859.51047
  22701724.451   119298354.03048  22701721.530    92959742.36748
  24863316.354   130657581.02845  24863317.941   101811090.57247
  25262409.674   132754849.42346  25262409.683   103445324.47847
  25608647.675   134574347.36847  25608648.939   104863155.72348
  24310912.090   127754697.36847  24310910.984    99549104.64647
 06  4 25 14 50 30.0000000  0 11G 2G 4G 6G10G13G16G23G24G25G27G30
  20447568.679   107452711.09049  20447564.832    83729357.32349
  21995242.105   115585762.15448  21995241.183    90066821.85349
  22867176.032   120167842.58347  22867175.182    93637278.47448
  22540670.188   118452030.04148  22540668.775    92300285.28848
  21236574.694   111598959.55849  21236572.449    86960218.92849
  24829790.863   130481438.47546  24829789.917   101673866.70048
  22716452.943   119375753.09348  22716450.001    93020053.33748
  24884350.917   130768117.68345  24884352.491   101897222.94546
  25278434.865   132839062.30646  25278434.675   103510944.82947
  25589899.148   134475823.47246  25589900.403   104786383.91847
  24328351.414   127846342.13647  24328350.205    99620516.15247
 06  4 25 14 51  0.0000000  0 11G 2G 4G 6G10G13G16G23G24G25G27G30
  20451544.687   107473605.03149  20451540.753    83745638.30249
  22011729.291   115672402.99148  22011728.412    90134334.17249
  22855783.573   120107974.71147  22855782.748    93590628.14548
  22521579.355   118351707.41248  22521577.939    92222111.85249
  21238588.486   111609542.23349  21238586.268    86968465.18149
  24814275.809   130399906.28446  24814274.837   101610335.22648
  22731310.838   119453831.01548  22731307.654    93080893.25348
  24905442.600   130878953.91045  24905444.124   101983588.74946
  25294558.295   132923790.37646  25294557.926   103576966.53247
  25571206.210   134377591.76447  25571207.425   104709839.82748
  24345896.726   127938543.74647  24345895.337    99692361.56647
 06  4 25 14 51 30.0000000  0 11G 2G 4G 6G10G13G16G23G24G25G27G30
  20455622.218   107495032.66249  20455618.247    83762335.14849
  22028267.731   115759313.20549  22028266.810    90202056.39849
  22844466.235   120048502.10447  22844465.371    93544286.00148
  22502531.150   118251608.32748  22502529.725    92144112.59848
  21240711.904   111620700.74649  21240709.659    86977160.11149
  24798815.857   130318663.34546  24798814.872   101547029.03747
  22746239.508   119532280.45248  22746236.017    93142022.65449
  24926532.663   130989782.93845  24926534.376   102069948.93147
  25310721.098   133008726.22946  25310720.700   103643150.17047
  25552511.204   134279349.31447  25552512.389   104633287.37348
  24363489.389   128030993.84447  24363487.981    99764400.59747
 06  4 25 14 52  0.0000000  0 11G 2G 4G 6G10G13G16G23G24G25G27G30
  20459831.197   107517151.02949  20459827.241    83779570.24449
  22044886.970   115846648.02348  22044886.015    90270109.48449
  22833254.301   119989583.27948  22833253.426    93498375.27248
  22483555.849   118151892.16248  22483554.468    92066411.71849
  21242974.688   111632591.78749  21242972.397    86986425.86549
  24783441.380   130237869.48446  24783440.311   101484072.80947
  22761268.341   119611255.78748  22761264.527    93203561.86248
  24947650.955   131100760.18745  24947652.736   102156424.61547
  25326952.922   133094024.57246  25326952.538   103709616.23947
  25533844.575   134181255.79946  25533845.740   104556850.94447
  24381158.751   128123846.68746  24381157.437    99836753.43847
 06  4 25 14 52 30.0000000  0 11G 2G 4G 6G10G13G16G23G24G25G27G30
  20464142.656   107539807.73949  20464138.746    83797224.82349
  22061557.740   115934253.76148  22061556.769    90338373.68449
  22822119.177   119931068.61947  22822118.267    93452779.50548
  22464624.895   118052409.14248  22464623.650    91988892.49349
  21245347.833   111645062.65449  21245345.492    86996143.41949
  24768123.736   130157375.78346  24768122.709   101421350.63647
  22776367.833   119690602.83948  22776363.808    93265390.73648
  24968768.154   131211732.22345  24968769.937   102242896.24047
  25343224.273   133179531.28946  25343223.878   103776244.87848
  25515177.852   134083161.78447  25515178.995   104480414.11748
  24398875.288   128216947.37846  24398874.001    99909299.40347
 06  4 25 14 53  0.0000000  0 11G 2G 4G 6G10G13G16G23G24G25G27G30
  20468557.042   107563005.49649  20468553.213    83815300.98349
  22078280.362   116022131.72948  22078279.310    90406850.00849
  22811062.010   119872963.24947  22811061.022    93407502.62048
  22445739.242   117953164.71048  22445738.296    91911559.19049
  21247831.846   111658116.22949  21247829.553    87006315.01449
  24752864.241   130077187.72145  24752863.431   101358866.50547
  22791538.035   119770322.13448  22791533.816    93327509.66449
  24989884.795   131322700.48345  24989886.533   102329364.92447
  25359535.315   133265247.79846  25359534.920   103843037.33547
  25496512.071   133985073.04246  25496513.212   104403981.42048
  24416638.931   128310296.07347  24416638.027    99982038.55746
 06  4 25 14 53 30.0000000  0 11G 2G 4G 6G10G13G16G23G24G25G27G30
  20473104.129   107586900.85249  20473100.402    83833920.74349
  22095084.322   116110437.04448  22095083.207    90475659.31449
  22800113.121   119815426.17247  22800111.932    93362668.52048
  22426929.389   117854318.07848  22426928.363    91834535.87648
  21250456.508   111671909.20249  21250454.272    87017062.80149
  24737693.548   129997465.41345  24737692.871   101296745.19147
  22806808.433   119850568.92848  22806804.141    93390039.65349
  25011030.431   131433820.83345  25011032.066   102415952.12547
  25375915.722   133351327.44847  25375915.492   103910112.38448
  25477877.739   133887149.61947  25477878.875   104327677.55048
  24434479.192   128404047.12047  24434478.608   100055091.28346
 06  4 25 14 54  0.0000000  0 11G 2G 4G 6G10G13G16G23G24G25G27G30
  20477784.382   107611495.99749  20477780.756    83853085.79249
  22111969.802   116199170.46548  22111968.597    90544802.22549
  22789273.191   119758462.20147  22789271.953    93318281.02348
  22408196.212   117755874.19248  22408194.885    91757826.35448
  21253222.294   111686443.38349  21253220.022    87028388.11549
  24722612.511   129918214.43245  24722611.914   101234991.25547
  22822179.110   119931342.75348  22822174.945    93452980.27949
  25032205.084   131545094.07246  25032206.766   102502658.45247
  25392365.447   133437771.05547  25392365.250   103977471.05048
  25459275.766   133789396.28147  25459276.930   104251506.19348
  24452395.904   128498199.89546  24452395.338   100128457.04747
 06  4 25 14 54 30.0000000  0 11G 2G 4G 6G10G13G16G23G24G25G27G30
  20482568.930   107636639.21549  20482565.412    83872677.91049
  22128907.610   116288178.65348  22128906.397    90614159.24749
  22778513.779   119701922.04847  22778512.580    93274223.91248
  22389511.270   117657683.90848  22389509.640    91681314.46149
  21256100.164   111701566.85049  21256097.848    87040172.64349
  24707592.674   129839286.03345  24707592.325   101173488.70547
  22837620.795   120012490.13748  22837617.000    93516212.00449
  25053379.813   131656367.11946  25053381.424   102589364.60347
  25408855.067   133524424.52947  25408855.001   104044993.16748
  25440677.847   133691663.89946  25440679.001   104175351.15848
  24470359.810   128592600.16947  24470359.301   100202015.62947
 06  4 25 14 55  0.0000000  0 11G 2G 4G 6G10G13G16G23G24G25G27G30
  20487487.329   107662485.70049  20487483.904    83892818.00049
  22145926.997   116377615.47948  22145925.918    90683850.24649
  22767864.956   119645963.32347  22767863.864    93230619.85348
  22370904.593   117559905.19148  22370902.721    91605123.27248
  21259119.662   111717434.57549  21259117.345    87052537.10549
  24692664.435   129760838.48345  24692664.321   101112360.80647
  22853162.674   120094164.26648  22853159.448    93579854.16848
  25074583.883   131767794.47646  25074585.401   102676191.00147
  25425413.978   133611441.63447  25425413.922   104112798.65148
  25422114.151   133594111.36047  25422115.246   104099336.27748
  24488399.734   128687400.66947  24488399.397   100275886.12046
 06  4 25 14 55 30.0000000  0 11G 2G 4G 6G10G13G16G23G24G25G27G30
  20492481.528   107688730.51749  20492478.105    83913268.50949
  22162969.603   116467174.88448  22162968.714    90753636.77449
  22757269.438   119590283.37647  22757268.315    93187232.85448
  22352318.684   117462235.92847  22352316.567    91529017.38948
  21262222.858   111733741.88349  21262220.572    87065244.08349
  24677770.267   129682569.97744  24677770.594   101051372.29646
  22868746.438   120176058.65548  22868743.909    93643667.93349
  25095758.975   131879070.30746  25095760.596   102762899.32347
  25441983.667   133698515.90447  25441983.679   104180648.72148
  25403527.290   133496437.02946  25403528.272   104023226.54148
  24506457.342   128782294.13446  24506457.241   100349829.09646
 06  4 25 14 56  0.0000000  0 11G 2G 4G 6G10G13G16G23G24G25G27G30
  20497610.506   107715683.54349  20497607.014    83934270.87949
  22180094.148   116557165.09849  22180093.386    90823759.00249
  22746786.441   119535194.63547  22746785.297    93144306.55348
  22333812.926   117364988.48047  22333810.773    91453240.19548
  21265468.594   111750798.15449  21265466.363    87078534.67749
  24662969.968   129604793.44244  24662970.537   100990767.06746
  22884430.713   120258480.98347  22884428.720    93707893.08148
  25116964.095   131990503.08946  25116965.662   102849729.99347
  25458622.778   133785954.89647  25458622.771   104248783.02348
  25384976.767   133398953.30847  25384977.597   103947265.28448
  24524591.035   128877587.61747  24524591.232   100424083.72946
 06  4 25 14 56 30.0000000  0 11G 2G 4G 6G10G13G16G23G24G25G27G30
  20502845.239   107743191.93649  20502841.614    83955705.97149
  22197271.389   116647432.14448  22197270.641    90894096.92849
  22736387.435   119480547.14847  22736386.294    93101724.12548
  22315358.873   117268013.02848  22315356.880    91377674.93048
  21268827.815   111768450.76049  21268825.666    87092289.96149
  24648234.522   129527360.46353  24648235.790   100930429.77356
  22900186.280   120341276.95047  22900184.407    93772409.39049
  25138169.920   132101939.48146  25138171.463   102936563.48447
  25475302.015   133873604.00648  25475301.924   104317080.92748
  25366433.939   133301510.74946  25366434.757   103871336.11048
  24542771.538   128973126.52347  24542772.196   100498529.57946
 06  4 25 14 57  0.0000000  0 11G 2G 4G 6G10G13G16G23G24G25G27G30
  20508244.568   107771565.54249  20508240.842    83977815.28249
  22214560.043   116738284.75548  22214559.161    90964891.15349
  22726131.767   119426653.18547  22726130.665    93059728.91148
  22297016.156   117171622.18048  22297014.356    91302565.20348
  21272359.383   111787009.27648  21272357.434    87106751.14749
  24633624.312   129450583.60644  24633625.700   100870603.71246
  22916071.519   120424754.26048  22916069.487    93837456.63648
  25159435.065   132213688.38846  25159436.703   103023640.46447
  25492079.792   133961771.72347  25492079.613   104385783.07148
  25347958.643   133204422.25546  25347959.369   103795682.82648
  24561057.182   129069218.13546  24561058.308   100573406.09047
 06  4 25 14 57 30.0000000  0 11G 2G 4G 6G10G13G16G23G24G25G27G30
  20513721.147   107800344.99949  20513717.335    84000240.82649
  22231872.405   116829261.86449  22231871.331    91035782.40649
  22715932.554   119373055.43047  22715931.446    93017964.41048
  22278697.891   117075359.23648  22278696.212    91227555.12648
  21275975.895   111806014.14449  21275974.128    87121560.12549
  24619052.115   129374007.06744  24619053.388   100810933.78046
  22931998.702   120508451.45048  22931996.308    93902675.18249
  25180672.028   132325289.00347  25180673.777   103110601.88748
  25508868.392   134049996.44748  25508868.156   104454529.59748
  25329463.798   133107231.50347  25329464.401   103719949.87047
  24579360.149   129165400.59746  24579361.286   100648353.53846
 06  4 25 14 58  0.0000000  0 11G 2G 4G 6G10G13G16G23G24G25G27G30
  20519305.167   107829688.81749  20519301.281    84023106.11949
  22249238.400   116920520.94248  22249237.296    91106893.35249
  22705820.229   119319915.46047  22705819.244    92976556.75648
  22260434.812   116979385.64148  22260433.111    91152770.52849
  21279707.517   111825623.82549  21279705.905    87136840.37949
  24604548.886   129297792.02244  24604549.906   100751545.50647
  22947997.621   120592525.55448  22947994.736    93968187.47449
  25201910.970   132436899.36847  25201912.627   103197570.89748
  25525697.708   134138435.16248  25525697.320   104523442.93248
  25310980.313   133010100.63346  25310980.873   103644263.56647
  24597710.047   129261829.99546  24597711.229   100723493.36246
 06  4 25 14 58 30.0000000  0 11G 2G 4G 6G10G13G16G23G24G25G27G30
  20525025.699   107859750.44749  20525021.826    84046530.76449
  22266687.076   117012214.38148  22266686.095    91178342.76749
  22695824.694   119267389.06947  22695823.814    92935627.17548
  22242256.522   116883857.77048  22242254.961    91078333.23148
  21283583.361   111845991.58349  21283581.868    87152711.36049
  24590144.393   129222095.46244  24590145.139   100692561.17446
  22964097.215   120677128.27648  22964093.710    94034111.64448
  25223180.670   132548671.70847  25223182.351   103284666.14248
  25542596.651   134227239.51547  25542596.169   104592641.11048
  25292538.066   132913186.46946  25292538.615   103568746.13547
  24616135.657   129358657.57246  24616136.986   100798943.47546
 06  4 25 14 59  0.0000000  0 11G 2G 4G 6G10G13G16G23G24G25G27G30
  20530883.334   107890532.56149  20530879.497    84070516.82249
  22284218.619   117104343.04548  22284217.764    91250131.30249
  22685946.904   119215481.24448  22685946.138    92895179.55348
  22224163.934   116788780.73548  22224162.676    91004247.25348
  21287603.871   111867119.60149  21287602.531    87169174.74149
  24575839.712   129146923.04245  24575840.172   100633985.19446
  22980297.317   120762259.85548  22980293.287    94100447.95448
  25244481.380   132660607.34847  25244483.102   103371888.62548
  25559565.206   134316410.12547  25559564.738   104662124.65748
  25274138.130   132816494.09346  25274138.601   103493401.46547
  24634637.050   129455883.23446  24634638.366   100874703.75246
 06  4 25 14 59 30.0000000  0 11G 2G 4G 6G10G13G16G23G24G25G27G30
  20536819.803   107921728.97549  20536816.052    84094825.71249
  22301774.513   117196600.01448  22301773.779    91322019.83849
  22676129.156   119163888.38147  22676128.480    92854977.29448
  22206099.503   116693851.60048  22206098.495    90930276.51449
  21291710.829   111888701.84449  21291709.592    87185992.09649
  24561577.272   129071973.10445  24561577.268   100575582.76747
  22996539.447   120847612.76048  22996535.174    94166956.67348
  25265754.887   132772399.97847  25265756.662   103458999.67347
  25576544.972   134405639.49148  25576544.520   104731654.02648
  25255722.811   132719721.09346  25255723.233   103417993.98847
  24653155.596   129553199.13145  24653157.153   100950534.30846
 06  4 25 15  0  0.0000000  0 11G 2G 4G 6G10G13G16G23G24G25G27G30
  20542865.134   107953497.12449  20542861.404    84119580.10449
  22319384.587   117289141.29548  22319383.863    91394129.90949
  22666401.785   119112770.66747  22666401.277    92815145.30448
  22188093.737   116599230.72648  22188092.940    90856545.96649
  21295934.218   111910895.65249  21295933.012    87203285.95049
  24547387.542   128997405.38346  24547387.161   100517478.18546
  23012853.314   120933342.92748  23012849.000    94233759.41048
  25287030.967   132884205.93947  25287032.810   103546121.06747
  25593565.628   134495083.20547  25593565.164   104801350.34648
  25237322.698   132623028.53346  25237323.117   103342649.21348
  24671720.737   129650759.79245  24671722.647   101026555.55946
 06  4 25 15  0 30.0000000  0 11G 2G 4G 6G10G13G16G23G24G25G27G30
  20549078.178   107986146.51449  20549074.479    84145021.16849
  22337107.386   117382275.04648  22337106.689    91466701.60549
  22656824.239   119062439.79247  22656823.830    92775926.41648
  22170206.120   116505230.25848  22170205.369    90783298.88549
  21300332.796   111934010.02549  21300331.508    87221297.14849
  24533330.140   128923532.64146  24533329.457   100459915.04747
  23029297.394   121019757.56047  23029293.184    94301095.46748
  25308368.311   132996333.90647  25308370.150   103633493.40648
  25610685.622   134585048.84847  25610685.182   104871453.33048
  25218997.409   132526728.23946  25218997.725   103267610.07747
  24690391.020   129748872.54145  24690393.124   101103006.91446
 06  4 25 15  1  0.0000000  0 11G 2G 4G 6G10G13G16G23G24G25G27G30
  20555371.206   108019216.22749  20555367.524    84170789.76049
  22354855.108   117475539.52048  22354854.249    91539375.21249
  22647309.204   119012437.88647  22647308.889    92736963.85349
  22152349.435   116411392.58948  22152348.681    90710178.63949
  21304818.852   111957584.09349  21304817.471    87239666.54149
  24519317.949   128849898.01846  24519317.029   100402537.56047
  23045783.790   121106394.18547  23045779.658    94368604.50948
  25329679.080   133108322.50347  25329680.853   103720757.20448
  25627816.944   134675074.71247  25627816.537   104941603.39948
  25200659.755   132430363.62546  25200660.075   103192520.84247
  24709078.178   129847074.88044  24709080.303   101179528.22846
 06  4 25 15  1 30.0000000  0 11G 2G 4G 6G10G13G16G23G24G25G27G30
  20561773.821   108052862.10249  20561770.163    84197007.34449
  22372657.163   117569089.32548  22372656.119    91612271.14149
  22637886.944   118962923.51047  22637886.549    92698381.25948
  22134553.818   116317876.33348  22134553.015    90637308.86049
  21309421.967   111981773.87749  21309420.644    87258515.70549
  24505381.317   128776660.46046  24505380.238   100345469.41747
  23062341.768   121193407.04047  23062337.748    94436406.71448
  25350992.821   133220326.68947  25350994.647   103808033.12548
  25644988.910   134765315.00348  25644988.490   105011920.79848
  25182340.026   132334093.54746  25182340.350   103117505.28647
  24727811.630   129945519.98644  24727813.852   101256238.63646
 06  4 25 15  2  0.0000000  0 11G 2G 4G 6G10G13G16G23G24G25G27G30
  20568315.604   108087239.40149  20568312.025    84223794.83049
  22390542.769   117663078.28948  22390541.648    91685509.27049
  22628587.364   118914053.70248  22628586.784    92660300.90048
  22116849.268   116224839.10648  22116848.418    90564812.33649
  21314171.659   112006733.70849  21314170.396    87277964.89649
  24491550.359   128703978.35046  24491549.277   100288834.06947
  23079000.519   121280949.39948  23078996.625    94504621.50148
  25372338.876   133332500.49547  25372340.667   103895441.19748
  25662230.924   134855921.95848  25662230.454   105082523.60248
  25164068.580   132238076.48246  25164068.906   103042686.87247
  24746620.447   130044360.64544  24746622.798   101333257.34146
 06  4 25 15  2 30.0000000  0 11G 2G 4G 6G10G13G16G23G24G25G27G30
  20574937.984   108122040.36949  20574934.428    84250912.46449
  22408453.128   117757197.70148  22408452.080    91758849.05749
  22619352.420   118865523.80848  22619351.676    92622485.49048
  22099177.986   116131976.39248  22099177.125    90492451.78549
  21319009.438   112032156.12949  21319008.125    87297774.58749
  24477767.258   128631547.72846  24477766.240   100232394.68147
  23095701.073   121368712.00047  23095697.416    94573007.94648
  25393658.571   133444536.06147  25393660.363   103982741.57248
  25679483.974   134946586.91248  25679483.617   105153171.51448
  25145787.289   132142008.02545  25145787.670   102967828.39147
  24765445.673   130143287.15645  24765448.000   101410342.96246
 06  4 25 15  3  0.0000000  0 11G 2G 4G 6G10G13G16G23G24G25G27G30
  20581699.637   108157573.46949  20581696.080    84278600.57849
  22426446.766   117851754.91048  22426445.920    91832529.94849
  22610241.389   118817644.70448  22610240.501    92585177.06348
  22081599.321   116039599.97648  22081598.363    90420470.19448
  21323993.941   112058349.55449  21323992.614    87318185.01649
  24464091.320   128559680.15746  24464090.444   100176393.99147
  23112501.937   121457001.41748  23112498.491    94641804.85148
  25415010.434   133556740.95347  25415012.274   104070173.88948
  25696806.488   135037617.24447  25696806.183   105224104.27948
  25127555.578   132046200.23845  25127555.977   102893173.06247
  24784345.381   130242605.72844  24784347.666   101487734.02946
 06  4 25 15  3 30.0000000  0 11G 2G 4G 6G10G13G16G23G24G25G27G30
  20588571.109   108193683.74049  20588567.538    84306738.45649
  22444494.028   117946593.90948  22444493.367    91906430.44549
  22601225.183   118770264.06347  22601224.193    92548257.04148
  22064084.346   115947557.50648  22064083.150    90348748.79249
  21329095.488   112085158.33249  21329094.161    87339074.96849
  24450493.625   128488224.03546  24450492.880   100120713.95647
  23129373.336   121545661.40447  23129370.103    94710890.53548
  25436364.907   133668959.33948  25436366.704   104157616.74048
  25714168.695   135128855.72648  25714168.429   105295199.08748
  25109344.612   131950501.68346  25109345.066   102818602.86247
  24803289.789   130342159.23345  24803291.974   101565308.17647
 06  4 25 15  4  0.0000000  0 11G 2G 4G 6G10G13G16G23G24G25G27G30
  20595522.973   108230216.09249  20595519.341    84335205.21149
  22462565.235   118041558.68048  22462564.669    91980428.93749
  22592274.786   118723229.69247  22592273.638    92511606.91848
  22046604.047   115855697.35548  22046602.792    90277169.49149
  21334284.689   112112427.45549  21334283.322    87360323.59049
  24436945.481   128417028.15247  24436944.868   100065236.67547
  23146285.514   121634535.08947  23146282.359    94780142.70848
  25457692.360   133781035.70847  25457694.122   104244948.89248
  25731540.835   135220145.71747  25731540.755   105366333.73148
  25091125.587   131854760.72046  25091126.126   102743999.63247
  24822248.990   130441790.50945  24822250.975   101642942.89947
 06  4 25 15  4 30.0000000  0 11G 2G 4G 6G10G13G16G23G24G25G27G30
  20602613.379   108267476.42649  20602609.619    84364239.24449
  22480718.381   118136953.70048  22480717.633    92054762.69849
  22583448.851   118676849.27647  22583447.606    92475466.29548
  22029217.175   115764327.97348  22029215.947    90205972.58049
  21339619.547   112140462.41749  21339618.094    87382169.02549
  24423505.620   128346401.42347  24423505.073   100010202.93047
  23163296.331   121723926.57048  23163293.075    94849798.40148
  25479050.802   133893275.10847  25479052.591   104332408.12548
  25748980.667   135311792.37447  25748980.598   105437746.59848
  25072957.366   131759286.50946  25072957.892   102669604.24947
  24841280.665   130541803.19945  24841282.640   101720874.82147
 06  4 25 15  5  0.0000000  0 11G 2G 4G 6G10G13G16G23G24G25G27G30
  20609871.451   108305617.47849  20609867.439    84393959.55249
  22498982.344   118232931.19148  22498981.383    92129550.32549
  22574777.055   118631278.84047  22574775.835    92439956.81148
  22011953.328   115673605.72348  22011952.069    90135279.94949
  21345129.294   112169416.36649  21345127.664    87404730.54349
  24410203.899   128276500.37747  24410203.382    99955734.60347
  23180434.444   121813987.05547  23180431.156    94919975.35548
  25500469.315   134005830.08847  25500471.144   104420113.26848
  25766517.071   135403947.60947  25766516.922   105509556.10248
  25054869.792   131664235.41646  25054870.317   102595538.53047
  24860413.788   130642348.12745  24860415.511   101799221.48047
 06  4 25 15  5 30.0000000  0 11G 2G 4G 6G10G13G16G23G24G25G27G30
  20617209.038   108344176.63149  20617204.866    84424005.65449
  22517268.845   118329027.24948  22517267.847    92204430.34049
  22566171.864   118586058.50447  22566170.704    92404720.23748
  21994725.073   115583070.97248  21994723.755    90064733.41349
  21350725.757   112198825.97949  21350723.897    87427647.12049
  24396952.848   128206865.60247  24396952.346    99901473.76447
  23197611.404   121904252.11847  23197608.089    94990311.77448
  25521859.731   134118237.20347  25521861.582   104507703.16148
  25784061.707   135496146.07647  25784061.579   105581399.19547
  25036775.263   131569148.30746  25036775.856   102521444.70347
  24879559.758   130742960.87846  24879561.339   101877620.97747
 06  4 25 15  6  0.0000000  0 11G 2G 4G 6G10G13G16G23G24G25G27G30
  20624625.569   108383150.82849  20624621.340    84454375.15549
  22535577.061   118425237.38448  22535576.203    92279399.24449
  22557633.046   118541187.27446  22557632.004    92369755.65748
  21977532.471   115492723.33348  21977531.026    89994332.65549
  21356408.261   112228687.95349  21356406.223    87450916.17249
  24383752.532   128137497.31947  24383752.007    99847420.55048
  23214826.237   121994717.02247  23214823.084    95060803.89349
  25543221.232   134230492.45947  25543223.153   104595174.69548
  25801613.861   135588383.11047  25801613.667   105653272.18448
  25018673.939   131474025.20646  25018674.428   102447322.82147
  24898717.553   130843635.58146  24898719.016   101956068.74447
 06  4 25 15  6 30.0000000  0 11G 2G 4G 6G10G13G16G23G24G25G27G30
  20632179.575   108422847.46349  20632175.403    84485307.59249
  22553965.394   118521868.47648  22553964.719    92354696.14549
  22549219.687   118496975.39747  22549218.839    92335304.84048
  21960434.463   115402873.44748  21960433.115    89924319.78949
  21362235.361   112259309.85149  21362233.200    87474777.38749
  24370662.131   128068706.79547  24370661.550    99793817.56847
  23232137.428   122085688.04047  23232134.295    95131690.37648
  25564612.328   134342903.05447  25564614.272   104682767.28247
  25819231.555   135680965.02947  25819231.463   105725413.89647
  25000625.023   131379177.48046  25000625.456   102373415.57947
  24917945.315   130944677.93346  24917946.741   102034803.00047
 06  4 25 15  7  0.0000000  0 11G 2G 4G 6G10G13G16G23G24G25G27G30
  20639870.686   108463264.52149  20639866.626    84516801.39649
  22572433.234   118618917.32148  22572432.565    92430318.60749
  22540931.984   118453423.63147  22540931.131    92301368.49848
  21943431.456   115313522.29048  21943430.140    89854695.54049
  21368206.617   112290689.23548  21368204.435    87499228.84549
  24357681.921   128000495.24147  24357681.181    99740665.69047
  23249544.159   122177161.18448  23249541.043    95202968.13348
  25586032.390   134455466.24347  25586034.382   104770478.76847
  25836914.391   135773888.14747  25836914.361   105797821.31247
  24982628.720   131284606.77446  24982629.082   102299724.18547
  24937242.448   131046083.98946  24937243.779   102113820.61248
 06  4 25 15  7 30.0000000  0 11G 2G 4G 6G10G13G16G23G24G25G27G30
  20647639.809   108504091.41249  20647635.860    84548614.55049
  22590921.295   118716072.45348  22590920.580    92506023.84149
  22532711.222   118410223.58047  22532710.411    92267706.18248
  21926464.906   115224362.47148  21926463.558    89785220.34949
  21374262.881   112322515.05249  21374260.633    87524028.18249
  24344753.389   127932555.25247  24344752.081    99687725.40647
  23266987.071   122268824.58447  23266984.042    95274394.14048
  25607422.425   134567871.22947  25607424.447   104858066.97948
  25854602.927   135866840.68646  25854602.900   105870251.51747
  24964626.651   131190006.07446  24964627.012   102226009.46847
  24956549.276   131147541.27446  24956550.640   102192878.16847
 06  4 25 15  8  0.0000000  0 11G 2G 4G 6G10G13G16G23G24G25G27G30
  20655486.773   108545327.48849  20655482.915    84580746.55349
  22609429.150   118813332.35848  22609428.496    92581810.75648
  22524557.944   118367377.50347  22524557.067    92234319.66148
  21909535.074   115135396.35148  21909533.727    89715896.11748
  21380403.991   112354786.64949  21380401.587    87549174.89549
  24331877.114   127864890.15646  24331875.553    99634999.33447
  23284465.805   122360675.70347  23284462.732    95345966.42248
  25628781.992   134680116.63547  25628784.142   104945530.85948
  25872296.547   135959821.04146  25872296.601   105942703.63847
  24946619.522   131095378.03646  24946619.685   102152273.41147
  24975865.236   131249046.76847  24975866.580   102271973.30748
 06  4 25 15  8 30.0000000  0 11G 2G 4G 6G10G13G16G23G24G25G27G30
  20663528.463   108587586.85249  20663524.655    84613675.91649
  22628073.614   118911310.20848  22628073.063    92658157.08149
  22516589.331   118325501.78647  22516588.437    92201689.14148
  21892759.701   115047241.26748  21892758.320    89647203.84749
  21386746.760   112388118.12649  21386744.233    87575147.43949
  24319170.604   127798117.71446  24319168.930    99582968.93047
  23302096.856   122453327.47247  23302093.719    95418162.58548
  25650228.105   134792816.50247  25650230.300   105033348.85248
  25890112.099   136053441.80246  25890112.246   106015654.75947
  24928724.739   131001340.56646  24928724.927   102078997.52546
  24995306.901   131351212.93847  24995308.168   102351583.26947
 06  4 25 15  9  0.0000000  0 11G 2G 4G 6G10G13G16G23G24G25G27G30
  20671676.710   108630406.14849  20671672.873    84647041.59949
  22646766.505   119009541.70148  22646765.890    92734701.04949
  22508717.630   118284136.34147  22508716.634    92169456.45648
  21876051.200   114959436.93948  21876049.602    89578784.91149
  21393202.979   112422045.62749  21393200.325    87601584.43249
  24306546.487   127731777.69047  24306544.958    99531275.37447
  23319791.749   122546314.98147  23319788.511    95490620.36648
  25671672.464   134905506.86747  25671674.676   105121159.45948
  25907961.013   136147238.44746  25907961.239   106088743.05746
  24910854.872   130907433.90546  24910854.954   102005823.56747
  25014785.699   131453574.33547  25014786.926   102431345.33848
 06  4 25 15  9 30.0000000  0 11G 2G 4G 6G10G13G16G23G24G25G27G30
  20679872.491   108673475.17849  20679868.575    84680601.87649
  22665448.442   119107715.75748  22665447.668    92811200.31148
  22500884.416   118242972.99047  22500883.432    92137381.14748
  21859351.060   114871676.58048  21859349.331    89510400.21549
  21399713.500   112456258.74349  21399710.857    87628244.00249
  24293946.342   127665563.35547  24293945.054    99479679.71647
  23337491.235   122639326.56547  23337487.851    95563096.92148
  25693055.828   135017877.07747  25693058.052   105208720.59147
  25925783.950   136240899.49146  25925784.427   106161725.78246
  24892951.436   130813351.52545  24892951.604   101932512.71647
  25034242.293   131555818.92647  25034243.359   102511016.39748
 06  4 25 15 10  0.0000000  0 11G 2G 4G 6G10G13G16G23G24G25G27G30
  20688203.442   108717254.80649  20688199.498    84714715.86749
  22684206.968   119206292.31748  22684206.024    92888013.17449
  22493177.935   118202475.38047  22493176.978    92105824.56748
  21842747.435   114784424.12948  21842745.805    89442411.30449
  21406366.048   112491218.36849  21406363.551    87655485.26549
  24281458.492   127599939.16747  24281457.485    99428543.92847
  23355282.829   122732821.45547  23355279.255    95635950.06048
  25714466.011   135130387.91246  25714468.121   105296391.30447
  25943668.526   136334884.38546  25943669.130   106234960.90446
  24875103.075   130719558.03646  24875103.179   101859426.93047
  25053764.001   131658405.47947  25053764.879   102590953.88448
 06  4 25 15 10 30.0000000  0 11G 2G 4G 6G10G13G16G23G24G25G27G30
  20696669.050   108761741.97349  20696665.115    84749381.18449
  22703041.274   119305267.39048  22703040.108    92965136.60048
  22485598.020   118162643.12647  22485597.048    92074786.49248
  21826240.526   114697679.58048  21826238.992    89374818.16249
  21413160.098   112526920.96349  21413157.767    87683305.44249
  24269083.177   127534905.41747  24269082.350    99377868.22448
  23373165.487   122826795.05147  23373161.962    95709176.22348
  25735902.218   135243035.63046  25735904.443   105384168.67847
  25961613.993   136429188.57445  25961614.564   106308444.77046
  24857309.818   130626054.09045  24857309.835   101786566.78647
  25073349.724   131761329.20747  25073350.512   102671154.18248
 06  4 25 15 11  0.0000000  0 11G 2G 4G 6G10G13G16G23G24G25G27G30
  20705210.385   108806626.77149  20705206.434    84784356.33349
  22721892.330   119404330.32448  22721890.754    93042328.46848
  22478086.301   118123168.93448  22478085.395    92044027.43349
  21809771.929   114611136.45448  21809770.447    89307381.97549
  21420036.452   112563056.29449  21420034.324    87711462.82549
  24256761.925   127470156.01947  24256761.344    99327414.07747
  23391080.054   122920936.27247  23391076.685    95782533.01848
  25757305.471   135355510.07646  25757307.787   105471811.01347
  25979560.361   136523501.15545  25979560.628   106381935.24245
  24839513.197   130532533.46645  24839513.262   101713693.73247
  25092940.279   131864278.33147  25092940.956   102751374.27648
 06  4 25 15 11 30.0000000  0 11G 2G 4G 6G10G13G16G23G24G25G27G30
  20713914.873   108852369.25749  20713911.017    84819999.82949
  22740847.555   119503940.36348  22740845.619    93119946.65949
  22470730.828   118084515.41248  22470730.077    92013907.85648
  21793429.764   114525257.89048  21793428.292    89240463.64249
  21427082.713   112600084.36249  21427080.759    87740315.86449
  24244582.916   127406154.52147  24244582.517    99277542.78548
  23409113.801   123015703.75147  23409110.542    95856377.77448
  25778763.237   135468271.14846  25778765.595   105559676.74446
  25997596.903   136618281.10344
  24821801.680   130439459.72446  24821801.843   101641168.77647
  25112622.890   131967710.96647  25112623.430   102831971.09148
 06  4 25 15 12  0.0000000  0 11G 2G 4G 6G10G13G16G23G24G25G27G30
  20722694.299   108898505.48249  20722690.588    84855950.11549
  22759818.393   119603632.72748  22759816.505    93197628.98348
  22463443.798   118046221.53148  22463443.191    91984068.55649
  21777126.330   114439583.08148  21777125.014    89173704.04049
  21434210.575   112637541.09549  21434208.784    87769502.90449
  24232458.484   127342440.54347  24232458.250    99227895.53447
  23427178.119   123110632.19347  23427174.904    95930347.97548
  25800187.217   135580854.79546  25800189.486   105647404.18446
  26015633.296   136713063.55244
  24804087.659   130346373.03846  24804087.852   101568633.82247
  25132308.892   132071161.51047  25132309.381   102912581.83148
 06  4 25 15 12 30.0000000  0 11G 2G 4G 6G10G13G16G23G24G25G27G30
  20731577.396   108945186.53649  20731573.865    84892324.96049
  22778833.564   119703557.93648  22778831.974    93275492.68148
  22456254.398   118008440.76148  22456253.879    91954629.05849
  21760890.896   114354266.52048  21760889.825    89107223.65549
  21441448.636   112675577.30149  21441447.046    87799141.49949
  24220418.221   127279168.53447  24220417.881    99178592.67047
  23445301.519   123205870.92847  23445298.263    96004559.97448
  25821606.143   135693411.72845  25821608.362   105735110.80846
  26033698.486   136807998.32854
  24786400.753   130253427.93946  24786400.836   101496209.22947
  25152026.674   132174779.12247  25152027.258   102993322.74448
 06  4 25 15 13  0.0000000  0 10G 2G 4G 6G10G13G16G23G24G27G30
  20740622.583   108992719.25149  20740619.135    84929363.42049
  22797951.216   119804021.75248  22797949.910    93353776.15248
  22449221.548   117971482.32047  22449221.014    91925830.21548
  21744782.783   114269618.25048  21744781.829    89041263.94749
  21448855.353   112714499.48249  21448853.857    87829470.46449
  24208521.096   127216649.06447  24208520.641    99129876.18147
  23463542.055   123301725.87547  23463538.828    96079252.13348
  25843078.428   135806248.94445  25843080.463   105823035.84746
  24768799.876   130160934.92446  24768799.794   101424136.77947
  25171834.262   132278868.98147  25171834.843   103074431.71348
 06  4 25 15 13 30.0000000  0 10G 2G 4G 6G10G13G16G23G24G27G30
  20749712.057   109040484.88749  20749708.579    84966583.39649
  22817053.540   119904404.83148  22817052.489    93431996.67748
  22442227.997   117934730.46048  22442227.439    91897192.35148
  21728684.671   114185022.88048  21728683.855    88975345.49949
  21456312.857   112753688.74649  21456311.390    87860007.53549
  24196650.054   127154266.90847  24196649.346    99081266.77448
  23481781.774   123397576.33647  23481778.478    96153940.79348
  25864486.091   135918747.25344
  24751168.088   130068279.47146  24751167.880   101351937.82047
  25191613.693   132382810.53047  25191614.362   103155425.06448
 06  4 25 15 14  0.0000000  0 10G 2G 4G 6G10G13G16G23G24G27G30
  20758933.348   109088943.09649  20758929.767    85004343.02649
  22836227.828   120005165.98548  22836227.002    93510511.82249
  22435361.650   117898647.25148  22435361.054    91869075.52448
  21712684.846   114100943.04548  21712684.178    88909828.74449
  21463908.458   112793604.17749  21463907.020    87891110.46649
  24184893.289   127092484.97347  24184892.254    99033125.04247
  23500107.894   123493880.90347  23500104.660    96228983.28948
  25885917.052   136031366.14944
  24733593.484   129975924.90046  24733593.273   101279973.30347
  25211452.042   132487061.44447  25211452.704   103236659.47847
 06  4 25 15 14 30.0000000  0  9G 2G 4G 6G10G13G16G23G27G30
  20768286.228   109138092.62349  20768282.523    85042641.33949
  22855473.773   120106303.38848  22855473.174    93589320.11648
  22428622.784   117863234.33448  22428622.175    91841481.03749
  21696783.595   114017381.18948  21696783.091    88844715.64049
  21471642.061   112834244.78549  21471640.568    87922778.45849
  24173251.260   127031305.73347  24173250.077    98985452.90047
  23518520.005   123590637.14047  23518516.887    96304377.71948
  24716076.686   129883873.56647  24716076.339   101208245.04447
  25231348.720   132591619.06647  25231349.413   103318132.92748
 06  4 25 15 15  0.0000000  0  9G 2G 4G 6G10G13G16G23G27G30
  20777741.315   109187779.31549  20777737.475    85081358.22749
  22874761.806   120207662.12648  22874761.350    93668300.94048
  22421982.556   117828339.98248  22421981.930    91814290.65648
  21680952.242   113934186.11648  21680951.776    88779888.29949
  21479484.229   112875455.62748  21479482.552    87954890.78749
  24161695.258   126970578.59547  24161694.006    98938133.09447
  23536988.474   123687689.41047  23536985.415    96380002.84748
  24698588.969   129791975.49247  24698588.515   101136636.29647
  25251274.090   132696327.37747  25251274.757   103399723.81748
 06  4 25 15 15 30.0000000  0  9G 2G 4G 6G10G13G16G23G27G30
  20787298.471   109238002.41949  20787294.501    85120493.11749
  22894091.582   120309240.56848  22894091.327    93747452.93149
  22415441.345   117793966.09348  22415440.674    91787505.89849
  21665191.037   113851360.39549  21665190.586    88715348.80149
  21487434.783   112917235.91648  21487432.916    87987446.85549
  24150225.869   126910306.17147  24150224.551    98891167.56548
  23555512.865   123785035.45947  23555509.786    96455856.89448
  24681130.931   129700233.44846  24681130.250   101065149.11847
  25271227.669   132801183.89147  25271228.247   103481430.14648
 06  4 25 15 16  0.0000000  0  9G 2G 4G 6G10G13G16G23G27G30
  20796958.027   109288763.53749  20796954.016    85160047.21949
  22913463.384   120411039.69848  22913463.180    93826776.90348
  22409000.067   117760116.88548  22408999.318    91761129.90548
  21649501.164   113768909.14849  21649500.542    88651101.06749
  21495494.065   112959587.28749  21495491.978    88020447.92949
  24138843.994   126850493.79647  24138842.714    98844560.47048
  23574093.286   123882676.10747  23574090.034    96531940.49548
  24663703.731   129608653.10947  24663703.032   100993787.85847
  25291209.386   132906188.61847  25291209.959   103563251.98048
 06  4 25 15 16 30.0000000  0  9G 2G 4G 6G10G13G16G23G27G30
  20806749.646   109340218.78349  20806745.710    85200142.22449
  22932906.824   120513215.29148  22932906.478    93906394.17648
  22402688.774   117726950.94148  22402688.021    91735286.29348
  21633912.885   113686991.78248  21633911.968    88587269.36949
  21503691.675   113002665.55249  21503689.514    88054015.37749
  24127580.030   126791301.38947  24127578.696    98798436.48047
  23592759.281   123980766.07348  23592755.737    96608374.21248
  24646337.828   129517394.36547  24646337.086   100922677.24247
  25311248.804   133011495.87647  25311249.307   103645309.54247
 06  4 25 15 17  0.0000000  0  9G 2G 4G 6G10G13G16G23G27G30
  20816615.317   109392062.89049  20816611.487    85240540.21349
  22952363.530   120615461.00148  22952362.921    93986066.08948
  22396449.945   117694166.08148  22396449.250    91709739.69248
  21618368.667   113605306.45948  21618367.503    88523618.47649
  21511969.344   113046164.99749  21511967.322    88087911.05449
  24116376.610   126732426.89547  24116375.170    98752560.16247
  23611452.430   124078998.95347  23611448.621    96684919.29148
  24628975.804   129426155.81147  24628975.074   100851582.29847
  25331287.409   133116799.17447  25331287.955   103727364.01847
 06  4 25 15 17 30.0000000  0  9G 2G 4G 6G10G13G16G23G27G30
  20826614.388   109444608.20449  20826610.647    85281484.60249
  22971892.934   120718088.74148  22971892.019    94066035.69848
  22390343.528   117662076.82847  22390342.959    91684735.11048
  21602928.641   113524168.70248  21602927.421    88460394.26549
  21520386.600   113090397.62849  21520384.716    88122378.03149
  24105293.773   126674186.41547  24105292.288    98707177.95747
  23630231.879   124177685.52848  23630227.908    96761817.89448
  24611677.763   129335253.61647  24611677.193   100780749.43147
  25351384.245   133222408.88747  25351384.914   103809657.29748
 06  4 25 15 18  0.0000000  0  9G 2G 4G 6G10G13G16G23G27G30
  20836688.985   109497550.19549  20836685.175    85322738.07849
  22991436.955   120820793.39048  22991435.766    94146065.26248
  22384311.978   117630381.35548  22384311.570    91660037.39248
  21587535.458   113443277.13548  21587534.348    88397361.86349
  21528885.381   113135058.62049  21528883.642    88157178.77649
  24094274.246   126616278.65846  24094272.740    98662055.03247
  23649039.420   124276520.10448  23649035.459    96838831.85748
  24594386.552   129244387.41047  24594386.148   100709944.64647
  25371481.224   133328019.06547  25371481.832   103891950.94548
 06  4 25 15 18 30.0000000  0  9G 2G 4G 6G10G13G16G23G27G30
  20846927.573   109551354.09049  20846923.643    85364663.17449
  23011084.087   120924039.57748  23011082.572    94226516.77648
  22378444.447   117599547.39248  22378444.114    91636010.92148
  21572278.429   113363100.90948  21572277.353    88334886.89349
  21537554.185   113180613.18049  21537552.524    88192675.83549
  24083407.415   126559173.17146  24083405.923    98617557.32847
  23667963.420   124375966.52148  23667959.653    96916322.55048
  24577191.437   129154026.43947  24577191.001   100639533.55247
  25391666.452   133434093.28247  25391667.130   103974606.11647
 06  4 25 15 19  0.0000000  0  9G 2G 4G 6G10G13G16G23G27G30
  20857243.103   109605562.28449  20857239.057    85406903.28849
  23030747.140   121027369.27748  23030745.428    94307033.38248
  22372654.389   117569120.43448  22372654.070    91612301.62948
  21557071.050   113283185.77948  21557069.985    88272615.35549
  21546305.797   113226603.30449  21546304.200    88228512.29749
  24072606.799   126502415.48846  24072605.183    98573330.60047
  23686916.726   124475566.50347  23686913.155    96993932.88048
  24560006.109   129063716.89947  24560005.635   100569162.50548
  25411852.710   133540172.65747  25411853.360   104057265.32148
 06  4 25 15 19 30.0000000  0  9G 2G 4G 6G10G13G16G23G27G30
  20867635.762   109660175.88549  20867631.724    85449459.30649
  23050426.068   121130782.77348  23050424.371    94387615.33248
  22366942.507   117539103.66848  22366942.054    91588911.97049
  21541914.138   113203535.94848  21541913.079    88210550.54849
  21555140.454   113273029.80349  21555138.872    88264688.77049
  24061873.231   126446009.95947  24061871.426    98529378.25348
  23705899.209   124575319.65848  23705895.676    97071662.59948
  24542831.493   128973464.24347  24542830.863   100498835.84348
  25432039.875   133646256.61247  25432040.445   104139928.12348
 06  4 25 15 20  0.0000000  0 10G 2G 4G 6G 7G10G13G16G23G27G30
  20878193.452   109715657.11149  20878189.554    85492691.44849
  23070208.786   121234741.81248  23070207.224    94468622.37448
  22361397.162   117509962.11948  22361396.524    91566204.32649
  25792616.154   135541112.80945
  21526896.367   113124617.12548  21526895.306    88149055.37049
  21564146.035   113320354.57649  21564144.414    88301565.21149
  24051295.344   126390422.50547  24051293.365    98486063.36547
  23724998.602   124675687.08448  23724995.021    97149870.97348
  24525756.412   128883734.21347  24525755.645   100428916.43147
  25452315.508   133752805.78446  25452316.092   104222953.44347
 06  4 25 15 20 30.0000000  0 10G 2G 4G 6G 7G10G13G16G23G27G30
  20888828.215   109771543.07449  20888824.405    85536238.94549
  23090007.286   121338783.06948  23090005.746    94549693.44748
  22355930.756   117481235.52548  22355929.945    91543820.00548
  25773565.606   135441002.84845
  21511930.301   113045969.72948  21511929.147    88087771.70149
  21573234.447   113368114.66049  21573232.712    88338780.83349
  24040785.721   126335194.21947  24040783.708    98443028.41848
  23744126.468   124776204.60148  23744122.946    97228196.28648
  24508693.482   128794068.16147  24508692.519   100359046.81247
  25472591.444   133859355.89047  25472591.908   104305979.42947
 06  4 25 15 21  0.0000000  0 10G 2G 4G 6G 7G10G13G16G23G27G30
  20899540.062   109827834.42749  20899536.310    85580102.34449
  23109821.350   121442906.52348  23109819.849    94630828.60748
  22350543.937   117452926.81648  22350543.041    91521761.18948
  25754516.173   135340897.74546
  21497016.606   112967597.69948  21497015.401    88026702.59249
  21582405.705   113416310.19849  21582403.848    88376335.79249
  24030345.153   126280328.72447  24030343.200    98400276.12947
  23763282.868   124876871.94748  23763279.437    97306638.31848
  24491643.588   128704470.55047  24491642.726   100289230.54247
  25492867.239   133965906.06647  25492867.686   104389005.53947
 06  4 25 15 21 30.0000000  0 10G 2G 4G 6G 7G10G13G16G23G27G30
  20910416.591   109884990.87949  20910412.743    85624639.83249
  23129738.419   121547571.23948  23129737.108    94712385.48149
  22345324.585   117425498.78148  22345323.588    91500388.68549
  25735556.042   135241261.39746  25735556.081   105382804.41346
  21482243.505   112889964.47049  21482242.210    87966209.16049
  21591747.302   113465400.80749  21591745.355    88414588.20049
  24020061.846   126226289.36447  24020059.972    98358167.46748
  23782555.009   124978147.79248  23782551.727    97385554.53148
  24474694.949   128615405.19447  24474694.265   100219829.08348
  25513230.264   134072914.64246  25513230.714   104472388.82747
 06  4 25 15 22  0.0000000  0 10G 2G 4G 6G 7G10G13G16G23G27G30
  20921339.882   109942392.94549  20921335.944    85669368.70349
  23149640.582   121652157.81448  23149639.526    94793881.49448
  22340155.411   117398334.40148  22340154.360    91479221.59149
  25716567.834   135141478.22346  25716568.205   105305051.26547
  21467493.733   112812453.83148  21467492.408    87905811.27849
  21601141.365   113514767.06649  21601139.367    88453055.42149
  24009818.573   126172460.85047  24009816.913    98316223.16348
  23801824.955   125079411.91748  23801821.709    97464461.60448
  24457730.465   128526256.51248  24457730.036   100150362.65048
  25533562.503   134179761.09146  25533563.035   104555645.75147
 06  4 25 15 22 30.0000000  0 10G 2G 4G 6G 7G10G13G16G23G27G30
  20932367.572   110000343.56349  20932363.587    85714524.99649
  23169585.374   121756968.24648  23169584.480    94875551.90548
  22335094.446   117371739.03947  22335093.492    91458497.93148
  25697610.262   135041855.07347  25697610.867   105227422.82447
  21452825.672   112735372.43549  21452824.342    87845747.84649
  21610645.493   113564711.37548  21610643.371    88491973.04149
  23999673.600   126119149.19047  23999672.305    98274681.62647
  23821150.016   125180965.79748  23821146.756    97543594.50348
  24440808.603   128437331.71248  24440808.436   100081070.65348
  25553921.180   134286746.75546  25553921.748   104639011.18247
 06  4 25 15 23  0.0000000  0 10G 2G 4G 6G 7G10G13G16G23G27G30
  20943557.553   110059147.27949  20943553.668    85760346.03649
  23189630.643   121862306.78348  23189629.738    94957633.85248
  22330200.264   117346020.25148  22330199.511    91438457.33748
  25678741.795   134942700.35846  25678742.411   105150159.43447
  21438297.881   112659028.18649  21438296.536    87786258.84449
  21620317.500   113615537.86449  21620315.223    88531578.09749
  23989685.663   126066662.60247  23989684.763    98233782.96948
  23840587.953   125283112.75548  23840584.679    97623189.51848
  24423988.034   128348939.49847  24423988.035   100012193.67347
  25574364.067   134394174.63146  25574364.493   104722721.15147
 06  4 25 15 23 30.0000000  0 10G 2G 4G 6G 7G10G13G16G23G27G30
  20954821.441   110118339.44349  20954817.630    85806469.79549
  23209687.893   121967708.25048  23209686.929    95039764.79048
  22325384.792   117320715.61748  22325384.305    91418739.52849
  25659874.732   134843553.52246  25659875.379   105072902.21547
  21423822.571   112582959.92149  21423821.193    87726984.89049
  21630068.863   113666781.59649  21630066.518    88571508.27149
  23979767.100   126014540.07547  23979766.480    98193167.94548
  23860050.162   125385387.38248  23860046.950    97702884.01548
  24407181.209   128260619.22447  24407181.176    99943372.74048
  25594802.473   134501578.93346  25594802.933   104806412.74046
 06  4 25 15 24  0.0000000  0 10G 2G 4G 6G 7G10G13G16G23G27G30
  20966217.086   110178223.89949  20966213.284    85853132.99949
  23229814.863   122073476.15748  23229813.728    95122181.26148
  22320706.517   117296131.49448  22320706.221    91399583.08949
  25641067.774   134744721.72746  25641068.466   104995890.26947
  21409458.278   112507474.95549  21409456.863    87668165.42449
  21639957.443   113718746.24349  21639955.013    88612000.19149
  23969976.314   125963089.27447  23969975.889    98153076.45747
  23879594.275   125488092.38848  23879591.144    97782913.87848
  24390446.589   128172678.76247  24390446.560    99874847.75048
  25615293.964   134609262.47446  25615294.437   104890321.99247
 06  4 25 15 24 30.0000000  0 10G 2G 4G 6G 7G10G13G16G23G27G30
  20977684.825   110238487.17849  20977681.029    85900091.40649
  23249951.849   122179296.67248  23249950.400    95204638.75448
  22316106.239   117271957.11848  22316105.985    91380745.92349
  25622261.934   134645896.78147  25622262.575   104918883.94548
  21395146.019   112432263.27949  21395144.465    87609558.95049
  21649923.453   113771118.01549  21649921.108    88652809.34149
  23960254.237   125911999.97947  23960253.991    98113266.72148
  23899160.358   125590913.09848  23899157.339    97863033.89448
  24373725.424   128084808.44747  24373725.282    99806377.41348
  25635778.625   134716910.34645  25635779.196   104974203.40646
 06  4 25 15 25  0.0000000  0 10G 2G 4G 6G 7G10G13G16G23G27G30
  20989224.427   110299128.29149  20989220.643    85947344.22749
  23270098.669   122285168.36148  23270097.034    95287136.10648
  22311584.282   117248193.98248  22311584.040    91362229.15649
  25603457.885   134547080.61547  25603458.465   104841884.32148
  21380886.161   112357327.09448  21380884.561    87551167.12449
  21659966.680   113823895.65149  21659964.606    88693934.75549
  23950601.478   125861274.29247  23950601.141    98073740.22548
  23918748.101   125693847.72947  23918745.154    97943242.66148
  24357018.217   127997011.79647  24357017.899    99737964.53648
  25656256.113   134824520.24145  25656256.592   105058055.23046
 06  4 25 15 25 30.0000000  0 10G 2G 4G 6G 7G10G13G16G23G27G30
  21000922.958   110360604.70549  21000919.254    85995247.92649
  23290342.194   122391548.18048  23290340.690    95370029.42748
  22307228.087   117225302.18048  22307227.849    91344391.40948
  25584743.399   134448735.14247  25584743.958   104765251.45048
  21366766.464   112283127.80348  21366764.978    87493349.51049
  21670174.215   113877536.36149  21670172.344    88735732.70249
  23941105.737   125811373.86947  23941105.152    98034856.83248
  23938444.463   125797352.90347  23938441.545    98023896.02748
  24340412.851   127909750.35147  24340412.439    99669968.67248
  25676813.375   134932548.50845  25676813.898   105142233.05446
 06  4 25 15 26  0.0000000  0 10G 2G 4G 6G 7G10G13G16G23G27G30
  21012721.013   110422603.87249  21012717.374    86043558.94249
  23310622.918   122498123.41848  23310621.634    95453075.00548
  22302978.671   117202971.68848  22302978.494    91326991.04149
  25566059.691   134350552.24947  25566060.214   104688745.45448
  21352728.160   112209356.14549  21352726.741    87435865.12049
  21680486.410   113931727.40449  21680484.695    88777959.49349
  23931708.261   125761989.70247  23931707.427    97996375.71948
  23958189.757   125901115.06247  23958186.950    98104749.62748
  24323850.732   127822715.83047  24323850.203    99602149.61648
  25697390.580   135040681.54444
 06  4 25 15 26 30.0000000  0 10G 2G 4G 6G 7G10G13G16G23G27G30
  21024588.469   110484967.77349  21024584.851    86092154.18549
  23330910.667   122604735.69648  23330909.540    95536149.46448
  22298806.572   117181047.19048  22298806.399    91309907.03949
  25547377.612   134252377.67047  25547378.146   104612245.85248
  21338741.822   112135857.53749  21338740.455    87378593.49149
  21690873.206   113986310.32449  21690871.399    88820491.62349
  23922379.565   125712967.26546  23922378.757    97958176.46848
  23977953.759   126004975.34147  23977951.015    98185679.66848
  24307302.493   127735754.40147  24307301.989    99534387.53948
  25717957.331   135148760.32844
 06  4 25 15 27  0.0000000  0  9G 2G 4G 6G 7G10G13G16G23G27
  21036583.317   110548000.84349  21036579.644    86141270.82749
  23351263.357   122711689.33548  23351262.249    95619489.90448
  22294770.200   117159835.82248  22294770.042    91293378.70849
  25528755.906   134154519.94147  25528756.438   104535993.07048
  21324865.997   112062940.14448  21324864.750    87321774.76649
  21701392.508   114041589.69349  21701390.499    88863566.45649
  23913178.345   125664614.74547  23913177.718    97920499.22048
  23997794.237   126109237.13147  23997791.482    98266922.56448
  24290826.922   127649174.87847  24290826.562    99466923.04548
 06  4 25 15 27 30.0000000  0  9G 2G 4G 6G 7G10G13G16G23G27
  21048675.808   110611547.34349  21048672.135    86190787.55649
  23371651.153   122818827.79948  23371649.908    95702974.39548
  22290840.313   117139183.81348  22290840.106    91277286.21448
  25510165.619   134056827.51047  25510166.149   104459869.13248
  21311071.722   111990451.24348  21311070.664    87265289.91749
  21712014.550   114097408.99349  21712012.572    88907062.00549
  23904075.481   125616779.43147  23904075.092    97883225.02348
  24017681.229   126213743.60747  24017678.441    98348356.15248
  24274395.053   127562825.07647  24274394.948    99399637.55048
 06  4 25 15 28  0.0000000  0  9G 2G 4G 6G 7G10G13G16G23G27
  21060894.696   110675757.87749  21060890.983    86240821.72549
  23392102.781   122926301.39148  23392101.402    95786720.00148
  22287046.010   117119244.33448  22287045.772    91261748.92549
  25491636.179   133959455.08347  25491636.708   104383994.60848
  21297388.380   111918545.26049  21297387.508    87209259.30549
  21722767.939   114153918.30949  21722766.110    88951095.22649
  23895100.462   125569615.63946  23895100.290    97846474.02147
  24037643.242   126318644.53747  24037640.448    98430097.07447
  24258036.207   127476859.48147  24258036.345    99332651.42948
 06  4 25 15 28 30.0000000  0  9G 2G 4G 6G 7G10G13G16G23G27
  21073181.224   110740323.76649  21073177.434    86291132.78449
  23412559.358   123033801.45948  23412558.046    95870486.25948
  22283329.012   117099711.66148  22283328.752    91246528.66249
  25473109.727   133862098.01447  25473110.274   104308131.95848
  21283758.016   111846917.21649  21283757.100    87153445.25149
  21733593.905   114210809.29748  21733592.337    88995425.84849
  23886194.996   125522818.00547  23886195.057    97810008.42448
  24057621.416   126423630.55047  24057618.593    98511904.33648
  24241692.690   127390974.46448  24241692.946    99265728.10048
 06  4 25 15 29  0.0000000  0  9G 2G 4G 6G 7G10G13G16G23G27
  21085564.487   110805398.34649  21085560.636    86341840.23849
  23433049.972   123141480.76948  23433049.001    95954392.17048
  22279719.078   117080741.45148  22279718.718    91231746.67749
  25454616.187   133764913.93347  25454616.753   104232404.11248
  21270210.430   111775723.92049  21270209.406    87097969.96049
  21744521.594   114268234.72349  21744520.371    89040172.91449
  23877389.228   125476543.53847  23877389.271    97773950.38948
  24077644.698   126528853.95246  24077641.994    98593896.56547
  24225394.555   127305327.03548  24225394.619    99198989.89348
 06  4 25 15 29 30.0000000  0  9G 2G 4G 6G 7G10G13G16G23G27
  21098074.106   110871137.02749  21098070.163    86393065.18949
  23453604.316   123249494.76748  23453603.719    96038558.86448
  22276246.257   117062491.71648  22276245.780    91217526.10849
  25436185.958   133668062.73647  25436186.522   104156935.70948
  21256775.850   111705124.22849  21256774.755    87042957.21649
  21755580.509   114326349.90048  21755579.604    89085457.43749
  23868713.348   125430951.57947  23868713.173    97738424.21748
  24097742.752   126634469.50146  24097740.073    98676194.33648
  24209172.015   127220077.19847  24209171.909    99132561.51748
 06  4 25 15 30  0.0000000  0  9G 2G 4G 6G 7G10G13G16G23G27
  21110622.547   110937079.52949  21110618.538    86444448.93849
  23474134.725   123357382.88847  23474134.386    96122627.48148
  22272823.437   117044504.77048  22272822.802    91203510.33749
  25417732.297   133571088.44047  25417732.848   104081371.40348
  21243367.291   111634661.49049  21243366.177    86988051.20449
  21766683.059   114384694.25648  21766682.290    89130920.54949
  23860080.389   125385585.35447  23860079.991    97703073.96848
  24117827.605   126740016.01946  24117825.021    98758438.31147
  24192938.374   127134768.87147  24192938.080    99066087.57648
 06  4 25 15 30 30.0000000  0  9G 2G 4G 6G 7G10G13G16G23G27
  21123356.435   111003996.24949  21123352.397    86496591.80549
  23494787.705   123465914.93348  23494787.440    96207197.85048
  22269597.663   117027552.93448  22269596.920    91190301.07748
  25399402.517   133474765.29547  25399403.048   104006314.53048
  21230132.033   111565109.39749  21230130.781    86933854.78349
  21777975.690   114444037.43449  21777974.892    89177161.96049
  23851637.542   125341218.04647  23851636.983    97668502.07547
  24138045.738   126846262.90046  24138043.259    98841228.05147
  24176840.902   127050176.42747  24176840.514    99000171.45148
 06  4 25 15 31  0.0000000  0  9G 2G 4G 6G 7G10G13G16G23G27
  21136158.308   111071270.60849  21136154.365    86549013.38249
  23515445.970   123574474.53548  23515445.609    96291789.69048
  22266452.110   117011022.65848  22266451.348    91177420.26448
  25381080.184   133378481.16147  25381080.703   103931288.02748
  21216953.397   111495855.26248  21216951.968    86879890.52949
  21789341.189   114503763.25248  21789340.298    89223701.52149
  23843268.343   125297237.42447  23843267.655    97634231.51148
  24158279.808   126952593.03146  24158277.290    98924082.65447
  24160763.126   126965688.01647  24160762.688    98934336.37848
 06  4 25 15 31 30.0000000  0  9G 2G 4G 6G 7G10G13G16G23G27
  21149028.344   111138903.29249  21149024.505    86601714.20249
  23536109.558   123683061.98748  23536109.049    96376403.24148
  22263387.343   116994917.29548  22263386.510    91164870.70448
  25362766.189   133282240.87547  25362766.764   103856295.66748
  21203832.187   111426903.33649  21203830.697    86826161.77249
  21800779.505   114563871.76149  21800778.544    89270539.32249
  23834973.447   125253647.38647  23834972.767    97600265.33348
  24178529.739   127059006.41947  24178527.045    99007002.14048
  24144706.087   126881308.17548  24144705.612    98868585.93148
 06  4 25 15 32  0.0000000  0  9G 2G 4G 6G 7G10G13G16G23G27
  21162054.479   111207356.03149  21162050.677    86655053.98249
  23556866.322   123792139.08348  23556865.792    96461398.32248
  22260491.677   116979700.87248  22260490.791    91153013.84349
  25344549.230   133186510.73047  25344549.846   103781700.80648
  21190857.011   111358718.88949  21190855.667    86773031.03749
  21812378.528   114624824.78648  21812377.534    89318035.15249
  23826841.387   125210913.02847  23826840.849    97566965.83148
  24198883.123   127165963.89247  24198880.327    99090345.58348
  24128758.563   126797503.02847  24128757.967    98803283.24148
 06  4 25 15 32 30.0000000  0  9G 2G 4G 6G 7G10G13G16G23G27
  21175119.707   111276014.27049  21175115.967    86708553.87849
  23577599.194   123901090.81048  23577598.821    96546295.73748
  22257648.683   116964761.12247  22257647.796    91141372.50249
  25326313.255   133090680.31947  25326313.872   103707027.82448
  21177911.604   111290690.88049  21177910.395    86720022.21749
  21824021.206   114686007.10049  21824020.142    89365709.68549
  23818755.881   125168423.31547  23818755.371    97533856.99348
  24219222.927   127272850.00446  24219220.036    99173633.38648
  24112804.184   126713662.35947  24112803.626    98737952.91248
 06  4 25 15 33  0.0000000  0  9G 2G 4G 6G 7G10G13G16G23G27
  21188341.257   111345493.88649  21188337.510    86762693.79449
  23598425.344   124010532.68548  23598425.206    96631575.05148
  22254976.011   116950716.25748  22254975.121    91130428.47348
  25308176.166   132995369.64747  25308176.689   103632759.87248
  21165113.882   111223438.36549  21165112.747    86667617.64649
  21835824.675   114748034.06149  21835823.394    89414042.37349
  23810834.706   125126797.41846  23810834.289    97501421.27048
  24239666.161   127380280.10846  24239663.209    99257345.10548
  24096961.005   126630405.95147  24096960.540    98673077.84448
 06  4 25 15 33 30.0000000  0  9G 2G 4G 6G 7G10G13G16G23G27
  21201572.590   111415024.82649  21201568.720    86816873.73049
  23619198.298   124119694.92248  23619198.149    96716636.50048
  22252327.539   116936798.81747  22252326.660    91119583.71848
  25289992.345   132899813.24347  25289992.875   103558300.38148
  21152317.953   111156195.05448  21152316.851    86615220.27949
  21847642.278   114810135.51549  21847640.813    89462433.07149
  23802932.032   125085268.98946  23802931.784    97469061.45848
  24260066.184   127487483.23546  24260063.194    99340879.97647
  24081083.246   126546968.08047  24081083.002    98608061.35648
 06  4 25 15 34  0.0000000  0  9G 2G 4G 6G 7G10G13G16G23G27
  21214988.932   111485527.92749  21214984.939    86871811.18649
  23640093.263   124229498.32948  23640093.009    96802197.55248
  22249879.091   116923932.32848  22249878.178    91109557.87248
  25271937.876   132804936.33347  25271938.305   103484370.37148
  21139699.786   111089886.01648  21139698.689    86563550.88849
  21859649.235   114873232.62549  21859647.636    89511599.66449
  23795224.004   125044762.78146  23795223.630    97437498.16848
  24280598.141   127595379.90046  24280595.328    99424955.22647
  24065347.188   126464274.60147  24065346.999    98543624.95848
 06  4 25 15 34 30.0000000  0  9G 2G 4G 6G 7G10G13G16G23G27
  21228502.257   111556540.74049  21228498.221    86927145.84949
  23661022.153   124339480.10547  23661021.828    96887897.59748
  22247543.044   116911656.41148  22247542.107    91099992.17949
  25253925.473   132710280.61447  25253925.821   103410612.72948
  21127171.976   111024052.02148  21127170.798    86512251.67649
  21871757.466   114936862.02648  21871755.709    89561181.01049
  23787622.881   125004818.95447  23787622.346    97406373.14848
  24301173.868   127703506.54345  24301171.237    99509209.69647
  24049665.387   126381866.61547  24049665.289    98479411.00748
 06  4 25 15 35  0.0000000  0  9G 2G 4G 6G 7G10G13G16G23G27
  21242082.828   111627906.34349  21242078.708    86982755.39249
  23681955.153   124449483.10748  23681954.650    96973614.16248
  22245290.066   116899816.99548  22245289.109    91090766.65448
  25235926.166   132615693.58547  25235926.407   103336908.57648
  21114705.393   110958539.59249  21114704.085    86461203.00849
  21883937.124   115000866.68749  21883935.199    89611054.76749
  23780099.772   124965284.78046  23780098.955    97375567.30748
  24321763.538   127811705.77046  24321760.970    99593520.71147
  24034008.956   126299591.70347  24034008.876    98415300.73848
 06  4 25 15 35 30.0000000  0  9G 2G 4G 6G 7G10G13G16G23G27
  21255730.207   111699623.39749  21255726.107    87038638.80249
  23702891.878   124559506.05548  23702891.337    97059346.30048
  22243120.302   116888414.77548  22243119.339    91081881.77749
  25217940.521   132521178.53947  25217940.653   103263260.54648
  21102300.431   110893350.82949  21102298.920    86410406.58849
  21896187.928   115065244.87549  21896185.932    89661219.56349
  23772654.925   124926162.24946  23772653.993    97345082.24748
  24342366.569   127919975.55346  24342364.222    99677886.71048
  24018378.485   126217453.11547  24018378.323    98351296.73848
 06  4 25 15 36  0.0000000  0 10G 2G 4G 6G 7G 8G10G13G16G23G27
  21269472.829   111771841.42549  21269468.886    87094912.58849
  23723860.875   124669698.28548  23723860.210    97145210.26648
  22241062.775   116877602.18048  22241061.757    91073456.38348
  25199997.809   132426889.35647  25199997.952   103189788.53048
  25956545.228   136402568.72245
  21089986.344   110828639.23949  21089984.626    86359981.95749
  21908538.218   115130146.05848  21908536.239    89711791.91149
  23765317.521   124887604.33946  23765316.633    97315037.17048
  24363011.414   128028464.97946  24363009.175    99762423.83947
  24002803.241   126135604.68747  24002802.995    98287518.81148
 06  4 25 15 36 30.0000000  0 10G 2G 4G 6G 7G 8G10G13G16G23G27
  21283368.803   111844865.45149  21283365.028    87151814.43849
  23744920.003   124780364.69148  23744919.234    97231443.76348
  22239175.837   116867685.87748  22239174.817    91065729.39849
  25182156.976   132333135.02247  25182157.083   103116733.24448
  25934519.398   136286822.92145
  21077821.673   110764713.17849  21077819.966    86310169.45849
  21921046.053   115195874.76649  21921044.047    89763009.07649
  23758146.133   124849919.15847  23758145.364    97285672.14947
  24383756.004   128137477.97145  24383753.708    99847368.92347
  23987341.941   126054355.38647  23987341.698    98224207.72948
 06  4 25 15 37  0.0000000  0 10G 2G 4G 6G 7G 8G10G13G16G23G27
  21297329.141   111918227.42749  21297325.450    87208979.59249
  23765980.390   124891037.17648  23765979.396    97317682.01148
  22237370.850   116858200.54548  22237369.933    91058338.23148
  25164329.608   132239452.35147  25164329.849   103043733.82748
  25912462.053   136170911.50846  25912462.412   106107197.45247
  21065718.112   110701108.19249  21065716.532    86260607.13549
  21933622.239   115261962.63249  21933620.274    89814506.09449
  23751052.518   124812642.11847  23751051.823    97256625.12848
  24404511.009   128246546.28845  24404508.804    99932357.16748
  23971906.443   125973241.45047  23971906.075    98161002.11848
 06  4 25 15 37 30.0000000  0 10G 2G 4G 6G 7G 8G10G13G16G23G27
  21311382.009   111992075.96949  21311378.391    87266523.91449
  23787070.256   125001864.67248  23787069.130    97404041.04048
  22235676.596   116849297.49247  22235675.848    91051400.80049
  25146545.086   132145994.33946  25146545.282   102970909.46648
  25890402.376   136054987.75246  25890403.384   106016867.29546
  21053704.509   110637976.37849  21053703.149    86211413.52949
  21946294.986   115328558.21249  21946293.211    89866398.71649
  23744065.538   124775925.57347  23744064.870    97228014.87948
  24425304.786   128355817.73046  24425302.532   100017503.66047
  23956525.964   125892416.04947  23956525.271    98098021.29748
 06  4 25 15 38  0.0000000  0 10G 2G 4G 6G 7G 8G10G13G16G23G27
  21325555.471   112066558.42049  21325551.885    87324562.19149
  23808217.520   125112994.23248  23808216.388    97490635.46348
  22234121.609   116841126.23348  22234120.990    91045033.60449
  25128832.206   132052912.80846  25128832.437   102898378.45148
  25868369.356   135939203.82646  25868370.547   105926646.13547
  21041809.658   110575468.98149  21041808.601    86162706.50049
  21959092.370   115395808.70149  21959090.725    89918801.64649
  23737213.832   124739920.33247  23737213.181    97199958.92247
  24446165.107   128465439.39446  24446162.890   100102923.06147
  23941229.169   125812031.44447  23941228.292    98035384.00648
 06  4 25 15 38 30.0000000  0 10G 2G 4G 6G 7G 8G10G13G16G23G27
  21339789.669   112141359.85149  21339786.064    87382848.99049
  23829362.398   125224111.15548  23829361.333    97577220.01348
  22232646.493   116833374.34848  22232645.915    91038993.19949
  25111131.874   131959897.49746  25111132.167   102825899.05747
  25846303.864   135823248.94246  25846305.037   105836291.75047
  21029974.447   110513274.87249  21029973.659    86114243.57949
  21971954.320   115463398.79748  21971952.702    89971469.25849
  23730438.228   124704314.60447  23730437.578    97172214.24048
  24467032.068   128575095.63846  24467029.795   100188369.39148
  23925957.026   125731776.60347  23925956.155    97972847.81548
 06  4 25 15 39  0.0000000  0 10G 2G 4G 6G 7G 8G10G13G16G23G27
  21354112.875   112216628.77549  21354109.239    87441500.06149
  23850533.041   125335363.32548  23850532.025    97663909.95648
  22231279.786   116826192.16148  22231279.258    91033396.71949
  25093473.077   131867100.70846  25093473.424   102753589.95848
  25824234.928   135707276.18147  25824236.083   105745923.44747
  21018227.695   110451545.52249  21018227.040    86066142.79249
  21984909.012   115531476.13049  21984907.310    90024516.52749
  23723767.528   124669259.96447  23723766.686    97144898.98948
  24487933.786   128684934.06446  24487931.436   100273957.71248
  23910738.632   125651803.93347  23910737.723    97910531.44548
 06  4 25 15 39 30.0000000  0 10G 2G 4G 6G 7G 8G10G13G16G23G27
  21368553.162   112292513.02948  21368549.558    87500630.62849
  23871757.654   125446899.26548  23871756.768    97750821.01248
  22230050.190   116819730.37348  22230049.743    91028361.55949
  25075885.146   131774675.53746  25075885.437   102681570.40347
  25802191.659   135591438.39747  25802192.841   105655660.30547
  21006598.354   110390433.08349  21006597.656    86018522.72049
  21997984.651   115600189.01548  21997982.881    90078059.02249
  23717230.557   124634908.38847  23717229.577    97118131.59247
  24508898.349   128795102.74346  24508895.937   100359803.33947
  23895602.972   125572266.44447  23895602.148    97848554.20048
 06  4 25 15 40  0.0000000  0 10G 2G 4G 6G 7G 8G10G13G16G23G27
  21383050.963   112368699.45849  21383047.294    87559996.65249
  23892976.717   125558405.66148  23892975.949    97837709.07348
  22228898.422   116813677.82348  22228898.073    91023645.32148
  25058309.012   131682312.70346  25058309.391   102609599.40047
  25780115.236   135475426.29447  25780116.424   105565261.31948
  20995027.348   110329627.31549  20995026.569    85971141.58649
  22011121.587   115669223.77049  22011119.734    90131852.33249
  23710768.452   124600949.45447  23710767.377    97091670.11648
  24529866.000   128905287.43046  24529863.448   100445661.44748
  23880491.284   125492854.82846  23880490.618    97786675.04248
 06  4 25 15 40 30.0000000  0 10G 2G 4G 6G 7G 8G10G13G16G23G27
  21397663.991   112445491.40549  21397660.209    87619834.50249
  23914247.822   125670185.54148  23914247.254    97924810.23048
  22227882.739   116808340.46748  22227882.441    91019486.38148
  25040803.438   131590320.35546  25040803.859   102537917.08047
  25758064.339   135359548.38947  25758065.504   105474966.92548
  20983573.256   110269435.59249  20983572.299    85924238.95449
  22024377.427   115738883.33349  22024375.514    90186132.50349
  23704439.495   124567690.28047  23704438.300    97065753.95048
  24550894.261   129015791.16046  24550891.643   100531768.17247
  23865462.212   125413877.02547  23865461.598    97725133.90648
 06  4 25 15 41  0.0000000  0 10G 2G 4G 6G 7G 8G10G13G16G23G27
  21412362.273   112522731.20949  21412358.408    87680021.35849
  23935541.057   125782081.65348  23935540.677    98012001.95748
  22226973.533   116803562.74547  22226973.339    91015763.47948
  25023339.201   131498545.35745  25023339.672   102466404.08847
  25736009.874   135243651.74047  25736011.018   105384657.93048
  20972206.722   110209703.58349  20972205.514    85877694.52349
  22037722.109   115809009.76549  22037720.224    90240776.45449
  23698214.243   124534976.20047  23698213.060    97040262.47848
  24571953.026   129126455.65146  24571950.398   100618000.15948
  23850486.580   125335179.70347  23850485.957    97663811.34848
 06  4 25 15 41 30.0000000  0 10G 2G 4G 6G 7G 8G10G13G16G23G27
  21427203.396   112600721.84049  21427199.630    87740793.24449
  23956913.987   125894397.12348  23956913.848    98099520.42748
  22226228.939   116799650.06347  22226228.821    91012714.67849
  25005974.937   131407295.28246  25005975.378   102395300.14847
  25714010.382   135128044.00547  25714011.540   105294574.05548
  20960985.993   110150738.13249  20960984.588    85831747.42749
  22051213.184   115879905.87649  22051211.503    90296020.14549
  23692151.049   124503113.74847  23692150.006    97015434.56448
  24593099.990   129237583.57146  24593097.312   100704593.26648
  23835622.904   125257070.49547  23835622.134    97602947.04148
 06  4 25 15 42  0.0000000  0 10G 2G 4G 6G 7G 8G10G13G16G23G27
  21442098.637   112678997.32549  21442095.117    87801787.11849
  23978278.092   126006665.78948  23978278.062    98187002.43548
  22225560.726   116796138.67347  22225560.668    91009978.54749
  24988622.671   131316108.69945  24988623.081   102324245.67148
  25691978.104   135012263.88347  25691979.248   105204355.84648
  20949823.104   110092076.62749  20949821.502    85786037.17449
  22064762.052   115951105.84749  22064760.503    90351500.62849
  23686161.837   124471640.34848  23686160.876    96990909.82848
  24614246.328   129348708.42646  24614243.587   100791184.01048
  23820783.182   125179087.41847  23820782.281    97542181.04148
 06  4 25 15 42 30.0000000  0 10G 2G 4G 6G 7G 8G10G13G16G23G27
  21457076.696   112757707.90449  21457073.367    87863120.01649
  23999661.826   126119037.97548  23999661.919    98274565.09848
  22224997.930   116793181.06848  22224997.966    91007673.93848
  24971312.016   131225139.93245  24971312.460   102253360.76047
  25669942.544   134896466.48347  25669943.681   105114124.16548
  20938747.352   110033872.84549  20938745.455    85740683.58349
  22078397.178   116022759.07449  22078395.699    90407334.28749
  23680275.979   124440709.64647  23680275.013    96966807.98448
  24635420.681   129459979.87046  24635417.771   100877888.94148
  23805996.880   125101385.28047  23805995.816    97481633.96747
 06  4 25 15 43  0.0000000  0 10G 2G 4G 6G 7G 8G10G13G16G23G27
  21472166.328   112837004.29549  21472162.978    87924909.38749
  24021093.913   126231664.60048  24021094.138    98362326.04648
  22224569.654   116790930.24247  22224569.758    91005920.06248
  24954072.516   131134544.50045  24954072.884   102182766.73747
  25647933.264   134780807.21547  25647934.393   105024000.12448
  20927788.016   109976281.33749  20927786.039    85695807.10749
  22092147.172   116095016.02848  22092145.731    90463638.40349
  23674522.775   124410475.60247  23674521.676    96943248.96948
  24656651.558   129571548.47547  24656648.534   100964825.43048
  23791293.529   125024119.15247  23791292.310    97421426.66248
 06  4 25 15 43 30.0000000  0 11G 2G 4G 6G 7G 8G10G13G16G23G27G29
  21487337.511   112916729.40349  21487334.063    87987032.82149
  24042544.467   126344388.39948  24042544.776    98450162.69948
  22224246.382   116789231.09348  22224246.401    91004596.06348
  24936874.784   131044170.52645  24936875.201   102112345.59747
  25625921.286   134665133.77347  25625922.409   104933865.04348
  20916916.031   109919148.63549  20916914.043    85651288.13249
  22105982.131   116167719.35249  22105980.664    90520290.32749
  23668872.667   124380784.05447  23668871.441    96920112.70348
  24677908.973   129683256.50746  24677905.843   101051870.58848
  23776644.191   124947136.67147  23776643.042    97361440.36048
  25356372.780   133248634.68646
 06  4 25 15 44  0.0000000  0 11G 2G 4G 6G 7G 8G10G13G16G23G27G29
  21502530.998   112996571.68149  21502527.408    88049247.58949
  24063954.381   126456898.25847  24063954.571    98537832.66748
  22223969.188   116787774.77148  22223969.106    91003461.30348
  24919660.785   130953710.54045  24919661.230   102041857.35747
  25603848.274   134549139.52847  25603849.399   104843479.97248
  20906072.692   109862166.53849  20906070.664    85606886.52749
  22119842.678   116240557.39548  22119841.221    90577047.24349
  23663267.111   124351327.06547  23663265.835    96897159.27348
  24699133.536   129794792.05747  24699130.412   101138781.30548
  23761990.344   124870130.15748  23761989.358    97301435.31948
  25333592.728   133128924.20846  25333593.637   103736830.55847
 06  4 25 15 44 30.0000000  0 11G 2G 4G 6G 7G 8G10G13G16G23G27G29
  21517892.558   113077296.91449  21517888.923    88112150.33349
  24085469.415   126569960.52147  24085469.458    98625933.09548
  22223884.260   116787329.03748  22223884.065    91003113.98148
  24902577.144   130863935.15045  24902577.366   101971902.63347
  25581860.891   134433595.24247  25581862.005   104753445.52148
  20895404.478   109806104.84849  20895402.429    85563202.10749
  22133874.530   116314295.80648  22133873.065    90634505.73349
  23657852.634   124322873.79647  23657851.289    96874987.89548
  24720471.008   129906921.07147  24720467.796   101226154.48048
  23747478.642   124793870.67847  23747477.844    97242012.40748
  25310896.578   133009655.25946  25310897.080   103643893.76047
 06  4 25 15 45  0.0000000  0 11G 2G 4G 6G 7G 8G10G13G16G23G27G29
  21533333.336   113158438.21749  21533329.715    88175377.29449
  24107000.660   126683107.38547  24107000.556    98714099.37448
  22223903.280   116787429.20447  22223902.972    91003191.99548
  24885535.653   130774381.60446  24885535.833   101902120.75147
  25559871.137   134318038.52247  25559872.239   104663401.38648
  20884823.134   109750499.79549  20884821.067    85519873.51149
  22147988.834   116388467.16148  22147987.309    90692301.57749
  23652540.879   124294960.36847  23652539.521    96853237.15648
  24741832.440   130019175.77846  24741829.182   101313625.60148
  23733021.063   124717894.83548  23733020.211    97182810.47048
  25288196.365   132890364.39447  25288196.539   103550939.87447
 06  4 25 15 45 30.0000000  0 11G 2G 4G 6G 7G 8G10G13G16G23G27G29
  21548881.489   113240144.15749  21548877.908    88239044.26449
  24128576.436   126796488.19647  24128576.283    98802447.99448
  22224054.894   116788225.91048  22224054.445    91003812.78648
  24868565.736   130685202.80745  24868565.852   101832630.64147
  25537908.272   134202623.20147  25537909.351   104573467.46748
  20874357.664   109695503.62549  20874355.588    85477019.37449
  22162213.733   116463219.76148  22162212.354    90750550.32349
  23647360.659   124267738.69147  23647359.414    96832025.48348
  24763245.947   130131704.30247  24763242.738   101401310.09548
  23718646.653   124642356.02447  23718645.601    97123949.03548
  25265520.970   132771204.48547  25265521.017   103458088.02647
 06  4 25 15 46  0.0000000  0 11G 2G 4G 6G 7G 8G10G13G16G23G27G29
  21564447.874   113321945.87549  21564444.293    88302785.85149
  24150107.512   126909634.35647  24150107.471    98890613.76448
  22224250.315   116789252.79048  22224249.774    91004612.93748
  24851578.801   130595935.42345  24851578.843   101763071.67847
  25515883.977   134086885.09147  25515885.035   104483282.01448
  20863919.600   109640651.45149  20863917.532    85434277.43549
  22176460.080   116538084.72648  22176458.894    90808886.58649
  23642223.480   124240743.10047  23642222.325    96810989.96248
  24784622.329   130244037.60247  24784619.185   101488842.41448
  23704266.926   124566789.95547  23704265.748    97065066.44148
  25242782.049   132651710.99047  25242782.099   103364976.23847
 06  4 25 15 46 30.0000000  0 11G 2G 4G 6G 7G 8G10G13G16G23G27G29
  21580148.819   113404454.74349  21580145.122    88367078.43649
  24171710.278   127023157.25247  24171710.309    98979073.09048
  22224606.284   116791123.51448  22224605.698    91006070.66748
  24834692.133   130507195.13745  24834692.252   101693923.41147
  25493915.602   133971440.81347  25493916.634   104393325.52048
  20853625.972   109586558.04049  20853623.933    85392126.74449
  22190844.066   116613673.17748  22190843.029    90867786.61849
  23637246.433   124214588.22947  23637245.234    96790609.54648
  24806077.875   130356786.94547  24806074.704   101576698.99248
  23689999.105   124491811.98347  23689997.950    97006642.06748
  25220096.878   132532499.58247  25220096.971   103272084.21447
 06  4 25 15 47  0.0000000  0 11G 2G 4G 6G 7G 8G10G13G16G23G27G29
  21595924.707   113487357.96849  21595920.891    88431678.35349
  24193325.280   127136744.16747  24193325.522    99067582.30448
  22225063.634   116793526.96747  22225063.101    91007943.50048
  24817847.239   130418673.58745  24817847.250   101624945.59947
  25471944.439   133855982.00947  25471945.458   104303357.72948
  20843417.859   109532913.94949  20843415.925    85350326.15449
  22205306.136   116689671.64748  22205304.996    90927006.17549
  23632370.436   124188964.53347  23632369.072    96770643.04148
  24827552.918   130469638.74747  24827549.751   101664635.40648
  23675784.499   124417114.07047  23675783.503    96948436.00148
  25197406.575   132413261.23747  25197406.684   103179171.21947
 06  4 25 15 47 30.0000000  0 11G 2G 4G 6G 7G 8G10G13G16G23G27G29
  21611832.938   113570956.44149  21611829.127    88496819.98149
  24215009.700   127250696.34547  24215010.157    99156376.13648
  22225680.034   116796766.39347  22225679.629    91010467.73648
  24801101.779   130330676.41546  24801101.896   101556376.48547
  25450028.866   133740814.90047  25450029.823   104213617.24248
  20833353.155   109480023.66749  20833351.458    85309112.93949
  22219903.589   116766381.15448  22219902.217    90986779.79448
  23627653.369   124164176.15047  23627651.845    96751327.43848
  24849104.724   130582894.02947  24849101.522   101752886.21348
  23661681.179   124343001.46847  23661680.555    96890685.97448
  25174769.292   132294301.48147  25174769.408   103086475.29448
 06  4 25 15 48  0.0000000  0 11G 2G 4G 6G 7G 8G10G13G16G23G27G29
  21627784.878   113654784.67449  21627781.216    88562140.65249
  24236675.109   127364548.52847  24236675.712    99245092.05448
  22226367.327   116800378.48247  22226367.061    91013282.37449
  24784368.478   130242742.66745  24784368.771   101487856.69847
  25428081.112   133625478.79547  25428081.997   104123745.03148
  20823344.081   109427425.59649  20823342.696    85268127.41849
  22234547.626   116843335.77648  22234546.074    91046744.44049
  23623007.332   124139760.68547  23623005.791    96732302.37648
  24870644.668   130696086.92047  24870641.442   101841088.39648
  23647601.547   124269012.84647  23647601.086    96833032.52948
  25152097.281   132175159.16547  25152097.416   102993637.09048
 06  4 25 15 48 30.0000000  0 11G 2G 4G 6G 7G 8G10G13G16G23G27G29
  21643838.808   113739148.95548  21643835.404    88627879.02349
  24258379.778   127478606.89247  24258380.379    99333968.63148
  22227184.149   116804671.41248  22227184.059    91016627.53348
  24767706.398   130155182.97045  24767706.893   101419628.24947
  25406160.468   133510284.75547  25406161.204   104033983.51748
  20813449.516   109375429.24249  20813448.338    85227610.77349
  22249296.446   116920841.28948  22249294.861    91107138.31749
  23618491.036   124116027.26747  23618489.446    96713808.72848
  24892231.001   130809523.14747  24892227.759   101929480.19348
  23633604.621   124195459.06647  23633604.330    96775717.93148
  25129449.536   132056144.74047  25129449.649   102900898.64547
 06  4 25 15 49  0.0000000  0 11G 2G 4G 6G 7G 8G10G13G16G23G27G29
  21659964.877   113823892.24149  21659961.620    88693912.74749
  24280093.863   127592714.95947  24280094.378    99422883.92048
  22228101.186   116809490.44648  22228101.099    91020382.62549
  24751086.436   130067845.38945  24751087.140   101351573.01447
  25384237.881   133395080.96847  25384238.502   103944214.40648
  20803640.251   109323881.33249  20803639.112    85187443.59849
  22264120.282   116998740.97648  22264118.742    91167839.35249
  23614075.437   124092822.35447  23614073.697    96695726.91348
  24913833.767   130923046.01147  24913830.484   102017939.52148
  23619661.571   124122187.96647  23619661.408    96718623.62248
  25106797.099   131937105.60047  25106797.190   102808140.92648
 06  4 25 15 49 30.0000000  0 12G 2G 4G 6G 7G 8G10G13G16G21G23G27G29
  21676162.134   113909009.18048  21676158.975    88760237.58149
  24301816.470   127706868.12347  24301816.889    99511834.37748
  22229117.876   116814832.84148  22229117.643    91024545.51748
  24734508.834   129980729.72045  24734509.545   101283690.66047
  25362313.365   133279867.26547  25362313.909   103854437.58348
  20793916.099   109272780.53649  20793914.968    85147624.76049
  22279018.102   117077029.42448  22279016.525    91228843.34548
  23609760.054   124070144.39447  23609758.285    96678055.74148
  25994830.601   136603760.34044
  24935451.902   131036649.89047  24935448.663   102106461.94648
  23605772.029   124049198.46247  23605772.135    96661748.71648
  25084139.857   131818041.36848  25084139.917   102715363.71048
 06  4 25 15 50  0.0000000  0 12G 2G 4G 6G 7G 8G10G13G16G21G23G27G29
  21692429.788   113994495.87549  21692426.713    88826850.56349
  24323546.804   127821061.70847  24323547.059    99600816.32348
  22230233.590   116820695.98848  22230233.248    91029114.20148
  24717973.477   129893836.20846  24717974.042   101215981.54047
  25340387.104   133164644.23747  25340387.621   103764653.47248
  20784276.891   109222126.00149  20784275.718    85108153.70749
  22293988.931   117155701.63348  22293987.399    91290146.38649
  23605544.598   124047991.61947  23605542.914    96660793.84348
  25972970.509   136488886.93744
  24957084.615   131150330.12347  24957081.388   102195043.86748
  23591936.186   123976490.96147  23591936.435    96605093.58948
  25061477.745   131698951.28847  25061477.783   102622566.28148
 06  4 25 15 50 30.0000000  0 12G 2G 4G 6G 7G 8G10G13G16G21G23G27G29
  21708795.999   114080500.11149  21708792.932    88893866.83749
  24345313.122   127935444.10747  24345313.172    99689945.38747
  22231476.968   116827229.89448  22231476.529    91034205.53948
  24701509.409   129807316.88246  24701509.874   101148563.92847
  25318488.221   133049565.05147  25318488.720   103674981.44848
  20774751.425   109172068.93349  20774750.204    85069148.19349
  22309060.941   117234905.26348  22309059.440    91351863.50049
  23601457.750   124026515.02247  23601456.253    96644058.86948
  25951128.861   136374109.14345
  24978759.969   131264234.09947  24978756.836   102283800.07848
  23578182.853   123904217.17647  23578183.205    96548776.37748
  25038839.750   131579988.10448  25038839.789   102529867.75848
 06  4 25 15 51  0.0000000  0 12G 2G 4G 6G 7G 8G10G13G16G21G23G27G29
  21725259.438   114167015.66249  21725256.406    88961281.54349
  24367114.267   128050009.55147  24367114.191    99779217.07147
  22232847.308   116834430.60947  22232846.680    91039816.48748
  24685116.418   129721170.82346  24685116.774   101081437.20747
  25296616.406   132934628.47846  25296616.913   103585420.55248
  20765339.197   109122607.18749  20765337.925    85030606.60949
  22324232.969   117314634.46848  22324231.473    91413990.15749
  23597499.112   124005711.83347  23597497.883    96627848.56948
  25929305.066   136259424.32645  25929305.217   106176165.61046
  25000476.720   131378356.45647  25000473.693   102372726.60648
  23564511.854   123832376.15547  23564512.057    96492796.40548
  25016225.593   131461150.15647  25016225.612   102437266.82848
 06  4 25 15 51 30.0000000  0 12G 2G 4G 6G 7G 8G10G13G16G21G23G27G29
  21741789.998   114253883.96348  21741786.936    89028971.08049
  24388920.129   128164599.69547  24388919.951    99868508.01048
  22234314.699   116842141.55248  22234314.016    91045824.98249
  24668765.128   129635243.87146  24668765.300   101014481.12447
  25274742.517   132819681.10546  25274743.038   103495851.25648
  20756010.630   109073585.38849  20756009.365    84992407.81149
  22339474.653   117394729.99248  22339473.282    91476402.25249
  23593638.927   123985426.58047  23593637.909    96612041.87248
  25907469.602   136144678.12645  25907469.273   106086753.07246
  25022204.821   131492537.80347  25022201.774   102461699.02448
  23550893.924   123760813.19847  23550893.843    96437033.03348
  24993605.903   131342283.10048  24993605.902   102344643.21048
 06  4 25 15 52  0.0000000  0 12G 2G 4G 6G 7G 8G10G13G16G21G23G27G29
  21758445.206   114341407.33049  21758442.093    89097171.07049
  24410788.133   128279517.01947  24410788.024    99958053.92747
  22235937.047   116850666.92347  22235936.307    91052468.11748
  24652513.895   129549843.15846  24652513.793   100947935.26047
  25252925.055   132705030.10146  25252925.605   103406512.85748
  20746823.936   109025309.20849  20746822.661    84954790.04249
  22354843.492   117475493.88148  22354842.228    91539335.11148
  23589935.393   123965964.25347  23589934.267    96596876.41848
  25885680.485   136030176.07746  25885680.350   105997530.73246
  25044001.547   131607080.06347  25043998.547   102550952.66948
  23537387.206   123689835.35647  23537387.064    96381725.62648
  24971039.019   131223693.60447  24971038.999   102252235.88848
 06  4 25 15 52 30.0000000  0 12G 2G 4G 6G 7G 8G10G13G16G21G23G27G29
  21775194.728   114429426.69349  21775191.653    89165757.56349
  24432688.290   128394603.12047  24432688.356   100047731.31448
  22237684.524   116859849.94248  22237683.671    91059623.71748
  24636333.431   129464814.31046  24636333.102   100881679.10147
  25231134.786   132590521.80846  25231135.353   103317285.63448
  20737749.623   108977623.46149  20737748.378    84917632.31049
  22370309.252   117556767.00048  22370307.936    91602664.78949
  23586358.787   123947169.18847  23586357.433    96582230.91248
  25863908.618   135915764.29945  25863908.659   105908378.70246
  25065836.731   131721824.63647  25065833.838   102640363.94248
  23523962.595   123619288.45647  23523962.346    96326754.05648
  24948495.613   131105227.55047  24948495.560   102159924.77748
 06  4 25 15 53  0.0000000  0 12G 2G 4G 6G 7G 8G10G13G16G21G23G27G29
  21791979.327   114517630.35848  21791976.213    89234487.68449
  24454561.368   128509546.23347  24454561.417   100137297.31048
  22239498.228   116869380.71047  22239497.170    91067050.28749
  24620165.309   129379850.03346  24620164.674   100815473.21447
  25209313.379   132475849.88546  25209313.978   103227930.94247
  20728729.025   108930219.83649  20728727.799    84880694.42249
  22385812.591   117638237.37948  22385811.204    91666148.17349
  23582850.452   123928732.72947  23582848.835    96567864.82148
  25842095.223   135801134.47846  25842095.377   105819056.83347
  25087651.024   131836459.26447  25087648.232   102729689.55148
  23510561.354   123548864.42547  23510561.062    96271878.19548
  24925917.161   130986577.20547  24925917.103   102067470.01948
 06  4 25 15 53 30.0000000  0 12G 2G 4G 6G 7G 8G10G13G16G21G23G27G29
  21808827.187   114606166.58649  21808824.046    89303476.90349
  24476435.500   128624495.32347  24476435.696   100226867.92048
  22241406.669   116879409.48048  22241405.478    91074864.89748
  24604038.524   129295103.14445  24604037.819   100749436.50447
  25187489.779   132361167.15146  25187490.601   103138567.79947
  20719791.015   108883250.34249  20719789.857    84844094.82449
  22401381.653   117720053.12948  22401380.262    91729900.67549
  23579438.977   123910806.21647  23579437.310    96553896.19748
  25820269.426   135686439.11146  25820269.638   105729683.79947
  25109472.719   131951132.45347  25109469.945   102819045.22148
  23497212.698   123478716.36148  23497212.178    96217217.40148
  24903332.729   130867895.43447  24903332.653   101974990.78548
 06  4 25 15 54  0.0000000  0 12G 2G 4G 6G 7G 8G10G13G16G21G23G27G29
  21825796.633   114695341.81048  21825793.335    89372964.08349
  24498369.201   128739757.04047  24498369.489   100316682.13447
  22243468.581   116890244.83748  22243467.403    91083308.04248
  24588012.361   129210885.84346  24588011.556   100683812.66747
  25165723.517   132246785.36446  25165724.534   103049439.20647
  20710994.582   108837024.80849  20710993.529    84808074.92649
  22417074.579   117802520.23348  22417073.142    91794160.73948
  23576183.425   123893698.76947  23576181.811    96540565.78648
  25798490.271   135571988.93946  25798490.555   105640501.87747
  25131359.899   132066150.08147  25131357.151   102908669.29748
  23483975.620   123409154.95247  23483974.969    96163013.74648
  24880801.479   130749493.28947  24880801.428   101882729.46448
 06  4 25 15 54 30.0000000  0 12G 2G 4G 6G 7G 8G10G13G16G21G23G27G29
  21842857.592   114784997.88048  21842854.146    89442825.91249
  24520332.173   128855173.20647  24520332.490   100406616.73747
  22245654.255   116901730.41448  22245653.098    91092257.84648
  24572057.552   129127043.97046  24572056.744   100618481.37947
  25143985.359   132132551.38246  25143986.673   102960425.76547
  20702310.165   108791388.35349  20702309.253    84772514.08049
  22432861.302   117885480.36548  22432859.840    91858804.97148
  23573054.351   123877255.62547  23573052.925    96527752.99047
  25776728.453   135457630.12846  25776728.680   105551391.22847
  25153282.571   132181354.12447  25153279.896   102998438.58648
  23470820.912   123340026.49447  23470820.141    96109147.45448
  24858294.200   130631217.08747  24858294.204   101790566.26948
 06  4 25 15 55  0.0000000  0 12G 2G 4G 6G 7G 8G10G13G16G21G23G27G29
  21859951.051   114874824.89748  21859947.646    89512820.96649
  24542265.608   128970434.53147  24542266.051   100496430.69048
  22247905.185   116913558.25648  22247903.896    91101474.36249
  24556116.136   129043272.20446  24556115.403   100553204.71947
  25122217.393   132018160.38746  25122218.900   102871290.00147
  20693679.571   108746034.68249  20693678.789    84737173.55349
  22448682.932   117968623.56248  22448681.380    91923591.87849
  23569993.290   123861169.51247  23569991.852    96515218.37548
  25754925.783   135343056.26446  25754926.019   105462112.88447
  25175181.726   132296434.58748  25175179.079   103088111.61048
  23457690.468   123271025.67048  23457689.579    96055380.62448
  24835752.795   130512761.14047  24835752.710   101698262.99848
 06  4 25 15 55 30.0000000  0 12G 2G 4G 6G 7G 8G10G13G16G21G23G27G29
  21877135.144   114965127.97648  21877131.824    89583186.95949
  24564227.769   129085846.30847  24564228.324   100586361.86747
  22250279.586   116926035.31448  22250278.250    91111196.75849
  24540247.177   128959880.57146  24540246.286   100488224.27647
  25100478.773   131903923.19746  25100480.367   102782274.09147
  20685161.557   108701272.53249  20685160.841    84702293.94749
  22464597.446   118052254.58448  22464595.832    91988758.89649
  23567058.702   123845748.08847  23567057.245    96503201.65148
  25733141.035   135228577.13546  25733141.253   105372908.47147
  25197115.375   132411696.59447  25197112.795   103177926.10348
  23444643.194   123202461.90847  23444642.219    96001954.30148
  24813236.117   130394435.41447  24813235.986   101606061.24548
 06  4 25 15 56  0.0000000  0 12G 2G 4G 6G 7G 8G10G13G16G21G23G27G29
  21894409.269   115055904.17848  21894405.919    89653921.64449
  24586218.100   129201406.12447  24586218.724   100676408.44447
  22252777.326   116939160.59348  22252775.947    91121424.25249
  24524450.897   128876870.74646  24524450.198   100423541.28147
  25078769.842   131789841.74846  25078771.499   102693379.53047
  20676756.308   108657102.55349  20676755.490    84667875.78449
  22480604.123   118136369.98848  22480602.562    92054303.37548
  23564250.771   123830992.62547  23564249.118    96491704.02948
  25711374.637   135114194.03746  25711374.856   105283778.80747
  25219082.981   132527137.17547  25219080.504   103267879.76448
  23431679.344   123134336.57047  23431678.400    95948869.63048
  24790744.516   130276241.44147  24790744.378   101513962.15048
 06  4 25 15 56 30.0000000  0 12G 2G 4G 6G 7G 8G10G13G16G21G23G27G29
  21911773.094   115147151.59948  21911769.677    89725023.52149
  24608236.316   129317112.65947  24608236.957   100766569.30047
  22255398.423   116952934.20748  22255397.040    91132156.94149
  24508727.948   128794245.81246  24508727.205   100359158.15746
  25057091.160   131675919.19445  25057092.799   102604608.78547
  20668464.058   108613526.29849  20668463.130    84633920.26949
  22496702.643   118220968.09948  22496701.185    92120223.98248
  23561569.654   123816903.32047  23561567.843    96480725.40548
  25689626.961   134999909.16546  25689627.187   105194725.64547
  25241084.224   132642754.33047  25241081.802   103357970.99448
  23418799.486   123066652.65048  23418798.637    95896128.96549
  24768278.487   130158181.91446  24768278.370   101421967.79048
 06  4 25 15 57  0.0000000  0 12G 2G 4G 6G 7G 8G10G13G16G21G23G27G29
  21929197.222   115238715.35549  21929193.731    89796371.85649
  24630252.901   129432811.12747  24630253.420   100856723.91047
  22258113.740   116967203.25948  22258112.344    91143275.68948
  24493049.699   128711855.18146  24493048.966   100294957.54847
  25035414.283   131562006.06045  25035415.818   102515845.39147
  20660255.974   108570392.34049  20660254.961    84600309.40649
  22512863.454   118305893.73048  22512862.106    92186399.78249
  23558986.272   123803327.96447  23558984.402    96470147.27048
  25667869.348   134885572.45046  25667869.582   105105632.17047
  25263089.595   132758393.24447  25263087.286   103448079.14748
  23405974.890   122999258.97148  23405974.216    95843614.41948
  24745809.345   130040106.27546  24745809.222   101329960.88447
 06  4 25 15 57 30.0000000  0 12G 2G 4G 6G 7G 8G10G13G16G21G23G27G29
  21946710.453   115330747.75448  21946707.006    89868085.38649
  24652297.207   129548654.45446  24652297.614   100946991.35747
  22260952.629   116982121.72348  22260951.201    91154900.46048
  24477445.921   128629856.74346  24477445.256   100231062.74447
  25013769.036   131448259.57945  25013770.532   102427211.84247
  20652161.680   108527856.47449  20652160.609    84567164.57649
  22529115.478   118391298.53648  22529114.114    92252948.97648
  23556530.308   123790422.19347  23556528.375    96460090.87548
  25646131.581   134771340.12046  25646131.810   105016620.06547
  25285128.103   132874206.22547  25285125.853   103538322.96048
  23393235.444   122932312.76448  23393235.019    95791448.53748
  24723367.114   129922171.67946  24723366.862   101238063.89247
 06  4 25 15 58  0.0000000  0 12G 2G 4G 6G 7G 8G10G13G16G21G23G27G29
  21964283.354   115423094.13048  21964280.143    89940043.56949
  24674339.744   129664488.23947  24674340.118   101037251.38247
  22263886.059   116997536.75248  22263884.539    91166912.17448
  24461888.144   128548099.82746  24461887.686   100167356.09447
  24992127.077   131334530.44646  24992128.504   102338591.82647
  20644152.393   108485767.54649  20644151.274    84534368.03449
  22545429.241   118477028.03248  22545427.777    92319751.17048
  23554172.928   123778034.10947  23554171.063    96450437.89048
  25624385.071   134657061.44246  25624385.288   104927571.75547
  25307170.408   132990038.66747  25307168.181   103628581.92048
  23380552.725   122865663.90548  23380552.297    95739514.37848
  24700923.205   129804227.64546  24700922.758   101146159.53847
 06  4 25 15 58 30.0000000  0 12G 2G 4G 6G 7G 8G10G13G16G21G23G27G29
  21981974.734   115516062.70848  21981971.685    90012486.57149
  24696439.070   129780620.88346  24696439.438   101127744.31247
  22266972.957   117013758.29048  22266971.416    91179552.32548
  24446435.885   128466897.43947  24446435.829   100104081.51047
  24970548.105   131221132.18246  24970549.299   102250229.61947
  20636287.495   108444437.38049  20636286.316    84502162.72149
  22561863.404   118563390.23648  22561861.809    92387046.37748
  23551973.141   123766474.36847  23551971.484    96441430.32448
  25602689.275   134543049.07646  25602689.485   104838730.91447
  25329274.902   133106198.47047  25329272.745   103719096.00748
  23367985.863   122799624.51048  23367985.469    95688055.13148
  24678537.063   129686587.26645  24678536.432   101054491.80547
 06  4 25 15 59  0.0000000  0 12G 2G 4G 6G 7G 8G10G13G16G21G23G27G29
  21999755.271   115609499.65348  21999752.279    90085294.53749
  24718566.039   129896899.26646  24718566.478   101218350.81146
  22270184.405   117030634.37548  22270182.869    91192702.50349
  24431060.787   128386100.78147  24431060.974   100041123.20647
  24949003.867   131107916.35346  24949004.684   102162009.55347
  20628538.336   108403715.33949  20628537.075    84470431.24749
  22578388.643   118650230.98448  22578386.963    92454714.52848
  23549902.277   123755592.05847  23549900.801    96432950.59848
  25581015.744   134429153.74347  25581015.953   104749981.26947
  25351412.515   133222532.22647  25351410.441   103809745.64248
  23355506.502   122734045.39648  23355506.154    95636954.58048
  24656180.166   129569101.13745  24656179.540   100962944.22547
 06  4 25 15 59 30.0000000  0 12G 2G 4G 6G 7G 8G10G13G16G21G23G27G29
  22017566.191   115703096.36248  22017563.223    90158227.03249
  24740662.177   130013015.32146  24740662.523   101308830.76347
  22273462.104   117047858.52148  22273460.531    91206123.91749
  24415705.128   128305405.47147  24415705.594    99978243.61947
  24927436.538   130994579.68046  24927437.121   102073695.33247
  20620846.907   108363296.35849  20620845.469    84438935.94049
  22594946.200   118737241.72048  22594944.650    92522515.08148
  23547902.324   123745082.33147  23547900.879    96424761.22248
  25559306.606   134315071.73646  25559306.808   104661086.25947
  25373524.590   133338731.80847  25373522.582   103900290.72247
  23343056.879   122668622.71948  23343056.678    95585975.89948
  24633794.794   129451465.46245  24633794.193   100871280.16147
 06  4 25 16  0  0.0000000  0 12G 2G 4G 6G 7G 8G10G13G16G21G23G27G29
  22035466.225   115797161.26448  22035463.203    90231524.33249
  24762786.234   130129277.67946  24762786.348   101399424.78446
  22276865.015   117065740.78448  22276863.475    91220058.15248
  24400428.249   128225125.14547  24400428.859    99915687.53747
  24905905.846   130881435.47046  24905906.233   101985531.10147
  20613272.456   108323492.13049  20613270.926    84407919.64049
  22611594.695   118824730.21548  22611593.151    92590687.93849
  23546032.312   123735255.56947  23546030.812    96417104.04748
  25537621.275   134201115.30447  25537621.438   104572289.23147
  25395669.778   133455105.08847  25395667.743   103990971.14647
  23330696.571   122603668.86247  23330696.331    95535362.53348
  24611440.537   129333992.98645  24611439.923   100779743.25547
 06  4 25 16  0 30.0000000  0 12G 2G 4G 6G 7G 8G10G13G16G21G23G27G29
  22053425.724   115891538.85248  22053422.584    90305065.27649
  24784908.674   130245531.60745  24784908.865   101490012.13846
  22280363.989   117084127.70548  22280362.463    91234385.64448
  24385201.634   128145109.71247  24385202.264    99853338.04947
  24884383.239   130768333.68946  24884383.445   101897399.88447
  20605786.092   108284151.05049  20605784.515    84377264.28849
  22628304.610   118912541.19448  22628302.878    92659112.07148
  23544263.246   123725959.50247  23544261.550    96409860.40448
  25515931.146   134087133.46947  25515931.269   104483472.36447
  25417818.501   133571497.06846  25417816.372   104081666.20147
  23318396.894   122539033.27847  23318396.485    95484997.15648
  24589088.570   129216533.39045  24589088.179   100688216.38247
 06  4 25 16  1  0.0000000  0 12G 2G 4G 6G 7G 8G10G13G16G21G23G27G29
  22071474.421   115986385.26849  22071471.202    90378971.53949
  24807059.312   130361933.36645  24807059.428   101580714.71047
  22283988.899   117103176.63948  22283987.434    91249228.98048
  24370055.996   128065518.84947  24370056.558    99791319.22847
  24862899.364   130655435.82346  24862899.495   101809427.60547
  20598418.150   108245432.56949  20598416.587    84347094.07349
  22645105.453   119000830.43948  22645103.643    92727908.86549
  23542625.386   123717352.70947  23542623.345    96403153.88348
  25494266.670   133973286.34846  25494266.808   104394760.36247
  25440000.389   133688063.64346  25439998.286   104172497.24646
  23306188.209   122474875.95747  23306187.605    95435004.45748
  24566769.546   129099246.71845  24566769.323   100596824.24346
 06  4 25 16  1 30.0000000  0 12G 2G 4G 6G 7G 8G10G13G16G21G23G27G29
  22089582.883   116081545.69348  22089579.652    90453122.48849
  24829208.824   130478328.59046  24829208.773   101671412.19846
  22287710.551   117122734.48948  22287709.105    91264468.88449
  24354962.598   127986202.66547  24354963.121    99729514.46848
  24841425.779   130542592.09146  24841425.892   101721497.47847
  20591139.874   108207184.87749  20591138.356    84317290.65049
  22661967.822   119089442.90948  22661965.878    92796957.52548
  23541089.827   123709282.91747  23541087.509    96396865.80048
  25472599.198   133859423.76547  25472599.342   104306036.36947
  25462186.077   133804650.28546  25462183.983   104263343.96546
  23294041.970   122411046.54148  23294041.086    95385267.27548
  24544454.911   128981982.95945  24544454.768   100505449.93246
 06  4 25 16  2  0.0000000  0 12G 2G 4G 6G 7G 8G10G13G16G21G23G27G29
  22107751.548   116177022.45248  22107748.402    90527519.92049
  24851357.336   130594719.86745  24851357.416   101762106.62746
  22291529.830   117142805.25048  22291528.359    91280108.43249
  24339922.920   127907168.12147  24339923.319    99667929.05847
  24819963.998   130429810.01246  24819964.138   101633615.37247
  20583952.260   108169413.49049  20583950.765    84287858.38649
  22678892.085   119178380.29548  22678890.174    92866259.40449
  23539657.260   123701755.22447  23539654.917    96391000.10448
  25450930.118   133745551.97746  25450930.289   104217305.09348
  25484375.912   133921259.28045  25484374.063   104354208.07246
  23281959.272   122347551.37748  23281958.127    95335790.54848
  24522145.826   128864748.95845  24522145.780   100414098.85347
 06  4 25 16  2 30.0000000  0 12G 2G 4G 6G 7G 8G10G13G16G21G23G27G29
  22126038.731   116273122.12248  22126035.701    90602402.75849
  24873563.653   130711414.76045  24873563.952   101853037.61946
  22295505.488   117163697.63148  22295504.015    91296388.20549
  24324996.156   127828727.00947  24324996.371    99606806.10848
  24798573.400   130317401.88346  24798573.565   101546024.70847
  20576914.439   108132429.21049  20576912.986    84259039.45249
  22695936.663   119267949.37448  22695934.967    92936053.45448
  23538386.890   123695079.19847  23538384.613    96385797.98648
  25429318.615   133631983.16847  25429318.797   104128810.05347
  25506628.902   134038198.00345  25506627.098   104445329.09345
  23269999.559   122284702.22547  23269998.198    95286817.20049
  24499901.815   128747856.29745  24499901.808   100323013.75747
 06  4 25 16  3  0.0000000  0 12G 2G 4G 6G 7G 8G10G13G16G21G23G27G29
  22144385.917   116369537.17148  22144382.975    90677531.33949
  24895769.480   130828106.28945  24895769.819   101943965.96146
  22299579.342   117185105.99948  22299577.976    91313070.05249
  24310124.738   127750576.55547  24310124.794    99545909.54548
  24777196.470   130205065.72946  24777196.770   101458490.11447
  20569968.407   108095927.75149  20569967.063    84230596.77649
  22713042.836   119357842.64248  22713041.372    93006100.13348
  23537220.583   123688949.99847  23537218.405    96381021.96448
  25407707.069   133518413.54347  25407707.278   104040314.24747
  25528885.512   134155159.21544  25528883.574   104536467.67255
  23258104.816   122222195.55548  23258103.551    95238110.73349
  24477664.996   128631002.33545  24477665.212   100231958.80147
 06  4 25 16  3 30.0000000  0 12G 2G 4G 6G 7G 8G10G13G16G21G23G27G29
  22162764.225   116466115.58348  22162761.319    90752787.24449
  24917945.627   130944642.82345  24917946.087   102034773.63446
  22303722.686   117206879.54948  22303721.487    91330036.47249
  24295280.432   127672569.63748  24295280.451    99485124.97548
  24755805.243   130092654.48246  24755805.571   101370896.98047
  20563085.933   108059760.32849  20563084.713    84202414.39249
  22730181.546   119447907.51048  22730180.284    93076280.52049
  23536129.898   123683218.25347  23536127.785    96376555.64948
  25386067.252   133404696.06746  25386067.429   103951703.37048
  25551117.858   134271990.73054
  23246247.233   122159883.81547  23246246.059    95189556.16249
  24455407.535   128514039.24246  24455407.703   100140818.80247
 06  4 25 16  4  0.0000000  0 11G 2G 4G 6G 7G 8G10G13G16G21G27G29
  22181290.985   116563473.80148  22181288.040    90828650.75749
  24940209.669   131061641.18845  24940210.341   102125941.06347
  22308053.127   117229636.41848  22308052.067    91347769.09849
  24280581.650   127595327.30248  24280581.448    99424936.26447
  24734518.110   129980790.06046  24734518.250   101283730.02347
  20556384.975   108024546.55349  20556383.800    84174975.11649
  22747470.201   119538760.44748  22747469.051    93147075.00548
  23535232.655   123678503.24047  23535230.586    96372881.58547
  25364517.272   133291450.69146  25364517.478   103863460.32848
  23234544.794   122098387.67448  23234543.649    95141637.15548
  24433247.528   128397588.09046  24433247.743   100050077.66047
 06  4 25 16  4 30.0000000  0 11G 2G 4G 6G 7G 8G10G13G16G21G27G29
  22199848.819   116660995.31548  22199845.921    90904641.48849
  24962444.265   131178485.11845  24962445.046   102216988.24647
  22312453.641   117252761.77448  22312452.701    91365788.86749
  24265911.876   127518237.55548  24265911.544    99364866.45947
  24713218.712   129868861.25047  24713218.656   101196512.84247
  20549748.799   107989673.28049  20549747.575    84147801.13749
  22764791.437   119629784.68848  22764790.319    93218002.98348
  23534411.870   123674190.54647  23534409.871    96369521.01748
  25342940.847   133178065.80946  25342941.158   103775108.40447
  23222881.138   122037095.00247  23222879.941    95093876.62548
  24411068.515   128281037.34146  24411068.610    99959259.00647
 06  4 25 16  5  0.0000000  0 11G 2G 4G 6G 7G 8G10G13G16G21G27G29
  22218467.109   116758834.74549  22218464.318    90980879.96049
  24984679.214   131295329.90945  24984679.876   102308036.09647
  22316954.036   117276411.88448  22316953.320    91384217.52349
  24251301.444   127441459.84047  24251300.993    99305039.72947
  24691937.488   129757027.62947  24691937.449   101109369.85448
  20543207.533   107955298.63349  20543206.172    84121015.71649
  22782174.696   119721134.60948  22782173.533    93289184.71548
  23533697.728   123670437.54847  23533695.706    96366596.60248
  25321368.047   133064700.76446  25321368.366   103686772.17748
  23211286.430   121976164.65147  23211285.168    95046398.43748
  24388900.840   128164546.01547  24388900.893    99868486.62947
 06  4 25 16  5 30.0000000  0 11G 2G 4G 6G 7G 8G10G13G16G21G27G29
  22237145.596   116856991.07748  22237142.900    91057365.38149
  25006914.305   131412175.16545  25006914.896   102399084.25446
  22321554.495   117300587.33548  22321553.859    91403055.52348
  24236751.081   127364997.54247  24236750.578    99245458.71047
  24670675.152   129645293.64547  24670675.226   101022304.51447
  20536761.566   107921424.75349  20536760.118    84094620.48349
  22799619.776   119812808.84548  22799618.393    93360619.18848
  23533090.438   123667245.81047  23533088.352    96364109.46448
  25299799.800   132951358.70246  25299800.005   103598453.75347
  23199761.302   121915600.03548  23199760.013    94999205.25948
  24366745.145   128048117.61846  24366745.096    99777763.28047
 06  4 25 16  6  0.0000000  0 11G 2G 4G 6G 7G 8G10G13G16G21G27G29
  22255914.101   116955620.27048  22255911.312    91134219.26749
  25029179.224   131529177.47545  25029179.701   102490254.84547
  22326284.899   117325445.74448  22326284.304    91422425.71748
  24222291.431   127289012.19247  24222290.846    99186249.46447
  24649462.590   129533821.00447  24649462.619   100935442.81047
  20530441.282   107888211.34049  20530439.774    84068739.88749
  22817156.303   119904963.47548  22817154.809    93432427.97348
  23532620.140   123664774.15847  23532617.948    96362183.42448
  25278266.430   132838200.17546  25278266.556   103510278.34847
  23188336.381   121855561.51348  23188334.978    94952422.02848
  24344632.195   127931913.21547  24344632.048    99687214.42147
 06  4 25 16  6 30.0000000  0 11G 2G 4G 6G 7G 8G10G13G16G21G27G29
  22274743.752   117054570.93948  22274740.862    91211323.65949
  25051445.254   131646185.81846  25051445.837   102581430.07447
  22331116.789   117350837.15248  22331116.106    91442211.23448
  24207894.417   127213356.06347  24207893.923    99127296.62747
  24628271.909   129422463.47547  24628271.820   100848670.77747
  20524218.443   107855509.97849  20524216.856    84043258.29849
  22834755.392   119997446.87548  22834753.836    93504492.95048
  23532258.530   123662873.57347  23532256.213    96360702.46148
  25256740.056   132725078.47046  25256740.154   103422131.57747
  23176983.537   121795902.10548  23176982.103    94905934.18248
  24322533.777   127815785.77947  24322533.513    99596725.58347
 06  4 25 16  7  0.0000000  0 11G 2G 4G 6G 7G 8G10G13G16G21G27G29
  22293664.021   117153997.77948  22293661.033    91288799.09749
  25073741.994   131763355.35446  25073742.568   102672730.93047
  22336079.755   117376917.68648  22336078.962    91462533.70348
  24193590.711   127138189.01547  24193590.205    99068724.72947
  24607133.615   129311381.26947  24607133.523   100762113.33147
  20518123.039   107823478.44549  20518121.417    84018298.64949
  22852446.463   120090413.67548  22852444.844    93576934.60948
  23532035.581   123661701.50148  23532033.286    96359789.17648
  25235250.975   132612152.86946  25235251.010   103334137.65948
  23165733.098   121736780.58548  23165731.589    94859865.46048
  24300480.423   127699894.77947  24300480.103    99506420.96148
 06  4 25 16  7 30.0000000  0 11G 2G 4G 6G 7G 8G10G13G16G21G27G29
  22312616.586   117253594.15048  22312613.592    91366406.62749
  25096011.194   131880380.47746  25096011.795   102763919.25547
  22341115.887   117403382.76748  22341114.932    91483155.84948
  24179322.690   127063210.06347  24179322.166    99010299.68448
  24585990.414   129200273.34347  24585990.519   100675535.79347
  20512097.461   107791813.72549  20512095.831    83993624.81949
  22870171.118   120183557.02448  22870169.505    93649513.82148
  23531893.364   123660953.49148  23531891.133    96359206.23848
  25213741.679   132499121.13046  25213741.724   103246061.00647
  23154527.567   121677894.87448  23154525.869    94813980.50349
  24278414.626   127583938.44746  24278414.376    99416065.40448
 06  4 25 16  8  0.0000000  0 11G 2G 4G 6G 7G 8G10G13G16G21G27G29
  22331690.323   117353827.43948  22331687.492    91444510.46549
  25118341.855   131997728.48546  25118342.484   102855359.16248
  22346314.313   117430700.71148  22346313.259    91504442.53349
  24165179.919   126988890.17347  24165179.562    98952388.11548
  24564932.143   129089611.69547  24564932.177   100589306.03047
  20506231.177   107760986.09749  20506229.597    83969603.29149
  22888018.147   120277343.82448  22888016.583    93722594.43348
  23531921.155   123661099.31347  23531919.022    96359319.87748
  25192301.977   132386455.17646  25192301.944   103158269.41247
  23143456.644   121619716.37548  23143454.774    94768646.62648
  24256426.136   127468388.65346  24256425.997    99326026.67048
 06  4 25 16  8 30.0000000  0 11G 2G 4G 6G 7G 8G10G13G16G21G27G29
  22350827.363   117454393.20248  22350824.629    91522873.37149
  25140676.149   132115095.86546  25140676.787   102946814.14748
  22351617.478   117458569.00148  22351616.373    91526158.05448
  24151105.769   126914929.92448  24151105.520    98894756.73348
  24543901.981   128979097.76147  24543901.936   100503191.33247
  20500467.021   107730694.91149  20500465.413    83945999.79549
  22905929.683   120371469.67548  22905928.103    93795939.24048
  23532061.599   123661837.13347  23532059.573    96359894.72248
  25170875.016   132273855.20546  25170874.835   103070529.10648
  23132463.228   121561945.23748  23132461.304    94723630.17248
  24234458.117   127352945.81246  24234457.947    99236071.27247
 06  4 25 16  9  0.0000000  0 11G 2G 4G 6G 7G 8G10G13G16G21G27G29
  22369999.085   117555141.09348  22369996.410    91601378.17149
  25162985.763   132232333.21346  25162986.399   103038167.84248
  22356997.059   117486838.86048  22356995.949    91548186.49048
  24137072.381   126841184.18848  24137072.155    98837292.57648
  24522872.422   128868587.14847  24522872.278   100417079.24147
  20494777.007   107700793.37449  20494775.347    83922699.86249
  22923877.081   120465784.45248  22923875.683    93869431.26948
  23532286.620   123663019.59447  23532284.592    96360816.10548
  25149432.875   132161176.05246  25149432.705   102982727.20047
  23121519.580   121504435.63648  23121517.653    94678817.50248
  24212482.698   127237464.39346  24212482.569    99146085.80248
 06  4 25 16  9 30.0000000  0 12G 2G 4G 6G 7G 8G10G13G16G21G26G27G29
  22389206.042   117656073.89748  22389203.272    91680027.06049
  25185271.162   132349443.43147  25185271.825   103129422.46748
  22362453.852   117515514.37548  22362452.722    91570531.02948
  24123081.239   126767660.08448  24123080.852    98780001.09048
  24501844.928   128758087.36048  24501844.643   100330975.56147
  20489162.140   107671286.89149  20489160.387    83899707.79249
  22941860.965   120560290.33848  22941859.791    93943072.18248
  23532597.167   123664651.81147  23532595.137    96362088.04948
  25127976.897   132048424.25446  25127976.652   102894868.65647
  25443564.628   133706839.25545
  23110627.051   121447194.19848  23110625.036    94634213.77349
  24190501.425   127121951.77046  24190501.134    99056076.03048
 06  4 25 16 10  0.0000000  0 12G 2G 4G 6G 7G 8G10G13G16G21G26G27G29
  22408507.422   117757502.64648  22408504.459    91759062.41349
  25207591.704   132466738.23247  25207592.383   103220820.92348
  22368047.191   117544907.85247  22368046.083    91593435.03648
  24109192.268   126694673.08247  24109191.822    98723128.05547
  24480879.758   128647915.12047  24480879.328   100245127.10047
  20483682.219   107642489.83649  20483680.402    83877268.54349
  22959940.329   120655298.19248  22959939.443    94017104.27448
  23533052.882   123667046.64247  23533050.819    96363954.14548
  25106567.195   131935915.54346  25106566.740   102807199.49147
  25418313.551   133574147.91846  25418313.810   104083741.12746
  23099845.488   121390536.39048  23099843.426    94590064.85249
  24168574.185   127006723.62947  24168573.848    98966287.93147
 06  4 25 16 10 30.0000000  0 12G 2G 4G 6G 7G 8G10G13G16G21G26G27G29
  22427874.033   117859273.96448  22427870.857    91838364.70149
  25229918.181   132584064.59747  25229918.916   103312243.99848
  22373748.313   117574867.45148  22373747.377    91616780.13148
  24095377.201   126622074.88347  24095376.649    98666558.10448
  24459948.694   128537922.13347  24459948.265   100159418.33347
  20478308.768   107614252.22749  20478306.911    83855265.18449
  22978085.979   120750654.41448  22978085.318    94091407.78748
  23533624.963   123670052.91547  23533622.923    96366296.69348
  25085175.347   131823501.12346  25085174.881   102719603.80847
  25393066.036   133441470.70446  25393066.182   103980356.27947
  23089146.574   121334313.12348  23089144.604    94546254.52948
  24146672.769   126891631.22346  24146672.187    98876605.63548
 06  4 25 16 11  0.0000000  0 12G 2G 4G 6G 7G 8G10G13G16G21G26G27G29
  22447334.804   117961540.66348  22447331.560    91918052.99749
  25252279.964   132701576.46847  25252280.690   103403811.60048
  22379586.541   117605547.45147  22379585.692    91640686.61648
  24081666.168   126550023.16647  24081665.704    98610413.98348
  24439082.049   128428267.36447  24439081.621   100073973.10148
  20473071.440   107586730.19349  20473069.609    83833819.46249
  22996326.980   120846511.98948  22996326.400    94166101.96748
  23534343.043   123673826.45247  23534341.156    96369237.04948
  25063831.574   131711338.80446  25063831.065   102632204.51447
  25367851.192   133308965.55646  25367851.346   103877105.52447
  23078560.215   121278681.40048  23078558.495    94502905.11748
  24124827.184   126776832.52747  24124826.459    98787152.15448
 06  4 25 16 11 30.0000000  0 12G 2G 4G 6G 7G 8G10G13G16G21G26G27G29
  22466859.905   118064145.73148  22466856.718    91998005.00249
  25274647.288   132819117.10847  25274648.010   103495401.60048
  22385532.280   117636792.33548  22385531.523    91665033.26948
  24068030.076   126478365.36647  24068029.793    98554576.80348
  24418250.785   128318798.83347  24418250.230    99988673.03848
  20467941.029   107559769.82549  20467939.269    83812811.39049
  23014633.645   120942714.04048  23014632.986    94241064.56548
  23535177.801   123678212.60547  23535175.893    96372654.81448
  25042506.702   131599276.25546  25042506.225   102544883.07847
  25342640.089   133176480.15846  25342640.137   103773870.18047
  23068057.217   121223488.36548  23068055.983    94459897.55749
  24103008.578   126662175.00847  24103007.740    98697808.64748
 06  4 25 16 12  0.0000000  0 12G 2G 4G 6G 7G 8G10G13G16G21G26G27G29
  22486419.316   118166931.28848  22486416.251    92078097.61849
  25296990.193   132936529.24247  25296990.913   103586891.48948
  22391555.686   117668445.39048  22391554.970    91689697.99848
  24054439.794   126406948.26447  24054439.816    98498927.14748
  24397425.921   128209363.99248  24397425.261    99903399.17947
  20462888.070   107533216.28549  20462886.338    83792120.32949
  23032975.604   121039101.30948  23032974.782    94316171.49748
  23536099.442   123683055.60847  23536097.458    96376428.68648
  25021171.659   131487159.72046  25021171.202   102457519.50547
  25317403.496   133043861.18547  25317403.583   103670530.74048
  23057608.466   121168580.40148  23057607.633    94417112.15549
  24081187.637   126547505.37647  24081186.780    98608455.77548
 06  4 25 16 12 30.0000000  0 12G 2G 4G 6G 7G 8G10G13G16G21G26G27G29
  22506041.670   118270047.57948  22506038.670    92158447.95349
  25319337.347   133053964.01647  25319338.089   103678399.03548
  22397685.555   117700658.47448  22397684.942    91714799.14548
  24040924.814   126335927.09547  24040925.238    98443586.08548
  24376637.165   128100118.43847  24376636.343    99818272.81448
  20457941.756   107507223.16749  20457940.021    83771865.95449
  23051381.583   121135824.81847  23051380.691    94391540.42948
  23537136.918   123688507.46048  23537134.862    96380676.90048
  24999855.993   131375144.35846  24999855.532   102370234.68047
  25292171.017   132911263.48947  25292171.107   103567207.84447
  23047243.518   121114112.63948  23047243.006    94374669.76949
  24059393.985   126432978.77347  24059393.110    98519214.30848
 06  4 25 16 13  0.0000000  0 12G 2G 4G 6G 7G 8G10G13G16G21G26G27G29
  22525755.855   118373646.62948  22525752.888    92239174.44449
  25341717.732   133171573.45147  25341718.523   103770042.67148
  22403951.138   117733584.58448  22403950.597    91740455.89448
  24027514.830   126265457.87147  24027515.747    98388675.05648
  24355914.329   127991219.48148  24355913.383    99733416.57147
  20453131.474   107481945.18249  20453129.812    83752168.82949
  23069880.458   121233036.49947  23069879.471    94467289.74848
  23538319.676   123694722.86048  23538317.334    96385520.11548
  24978589.263   131263386.78246  24978588.824   102283150.84947
  25266972.444   132778843.93947  25266972.520   103464023.75248
  23036991.929   121060240.55048  23036991.662    94332691.54449
  24037657.216   126318751.53547  24037656.464    98430206.09548
 06  4 25 16 13 30.0000000  0 12G 2G 4G 6G 7G 8G10G13G16G21G26G27G29
  22545502.175   118477414.77248  22545499.252    92320032.72249
  25364071.893   133289045.17347  25364072.751   103861578.99448
  22410293.014   117766911.86748  22410292.588    91766425.22348
  24014151.161   126195232.34747  24014152.477    98333953.95048
  24335198.901   127882359.54547  24335198.111    99648590.74747
  20448398.281   107457072.64849  20448396.778    83732787.65849
  23088412.416   121330422.44248  23088411.334    94543174.87948
  23539588.591   123701390.80347  23539586.070    96390715.87648
  24957312.814   131151578.25746  24957312.400   102196027.32447
  25241748.961   132646294.04547  25241749.027   103360738.23348
  23026794.838   121006654.66648  23026794.753    94290936.31148
  24015918.833   126204515.55947  24015918.091    98341191.09248
 06  4 25 16 14  0.0000000  0 12G 2G 4G 6G 7G 8G10G13G16G21G26G27G29
  22565338.851   118581657.30448  22565335.854    92401260.66549
  25386458.077   133406684.95747  25386458.940   103953246.29248
  22416769.617   117800946.83448  22416769.300    91792945.96448
  24000892.914   126125560.32047  24000894.529    98279664.08648
  24314550.100   127773849.30248  24314549.294    99564037.38747
  20443800.888   107432913.59449  20443799.475    83713962.43849
  23107035.570   121428287.61847  23107034.291    94619433.39748
  23541002.019   123708818.47947  23540999.253    96396503.62448
  24936085.529   131040029.37045  24936085.188   102109106.37847
  25216559.689   132513924.03147  25216559.763   103257592.87648
  23016711.244   120953664.83148  23016711.138    94249645.56349
  23994237.607   126090580.53947  23994236.915    98252410.67848
 06  4 25 16 14 30.0000000  0 12G 2G 4G 6G 7G 8G10G13G16G21G26G27G29
  22585236.005   118686217.24448  22585232.884    92482735.89649
  25408846.405   133524336.48247  25408847.436   104044922.72048
  22423351.295   117835533.53748  22423351.092    91819896.64648
  23987711.112   126056289.32647  23987712.707    98225686.69848
  24293938.869   127665536.68048  24293938.182    99479637.95148
  20439310.039   107409314.08249  20439308.586    83695573.22049
  23125719.947   121526475.05948  23125718.487    94695943.08748
  23542530.697   123716851.11247  23542527.591    96402762.75848
  24914878.619   130928586.37145  24914878.355   102022267.69147
  25191375.601   132381581.13047  25191375.660   103154468.62248
  23006711.928   120901118.16747  23006711.687    94208700.13849
  23972584.757   125976793.92147  23972584.112    98163745.78648
 06  4 25 16 15  0.0000000  0 12G 2G 4G 6G 7G 8G10G13G16G21G26G27G29
  22605192.902   118791090.56748  22605189.752    92564455.27949
  25431236.444   133641996.58447  25431237.576   104136605.82148
  22430037.498   117870669.67448  22430037.500    91847275.42949
  23974605.754   125987420.42447  23974607.173    98172022.60148
  24273365.649   127557423.80148  24273365.190    99395394.23848
  20434925.569   107386273.66349  20434924.012    83677619.68449
  23144464.991   121624981.05447  23144463.421    94772700.99148
  23544174.148   123725487.44648  23544170.965    96409492.37848
  24893692.177   130817250.77245  24893691.966   101935512.65747
  25166196.981   132249266.93247  25166197.041   103051366.73048
  22996797.037   120849015.09248  22996796.575    94168100.34748
  23950960.403   125863157.14147  23950959.745    98075197.68348
 06  4 25 16 15 30.0000000  0 12G 2G 4G 6G 7G 8G10G13G16G21G26G27G29
  22625150.495   118895967.73948  22625147.416    92646177.69949
  25453569.199   133759355.69247  25453570.406   104228054.40048
  22436769.391   117906046.17048  22436769.567    91874841.52748
  23961518.793   125918648.01247  23961519.849    98118433.72747
  24252772.511   127449206.00848  24252772.283    99311068.69648
  20430589.047   107363484.99149  20430587.434    83659862.24649
  23163211.614   121723494.78448  23163209.865    94849464.91948
  23545873.760   123734419.06048  23545870.661    96416452.03948
  24872468.009   130705717.76344  24872467.872   101848603.91647
  25140965.719   132116675.97547  25140965.779   102948049.14948
  22986908.324   120797049.61648  22986907.643    94127607.79649
  23929306.483   125749364.77547  23929305.694    97986528.39948
 06  4 25 16 16  0.0000000  0 12G 2G 4G 6G 7G 8G10G13G16G21G26G27G29
  22645254.664   119001615.14248  22645251.583    92728500.28149
  25475990.831   133877181.54247  25475992.076   104319866.64148
  22443693.256   117942431.57548  22443693.583    91903193.77849
  23948597.097   125850743.66747  23948597.846    98065521.19547
  24232306.336   127341655.71747  24232306.370    99227263.33048
  20426446.991   107341718.21449  20426445.289    83642901.13749
  23182105.705   121822783.46947  23182103.868    94926832.70448
  23547775.992   123744414.95048  23547773.070    96424240.95848
  24851353.139   130594757.84145  24851353.075   101762141.56947
  25115828.672   131984580.18247  25115828.741   102845117.42748
  22977192.421   120745992.57748  22977191.595    94087823.07549
  23907769.700   125636188.12547  23907768.759    97898338.87548
 06  4 25 16 16 30.0000000  0 12G 2G 4G 6G 7G 8G10G13G16G21G26G27G29
  22665387.659   119107414.27548  22665384.552    92810941.17149
  25498383.637   133994856.03047  25498384.896   104411560.96348
  22450691.547   117979208.15448  22450691.905    91931850.83049
  23935723.700   125783093.54247  23935724.205    98012806.81847
  24211850.505   127234159.60047  24211850.738    99143500.18648
  20422382.228   107320357.77249  20422380.481    83626256.61649
  23201029.457   121922228.17348  23201027.655    95004322.07648
  23549763.486   123754858.99147  23549760.702    96432379.13648
  24830230.436   130483758.29145  24830230.483   101675648.61747
  25090669.126   131852365.93847  25090669.190   102742093.36648
  22967532.553   120695229.66148  22967531.618    94048267.55348
  23886233.230   125523013.73847  23886232.321    97810151.13648
 06  4 25 16 17  0.0000000  0 12G 2G 4G 6G 7G 8G10G13G16G21G26G27G29
  22685549.008   119213362.50648  22685545.968    92893498.20649
  25520747.209   134112377.17447  25520748.542   104503135.79248
  22457764.144   118016374.53047  22457764.332    91960811.60848
  23922899.147   125715699.28047  23922899.296    97960291.77048
  24191405.381   127126720.50047  24191405.811    99059781.50048
  20418394.868   107299404.02549  20418393.121    83609928.98049
  23219982.355   122021826.13947  23219980.830    95081930.84648
  23551836.228   123765750.54047  23551833.641    96440865.94648
  24809101.724   130372699.97345  24809100.758   101589120.17747
  25065487.355   131720035.21147  25065487.412   102638978.60348
  22957928.942   120644762.72048  22957928.056    94008942.66749
  23864697.499   125409843.11846  23864696.721    97721966.26848
 06  4 25 16 17 30.0000000  0 12G 2G 4G 6G 7G 8G10G13G16G21G26G27G29
  22705825.970   119319918.47048  22705823.092    92976528.82649
  25543169.077   134230204.35547  25543170.443   104594949.10348
  22464998.334   118054390.48448  22464998.443    91990434.42848
  23910211.473   125649024.38147  23910211.462    97908337.24448
  24171059.393   127019802.79747  24171060.012    98976469.10848
  20414572.784   107279318.83548  20414571.052    83594278.18149
  23239051.697   122122035.89248  23239050.504    95160016.34748
  23554081.600   123777550.26847  23554079.140    96450060.51048
  24788052.470   130262087.14445  24788051.823   101502928.55547
  25040371.704   131588051.85547  25040371.749   102536134.50348
  22948469.732   120595054.17248  22948468.885    93970208.72549
  23843250.612   125297140.27946  23843250.129    97634145.96448
 06  4 25 16 18  0.0000000  0 12G 2G 4G 6G 7G 8G10G13G16G21G26G27G29
  22726130.688   119426620.39348  22726127.932    93059673.19149
  25565561.444   134347876.81947  25565562.857   104686641.85848
  22472306.543   118092795.44248  22472306.669    92020360.36248
  23897573.662   125582611.92747  23897573.591    97856587.21248
  24150725.869   126912950.22247  24150726.533    98893207.50248
  20410828.719   107259643.67149  20410827.060    83578946.85049
  23258149.608   122222395.62548  23258148.632    95238218.70748
  23556412.338   123789798.56948  23556410.015    96459604.55748
  24766997.548   130151442.31445  24766996.834   101416711.74147
  25015235.274   131455959.18247  25015235.327   102433205.18248
  22939067.777   120545646.37748  22939066.931    93931709.16849
  23821805.738   125184448.11046  23821805.597    97546333.94048
 06  4 25 16 18 30.0000000  0 12G 2G 4G 6G 7G 8G10G13G16G21G26G27G29
  22746462.729   119533466.14748  22746460.109    93142929.61849
  25587924.042   134465392.94148  25587925.585   104778212.77648
  22479688.512   118131588.57647  22479688.783    92050588.78948
  23884986.177   125516464.18047  23884986.081    97805043.49448
  24130405.286   126806165.83747  24130406.149    98809998.95848
  20407162.679   107240378.90849  20407161.044    83563935.40749
  23277275.583   122322903.26747  23277274.828    95316536.28348
  23558828.433   123802495.32548  23558826.163    96469498.12048
  24745936.848   130040768.49446  24745936.192   101330472.58647
  24990078.501   131323759.69747  24990078.562   102330192.65648
  22929723.389   120496541.22548  22929722.525    93893445.42048
  23800363.574   125071769.12447  23800363.409    97458532.20548
 06  4 25 16 19  0.0000000  0 12G 2G 4G 6G 7G 8G10G13G16G21G26G27G29
  22766880.390   119640761.39748  22766877.721    93226536.26549
  25610315.222   134583059.00747  25610316.833   104869900.53348
  22487202.881   118171076.82147  22487203.245    92081358.82048
  23872508.067   125450891.55347  23872507.973    97753947.94448
  24110157.015   126699760.98547  24110157.981    98727086.18948
  20403633.501   107221833.39049  20403631.866    83549484.38849
  23296487.776   122423864.17947  23296487.143    95395207.09348
  23561388.364   123815948.10648  23561386.179    96479980.83548
  24724929.894   129930375.05046  24724929.218   101244451.50947
  24964960.602   131191764.40647  24964960.671   102227339.21348
  22920495.579   120448048.60048  22920494.582    93855658.97449
  23778983.005   124959413.88146  23778982.735    97370982.73148
 06  4 25 16 19 30.0000000  0 12G 2G 4G 6G 7G 8G10G13G16G21G26G27G29
  22787383.525   119748506.31548  22787380.737    93310493.31249
  25632735.158   134700876.31947  25632736.815   104961706.17548
  22494849.869   118211261.39047  22494850.155    92112671.45048
  23860140.389   125385898.62447  23860140.312    97703304.00248
  24089982.207   126593741.74648  24089983.115    98644473.85948
  20400241.911   107204010.43549  20400240.211    83535596.34749
  23315786.316   122525278.75347  23315785.658    95474231.41148
  23564092.615   123830159.22947  23564090.366    96491054.52648
  24703977.474   129820267.68246  24703976.721   101158653.31647
  24939882.530   131059978.37247  24939882.606   102124648.82348
  22911385.133   120400172.63348  22911383.980    93818353.01949
  23757665.086   124847387.42847  23757664.686    97283689.44848
 06  4 25 16 20  0.0000000  0 12G 2G 4G 6G 7G 8G10G13G16G21G26G27G29
  22807913.251   119856390.88248  22807910.253    93394559.15349
  25655124.886   134818534.97947  25655126.559   105053388.18348
  22502570.410   118251833.16847  22502570.709    92144285.76648
  23847824.762   125321180.18947  23847824.760    97652874.09548
  24069822.704   126487802.69047  24069823.407    98561924.00648
  20396929.359   107186602.76349  20396927.614    83522031.91249
  23335112.005   122626835.99947  23335111.372    95553366.85548
  23566882.527   123844820.43748  23566880.334    96502478.85448
  24683021.289   129710141.90946  24683020.428   101072841.11547
  24914786.166   130928096.33847  24914786.282   102021883.66648
  22902333.809   120352607.16548  22902332.597    93781289.02649
  23736351.656   124735384.06547  23736351.016    97196414.15748
 06  4 25 16 20 30.0000000  0 12G 2G 4G 6G 7G 8G10G13G16G21G26G27G29
  22828498.420   119964567.08148  22828495.232    93478852.26649
  25677513.642   134936188.08847  25677515.253   105145065.86347
  22510393.691   118292945.10247  22510393.972    92176321.03048
  23835591.206   125256892.51447  23835591.299    97602779.74448
  24049708.451   126382101.95047  24049708.911    98479559.88248
  20393725.254   107169765.32949  20393723.574    83508911.83849
  23354493.863   122728688.57047  23354493.312    95632732.44048
  23569787.442   123860085.77848  23569785.250    96514373.87748
  24662091.397   129600153.02146  24662090.531   100987135.15347
  24889701.462   130796275.64047  24889701.633   101919166.25648
  22893371.256   120305508.72448  22893370.112    93744588.95949
  23715072.458   124623560.90747  23715071.702    97109279.29748
 06  4 25 16 21  0.0000000  0 12G 2G 4G 6G 7G 8G10G13G16G21G26G27G29
  22849167.970   120073186.48348  22849164.682    93563490.70949
  25699930.366   135053988.27247  25699931.966   105236858.11948
  22518349.015   118334750.39247  22518349.331    92208896.52148
  23823469.414   125193192.44147  23823469.582    97553143.36948
  24029669.397   126276796.41847  24029669.530    98397503.68948
  20390659.181   107153652.97649  20390657.574    83496356.74049
  23373960.771   122830987.86046  23373960.259    95712446.11648
  23572836.495   123876109.09348  23572834.314    96526859.65648
  24641217.408   129490459.53246  24641216.429   100901659.79047
  24864658.266   130664672.94747  24864658.402   101816618.75248
  22884527.230   120259033.08748  22884526.079    93708374.18549
  23693857.286   124512074.20647  23693856.471    97022406.56748
 06  4 25 16 21 30.0000000  0 12G 2G 4G 6G 7G 8G10G13G16G21G26G27G29
  22869863.289   120181941.43448  22869859.985    93648234.79649
  25722316.546   135171628.18847  25722318.204   105328525.52148
  22526377.837   118376942.10347  22526378.204    92241773.16348
  23811401.750   125129775.78247  23811402.072    97503727.62148
  24009648.026   126171583.68247  24009647.772    98315519.81148
  20387672.985   107137960.59348  20387671.458    83484128.93849
  23393454.227   122933425.97647  23393453.580    95792267.97548
  23575971.545   123892584.17748  23575969.361    96539697.49448
  24620341.484   129380757.40346  24620340.344   100816178.02347
  24839598.907   130532985.53147  24839598.957   101714005.26748
  22875743.839   120212876.02448  22875742.656    93672407.66249
  23672648.364   124400621.16247  23672647.524    96935560.16248
 06  4 25 16 22  0.0000000  0 12G 2G 4G 6G 7G 8G10G13G16G21G26G27G29
  22890642.557   120291136.88048  22890639.191    93733322.10649
  25744730.488   135289413.84246  25744732.053   105420306.48747
  22534538.481   118419826.32748  22534538.713    92275189.49049
  23799447.037   125066953.06347  23799447.271    97454774.89848
  23989703.449   126066774.56547  23989702.829    98233850.44548
  20384825.293   107122996.21649  20384823.850    83472468.42449
  23413032.070   123036307.80047  23413031.377    95872435.59448
  23579250.972   123909817.92948  23579248.854    96553126.44148
  24599522.964   129271355.34146  24599521.732   100730929.69447
  24814582.453   130401523.30247  24814582.370   101611567.27248
  22867079.972   120167346.97448  22867078.774    93636930.54649
  23651504.844   124289511.49747  23651503.961    96848981.24048
 06  4 25 16 22 30.0000000  0 12G 2G 4G 6G 7G 8G10G13G16G21G26G27G29
  22911417.787   120400310.88548  22911414.345    93818392.70149
  25767084.515   135406884.01746  25767085.961   105511841.59547
  22542743.194   118462942.04548  22542743.206    92308786.14448
  23787518.217   125004266.31447  23787518.607    97405928.01048
  23969748.953   125961912.67047  23969747.971    98152139.95048
  20382028.858   107108300.94449  20382027.398    83461017.58149
  23432606.353   123139171.09947  23432605.742    95952588.75248
  23582587.333   123927350.06347  23582585.395    96566787.73748
  24578674.732   129161796.51946  24578673.481   100645559.02947
  24789521.925   130269829.24746  24789521.695   101508948.59448
  22858448.436   120121987.72548  22858447.343    93601585.68649
  23630339.667   124178287.83446  23630338.739    96762313.51148
 06  4 25 16 23  0.0000000  0 12G 2G 4G 6G 7G 8G10G13G16G21G26G27G29
  22932276.565   120509923.66048  22932273.111    93903805.20649
  25789466.122   135524500.09446  25789467.579   105603490.42247
  22551079.757   118506750.76048  22551079.657    92342922.79648
  23775703.660   124942181.08747  23775704.220    97357550.01048
  23949873.030   125857428.58647  23949871.702    98070722.07748
  20379371.841   107094337.91549  20379370.238    83450137.29749
  23452264.707   123242476.66547  23452264.177    96033086.53948
  23586068.408   123945642.86148  23586066.788    96581041.70848
  24557885.128   129052547.50646  24557883.803   100560430.17747
  24764505.853   130138368.99646  24764505.536   101406512.10248
  22849937.572   120077262.73748  22849936.592    93566735.01849
  23609241.268   124067415.59546  23609240.504    96675919.54548
 06  4 25 16 23 30.0000000  0 12G 2G 4G 6G 7G 8G10G13G16G21G26G27G29
  22953218.926   120619975.91748  22953215.558    93989560.18249
  25811875.788   135642263.33846  25811877.252   105695253.87946
  22559548.517   118551254.08047  22559548.306    92377600.68849
  23764004.641   124880701.82847  23764005.293    97309644.04648
  23930076.764   125753398.75347  23930075.601    97989659.94848
  20376854.785   107081110.53849  20376853.042    83439830.26849
  23472007.286   123346224.71547  23472006.709    96113929.15648
  23589694.806   123964699.21048  23589693.424    96595890.67748
  24537155.409   128943612.91147  24537154.012   100475546.27347
  24739535.312   130007148.26146  24739534.934   101304262.25647
  22841548.143   120033176.46148  22841547.238    93532382.14249
  23588210.683   123956900.12447  23588210.121    96589803.67348
 06  4 25 16 24  0.0000000  0 12G 2G 4G 6G 7G 8G10G13G16G21G26G27G29
  22974215.589   120730313.56648  22974212.278    94075537.55149
  25834284.314   135760020.62546  25834285.808   105787012.73346
  22568120.272   118596298.74047  22568119.922    92412700.39748
  23752392.426   124819679.16047  23752393.070    97262093.93448
  23910331.974   125649639.39948  23910330.972    97908808.55348
  20374448.918   107068467.46849  20374447.095    83429978.50549
  23491804.768   123450261.15047  23491804.244    96194996.44048
  23593437.235   123984366.80748  23593435.997    96611216.26248
  24516457.215   128834843.29347  24516455.785   100390790.74747
  24714581.985   129876017.76546  24714581.500   101202082.71047
  22833251.775   119989578.69048  22833250.884    93498409.83549
  23567219.567   123846591.81646  23567219.285    96503849.17748
 06  4 25 16 24 30.0000000  0 12G 2G 4G 6G 7G 8G10G13G16G21G26G27G29
  22995207.439   120840626.10648  22995204.134    94161495.28949
  25856632.894   135877462.45845  25856634.393   105878525.76545
  22576736.274   118641575.38548  22576735.678    92447980.91748
  23740808.818   124758807.51447  23740809.407    97214661.61748
  23890580.726   125545845.67248  23890579.780    97827930.34748
  20372095.673   107056101.29949  20372093.826    83420342.54349
  23511598.020   123554275.64047  23511597.613    96276046.66548
  23597237.441   124004336.71148  23597236.121    96626777.26148
  24495732.379   128725933.01047  24495730.952   100305925.45448
  24689587.767   129744672.32845  24689587.194   101099735.70647
  22824990.157   119946163.28548  22824989.280    93464579.60149
  23546209.945   123736185.34747  23546209.636    96417818.23848
 06  4 25 16 25  0.0000000  0 12G 2G 4G 6G 7G 8G10G13G16G21G26G27G29
  23016311.744   120951529.69648  23016308.379    94247913.58049
  25879038.637   135995205.87045  25879040.113   105970273.85055
  22585513.712   118687700.75948  22585512.969    92483922.76648
  23729371.982   124698707.34947  23729372.498    97167830.50848
  23870941.200   125442638.98947  23870940.302    97747509.53248
  20369912.838   107044630.67449  20369911.045    83411404.36049
  23531504.275   123658883.90647  23531504.035    96357559.54448
  23601212.665   124025226.56448  23601211.340    96643054.99248
  24475098.811   128617503.47447  24475097.314   100221435.06447
  24664670.748   129613732.91245  24664670.217   100997705.03747
  22816881.103   119903549.82248  22816880.135    93431374.32149
  23525299.772   123626301.36947  23525299.365    96332194.39448
 06  4 25 16 25 30.0000000  0 12G 2G 4G 6G 7G 8G10G13G16G21G26G27G29
  23037410.980   121062406.86948  23037407.630    94334311.33049
  25901384.747   136112634.12644
  22594335.272   118734058.21347  22594334.370    92520045.43049
  23717965.248   124638765.21647  23717965.695    97121122.46348
  23851296.910   125339407.48448  23851296.044    97667069.42548
  20367783.565   107033441.05049  20367781.793    83402685.14449
  23551405.909   123763468.16747  23551405.886    96439053.73248
  23605245.797   124046420.68848  23605244.390    96659569.84448
  24454440.052   128508941.14847  24454438.534   100136841.09547
  24639714.377   129482587.51544  24639714.025   100895513.91547
  22808807.903   119861124.77448  22808806.847    93398315.83849
  23504372.550   123516327.32548  23504371.905    96246500.38248
 06  4 25 16 26  0.0000000  0 11G 2G 6G 7G 8G10G13G16G21G26G27G29
  23058593.199   121173720.33748  23058590.001    94421049.03449
  22603289.277   118781111.85748  22603288.378    92556710.56348
  23706677.629   124579448.50347  23706677.959    97074901.69848
  23831737.073   125236619.78648  23831736.197    97586975.15248
  20365796.434   107022998.19849  20365794.689    83394547.81649
  23571391.123   123868491.26846  23571391.255    96520889.85447
  23609425.235   124068383.59948  23609423.801    96676683.77348
  24433845.241   128400713.65847  24433843.797   100052507.71548
  24614807.861   129351703.58044  24614807.633   100793526.52947
  22800859.331   119819354.90348  22800858.212    93365767.88049
  23483517.114   123406730.64347  23483516.251    96161100.40148
 06  4 25 16 26 30.0000000  0 11G 2G 6G 7G 8G10G13G16G21G26G27G29
  23079857.924   121285467.31448  23079854.839    94508124.55748
  22612375.376   118828859.78548  22612374.550    92593916.70149
  23695509.462   124520759.17147  23695509.605    97029169.71648
  23812262.184   125134278.55148  23812261.314    97507228.79148
  20363951.307   107013302.08849  20363949.622    83386992.42049
  23591459.489   123973950.90247  23591459.583    96603066.14448
  23613750.773   124091114.48147  23613749.381    96694396.14248
  24413314.665   128292824.84647  24413313.229    99968438.53347
  24589951.729   129221083.91244  24589951.627   100691745.08947
  22793035.674   119778241.55948  22793034.543    93333731.51549
  23462733.817   123297513.71347  23462732.883    96075996.36148
 06  4 25 16 27  0.0000000  0 10G 2G 6G 7G 8G10G13G16G21G27G29
  23101087.880   121397031.57648  23101084.902    94595057.73849
  22621476.477   118876686.73948  22621475.770    92631184.45648
  23684344.228   124462085.53248  23684344.117    96983450.16048
  23792755.950   125031772.84948  23792755.131    97427354.29448
  20362131.497   107003739.01349  20362129.884    83379540.68149
  23611493.678   124079230.30547  23611493.525    96685101.97648
  23618105.460   124113998.39148  23618104.206    96712227.67448
  24392731.783   128184661.66447  24392730.389    99884155.65048
  22785220.465   119737172.20248  22785219.233    93301729.44049
  23441906.363   123188064.82446  23441905.407    95990711.60847
 06  4 25 16 27 30.0000000  0 10G 2G 6G 7G 8G10G13G16G21G27G29
  23122459.114   121509338.20148  23122456.217    94682569.35649
  22630768.687   118925517.66347  22630768.273    92669234.48548
  23673358.768   124404356.54847  23673358.526    96938466.59548
  23773395.390   124930032.51448  23773394.615    97348076.15848
  20360513.546   106995236.40549  20360511.938    83372915.24149
  23631669.561   124185254.34847  23631669.103    96767718.06648
  23622665.510   124137961.95947  23622664.359    96730900.64248
  24372273.680   128077153.20147  24372272.524    99800382.58247
  22777590.281   119697075.34548  22777589.040    93270485.13549
  23421211.553   123079313.27147  23421210.512    95905970.22348
 06  4 25 16 28  0.0000000  0 11G 2G 6G 7G 8G10G13G16G21G26G27G29
  23143825.968   121621621.62248  23143823.064    94770062.90049
  22640106.575   118974588.99947  22640106.613    92707471.86249
  23662408.349   124346811.17647  23662408.059    96893625.98148
  23754036.011   124828298.63748  23754035.293    97268803.09648
  20358952.382   106987032.21549  20358950.802    83366522.37149
  23651841.543   124291257.73547  23651840.750    96850318.05848
  23627285.743   124162241.51147  23627284.626    96749819.70848
  24351795.711   127969540.77647  24351794.413    99716528.79648
  24515372.487   128829170.34945  24515373.142   100386359.03347
  22770000.299   119657190.03348  22769999.084    93239405.69348
  23400504.733   122970498.63747  23400503.688    95821179.64548
 06  4 25 16 28 30.0000000  0 11G 2G 6G 7G 8G10G13G16G21G26G27G29
  23165277.498   121734349.54648  23165274.457    94857902.79949
  22649579.424   119024368.78647  22649579.749    92746261.27048
  23651582.818   124289922.15948  23651582.550    96849296.83348
  23734767.875   124727044.05548  23734767.194    97189903.48248
  20357537.503   106979596.78848  20357535.963    83360728.52749
  23672098.677   124397708.07148  23672097.530    96933266.27948
  23632055.468   124187306.55548  23632054.296    96769350.89648
  24331387.865   127862297.07347  24331386.582    99632962.29448
  24490583.523   128698904.49945  24490584.263   100284853.25047
  22762540.296   119617987.76648  22762539.130    93208858.49049
  23379875.789   122862093.77346  23379874.827    95736708.34548
 06  4 25 16 29  0.0000000  0 11G 2G 6G 7G 8G10G13G16G21G26G27G29
  23186729.436   121847079.36748  23186726.250    94945744.18249
  22659103.037   119074415.39848  22659103.582    92785258.58749
  23640798.780   124233251.09448  23640798.610    96805137.52648
  23715507.797   124625831.75248  23715507.139    97111036.80748
  20356185.189   106972490.14248  20356183.651    83355190.87949
  23692356.521   124504162.63548  23692355.125    97016217.80748
  23636890.769   124212715.39048  23636889.618    96789149.73448
  24310966.652   127754983.28347  24310965.429    99549341.18348
  24465767.760   128568496.50245  24465768.318   100183236.69747
  22755126.689   119579029.18848  22755125.547    93178501.17248
  23359241.539   122753660.71146  23359240.638    95652215.07448
 06  4 25 16 29 30.0000000  0 11G 2G 6G 7G 8G10G13G16G21G26G27G29
  23208245.399   121960145.67148  23208242.125    95033847.74749
  22668741.231   119125064.41748  22668741.893    92824725.32748
  23630120.674   124177136.95447  23630120.558    96761412.21848
  23696320.466   124525001.86847  23696319.854    97032468.11548
  20354959.557   106966049.36849  20354958.031    83350172.07949
  23712678.859   124610956.55348  23712677.313    97099433.79948
  23641855.551   124238805.27848  23641854.441    96809479.47848
  24290596.821   127647939.28247  24290595.638    99465930.22948
  24440989.642   128438286.42546  24440990.017   100081774.35447
  22747823.943   119540652.99748  22747822.725    93148597.64749
  23338666.580   122645538.79247  23338665.852    95567964.20248
 06  4 25 16 30  0.0000000  0 11G 2G 6G 7G 8G10G13G16G21G26G27G29
  23229830.747   122073576.94048  23229827.468    95122235.68149
  22678499.411   119176344.49547  22678500.101    92864683.80748
  23619555.009   124121611.10448  23619555.021    96718144.67248
  23677212.277   124424587.81248  23677211.720    96954223.40648
  20353866.510   106960305.21649  20353864.951    83345696.09849
  23733071.021   124718117.52348  23733069.208    97182935.82648
  23646955.486   124265605.30147  23646954.533    96830362.65648
  24270284.533   127541197.89847  24270283.312    99382755.24647
  24416255.467   128308307.45946  24416255.672    99980492.12847
  22740638.119   119502891.54948  22740636.837    93119173.13649
  23318157.145   122537761.04847  23318156.400    95483981.54748
 06  4 25 16 30 30.0000000  0 11G 2G 6G 7G 8G10G13G16G21G26G27G29
  23251461.771   122187248.39648  23251458.417    95210810.80449
  22688354.246   119228132.09747  22688354.738    92905037.74348
  23609078.218   124066556.72848  23609078.056    96675245.59948
  23658160.545   124324470.65848  23658160.054    96876210.08048
  20352882.825   106955135.97549  20352881.257    83341668.12849
  23753509.197   124825520.92648  23753507.228    97266626.75548
  23652167.069   124292992.29648  23652166.227    96851703.23648
  24250007.129   127434639.26347  24250005.847    99299722.47848
  24391542.520   128178440.26446  24391542.724    99879296.95547
  22733546.147   119465623.57948  22733544.901    93090133.15749
  23297690.406   122430207.57347  23297689.758    95400173.69648
 06  4 25 16 31  0.0000000  0 11G 2G 6G 7G 8G10G13G16G21G26G27G29
  23273114.905   122301036.38548  23273111.578    95299476.71949
  22698282.210   119280304.15247  22698282.468    92945691.26348
  23598668.216   124011851.42148  23598667.903    96632618.10648
  23639142.886   124224532.40548  23639142.440    96798336.12948
  20351985.459   106950420.66349  20351983.952    83337993.87849
  23773969.956   124933043.16048  23773967.895    97350410.26948
  23657467.185   124320844.09147  23657466.383    96873405.83148
  24229742.101   127328145.13546  24229740.733    99216739.87947
  24366828.217   128048566.03547  24366828.394    99778096.34347
  22726525.377   119428729.49748  22726524.086    93061384.52949
  23277243.729   122322759.53347  23277243.152    95316447.98348
 06  4 25 16 31 30.0000000  0 11G 2G 6G 7G 8G10G13G16G21G26G27G29
  23294854.676   122415279.86948  23294851.406    95388497.52749
  22708348.040   119333200.22847  22708347.958    92986908.98348
  23588390.306   123957839.73348  23588389.673    96590531.03248
  23620224.875   124125117.80848  23620224.439    96720870.23448
  20351239.571   106946501.14749  20351238.115    83334939.70549
  23794517.889   125041023.52648  23794515.880    97434550.76748
  23662920.450   124349501.75447  23662919.699    96895736.50048
  24209554.986   127222060.03446  24209552.533    99134076.20347
  24342178.222   127919029.41047  24342178.359    99677158.75847
  22719641.102   119392552.16648  22719639.697    93033194.39049
  23256882.534   122215760.95047  23256881.925    95233072.50448
 06  4 25 16 32  0.0000000  0 11G 2G 6G 7G 8G10G13G16G21G26G27G29
  23316598.681   122529545.72948  23316595.486    95477535.80349
  22718469.329   119386387.92647  22718469.056    93028353.90248
  23578162.435   123904092.63148  23578161.665    96548650.30148
  23601325.070   124025798.94347  23601324.625    96643478.96748
  20350563.110   106942946.26049  20350561.643    83332169.66649
  23815070.512   125149028.57348  23815068.673    97518710.48748
  23668444.741   124378532.94447  23668444.060    96918358.24048
  24189363.808   127115954.68146  24189361.521    99051396.75847
  24317510.895   127789401.82547  24317510.983    99576150.32047
  22712811.432   119356661.44748  22712809.920    93005227.59349
  23236525.304   122108783.01647  23236524.452    95149713.14948
 06  4 25 16 32 30.0000000  0 11G 2G 6G 7G 8G10G13G16G21G26G27G29
  23338352.595   122643863.72848  23338349.527    95566614.74848
  22728651.919   119439897.89648  22728651.470    93070049.96848
  23567991.481   123850644.18848  23567990.469    96507002.23548
  23582450.209   123926611.03647  23582449.747    96566189.71948
  20349962.216   106939788.60449  20349960.766    83329709.17649
  23835633.523   125257087.92148  23835631.935    97602912.51748
  23674046.121   124407968.89647  23674045.517    96941295.36648
  24169175.107   127009864.27747  24169173.606    98968729.02747
  24292832.978   127659718.49547  24292833.047    99475098.42147
  22706042.724   119321091.33348  22706041.221    92977510.62349
  23216178.583   122001860.40146  23216177.525    95066396.88348
 06  4 25 16 33  0.0000000  0 11G 2G 6G 7G 8G10G13G16G21G26G27G29
  23360209.582   122758722.87648  23360206.586    95656115.34449
  22738988.936   119494219.66147  22738988.415    93112378.59148
  23557971.185   123797987.30048  23557970.104    96465970.82748
  23563694.227   123828048.27847  23563693.736    96489387.61548
  20349530.494   106937519.63849  20349529.029    83327941.15849
  23856299.870   125365690.43647  23856298.684    97687537.80248
  23679817.858   124438300.07848  23679817.262    96964930.10348
  24149083.287   126904282.83047  24149082.344    98886457.97848
  24268238.494   127530473.54847  24268238.548    99374388.09247
  22699428.624   119286334.50248  22699427.214    92950427.43248
  23195936.313   121895486.86647  23195935.249    94983508.46148
 06  4 25 16 33 30.0000000  0 11G 2G 6G 7G 8G10G13G16G21G26G27G29
  23382116.244   122873842.97548  23382113.262    95745819.27149
  22749427.243   119549073.80347  22749426.748    93155122.07348
  23548049.270   123745846.78447  23548048.032    96425341.85048
  23545005.085   123729836.33147  23545004.411    96412858.85848
  20349215.028   106935862.04249  20349213.685    83326649.50549
  23877016.433   125474556.39548  23877015.478    97772368.36348
  23685706.959   124469247.57648  23685706.382    96989044.93848
  24129035.970   126798934.59446  24129035.334    98804368.63648
  24243675.033   127401391.97047  24243675.009    99273805.13147
  22692916.726   119252114.31148  22692915.283    92923762.41449
  23175745.995   121789387.02847  23175745.017    94900833.36848
